<?xml version="1.0" encoding="UTF-8" standalone="no" ?>
<gpx xmlns="http://www.topografix.com/GPX/1/1" xmlns:xsi="http://www.w3.org/2001/XMLSchema-instance" xsi:schemaLocation="http://www.topografix.com/GPX/1/1 http://www.topografix.com/GPX/1/1/gpx.xsd" version="1.1" creator="VisuGPX - https://www.visugpx.com">
  <metadata>
    <name>Maroc 2018 - Trajet complet</name>
    <desc><![CDATA[Maroc 2018 - Trajet complet de tassa ouirgane au Toubkal et retour à Imlil]]></desc>
  </metadata>
  <trk>
    <name><![CDATA[2018-06-17 12:37:07]]></name>
    <trkseg>
      <trkpt lat="31.16563" lon="-8.02967">
        <ele>1097.45</ele>
        <time>2018-06-17T10:06:13Z</time>
      </trkpt>
      <trkpt lat="31.16554" lon="-8.02917">
        <ele>1104.46</ele>
        <time>2018-06-17T10:07:13Z</time>
      </trkpt>
      <trkpt lat="31.16512" lon="-8.0286">
        <ele>1113.68</ele>
        <time>2018-06-17T10:08:13Z</time>
      </trkpt>
      <trkpt lat="31.16483" lon="-8.0282">
        <ele>1120.41</ele>
        <time>2018-06-17T10:09:13Z</time>
      </trkpt>
      <trkpt lat="31.16451" lon="-8.0279">
        <ele>1127.38</ele>
        <time>2018-06-17T10:10:13Z</time>
      </trkpt>
      <trkpt lat="31.16407" lon="-8.02756">
        <ele>1134.57</ele>
        <time>2018-06-17T10:11:13Z</time>
      </trkpt>
      <trkpt lat="31.16367" lon="-8.0273">
        <ele>1140.88</ele>
        <time>2018-06-17T10:12:13Z</time>
      </trkpt>
      <trkpt lat="31.16335" lon="-8.02656">
        <ele>1150.05</ele>
        <time>2018-06-17T10:13:13Z</time>
      </trkpt>
      <trkpt lat="31.16319" lon="-8.0258">
        <ele>1154.67</ele>
        <time>2018-06-17T10:14:13Z</time>
      </trkpt>
      <trkpt lat="31.16366" lon="-8.02534">
        <ele>1158.8</ele>
        <time>2018-06-17T10:15:13Z</time>
      </trkpt>
      <trkpt lat="31.16408" lon="-8.02495">
        <ele>1159.24</ele>
        <time>2018-06-17T10:16:13Z</time>
      </trkpt>
      <trkpt lat="31.16461" lon="-8.02448">
        <ele>1159.79</ele>
        <time>2018-06-17T10:17:13Z</time>
      </trkpt>
      <trkpt lat="31.16511" lon="-8.02434">
        <ele>1162.56</ele>
        <time>2018-06-17T10:18:13Z</time>
      </trkpt>
      <trkpt lat="31.16582" lon="-8.02406">
        <ele>1159.77</ele>
        <time>2018-06-17T10:19:13Z</time>
      </trkpt>
      <trkpt lat="31.16616" lon="-8.02352">
        <ele>1162.97</ele>
        <time>2018-06-17T10:20:13Z</time>
      </trkpt>
      <trkpt lat="31.16634" lon="-8.02316">
        <ele>1167.28</ele>
        <time>2018-06-17T10:21:13Z</time>
      </trkpt>
      <trkpt lat="31.16629" lon="-8.02235">
        <ele>1172.37</ele>
        <time>2018-06-17T10:22:13Z</time>
      </trkpt>
      <trkpt lat="31.1669" lon="-8.02177">
        <ele>1168.77</ele>
        <time>2018-06-17T10:23:13Z</time>
      </trkpt>
      <trkpt lat="31.16674" lon="-8.02083">
        <ele>1164.81</ele>
        <time>2018-06-17T10:24:13Z</time>
      </trkpt>
      <trkpt lat="31.16649" lon="-8.02027">
        <ele>1168.66</ele>
        <time>2018-06-17T10:25:13Z</time>
      </trkpt>
      <trkpt lat="31.16638" lon="-8.01962">
        <ele>1171.83</ele>
        <time>2018-06-17T10:26:13Z</time>
      </trkpt>
      <trkpt lat="31.16669" lon="-8.01896">
        <ele>1181.27</ele>
        <time>2018-06-17T10:27:13Z</time>
      </trkpt>
      <trkpt lat="31.1669" lon="-8.01854">
        <ele>1188.19</ele>
        <time>2018-06-17T10:28:13Z</time>
      </trkpt>
      <trkpt lat="31.1668" lon="-8.0179">
        <ele>1197.17</ele>
        <time>2018-06-17T10:29:13Z</time>
      </trkpt>
      <trkpt lat="31.16721" lon="-8.01761">
        <ele>1205.81</ele>
        <time>2018-06-17T10:30:13Z</time>
      </trkpt>
      <trkpt lat="31.16763" lon="-8.01729">
        <ele>1213.33</ele>
        <time>2018-06-17T10:31:13Z</time>
      </trkpt>
      <trkpt lat="31.16802" lon="-8.01667">
        <ele>1219.55</ele>
        <time>2018-06-17T10:32:13Z</time>
      </trkpt>
      <trkpt lat="31.16821" lon="-8.01602">
        <ele>1221.38</ele>
        <time>2018-06-17T10:33:13Z</time>
      </trkpt>
      <trkpt lat="31.16827" lon="-8.01583">
        <ele>1221.66</ele>
        <time>2018-06-17T10:34:13Z</time>
      </trkpt>
      <trkpt lat="31.16824" lon="-8.01574">
        <ele>1221.75</ele>
        <time>2018-06-17T10:35:13Z</time>
      </trkpt>
      <trkpt lat="31.16823" lon="-8.01567">
        <ele>1222.13</ele>
        <time>2018-06-17T10:36:13Z</time>
      </trkpt>
      <trkpt lat="31.16824" lon="-8.01571">
        <ele>1222.26</ele>
        <time>2018-06-17T10:37:13Z</time>
      </trkpt>
      <trkpt lat="31.16834" lon="-8.01501">
        <ele>1221.98</ele>
        <time>2018-06-17T10:38:13Z</time>
      </trkpt>
      <trkpt lat="31.16833" lon="-8.01427">
        <ele>1221.35</ele>
        <time>2018-06-17T10:39:13Z</time>
      </trkpt>
      <trkpt lat="31.16838" lon="-8.01348">
        <ele>1218.22</ele>
        <time>2018-06-17T10:40:13Z</time>
      </trkpt>
      <trkpt lat="31.16833" lon="-8.01273">
        <ele>1223.34</ele>
        <time>2018-06-17T10:41:13Z</time>
      </trkpt>
      <trkpt lat="31.16871" lon="-8.01212">
        <ele>1229.92</ele>
        <time>2018-06-17T10:42:13Z</time>
      </trkpt>
      <trkpt lat="31.1691" lon="-8.01153">
        <ele>1234.08</ele>
        <time>2018-06-17T10:43:13Z</time>
      </trkpt>
      <trkpt lat="31.16956" lon="-8.01093">
        <ele>1235.46</ele>
        <time>2018-06-17T10:44:13Z</time>
      </trkpt>
      <trkpt lat="31.16999" lon="-8.01027">
        <ele>1233.83</ele>
        <time>2018-06-17T10:45:13Z</time>
      </trkpt>
      <trkpt lat="31.17" lon="-8.00945">
        <ele>1235.55</ele>
        <time>2018-06-17T10:46:13Z</time>
      </trkpt>
      <trkpt lat="31.16999" lon="-8.00888">
        <ele>1238.68</ele>
        <time>2018-06-17T10:47:13Z</time>
      </trkpt>
      <trkpt lat="31.16999" lon="-8.00881">
        <ele>1238.91</ele>
        <time>2018-06-17T10:48:13Z</time>
      </trkpt>
      <trkpt lat="31.17006" lon="-8.00827">
        <ele>1244.34</ele>
        <time>2018-06-17T10:49:13Z</time>
      </trkpt>
      <trkpt lat="31.17018" lon="-8.00758">
        <ele>1248.51</ele>
        <time>2018-06-17T10:50:13Z</time>
      </trkpt>
      <trkpt lat="31.17007" lon="-8.00679">
        <ele>1252.59</ele>
        <time>2018-06-17T10:51:13Z</time>
      </trkpt>
      <trkpt lat="31.17003" lon="-8.00609">
        <ele>1257.95</ele>
        <time>2018-06-17T10:52:13Z</time>
      </trkpt>
      <trkpt lat="31.16997" lon="-8.00528">
        <ele>1262.69</ele>
        <time>2018-06-17T10:53:13Z</time>
      </trkpt>
      <trkpt lat="31.17001" lon="-8.00474">
        <ele>1273.12</ele>
        <time>2018-06-17T10:54:13Z</time>
      </trkpt>
      <trkpt lat="31.16995" lon="-8.00399">
        <ele>1281.03</ele>
        <time>2018-06-17T10:55:13Z</time>
      </trkpt>
      <trkpt lat="31.17001" lon="-8.00333">
        <ele>1284.58</ele>
        <time>2018-06-17T10:56:13Z</time>
      </trkpt>
      <trkpt lat="31.16997" lon="-8.00254">
        <ele>1288.05</ele>
        <time>2018-06-17T10:57:13Z</time>
      </trkpt>
      <trkpt lat="31.17013" lon="-8.002">
        <ele>1296.98</ele>
        <time>2018-06-17T10:58:13Z</time>
      </trkpt>
      <trkpt lat="31.17007" lon="-8.00135">
        <ele>1305.01</ele>
        <time>2018-06-17T10:59:13Z</time>
      </trkpt>
      <trkpt lat="31.16997" lon="-8.00058">
        <ele>1308.33</ele>
        <time>2018-06-17T11:00:13Z</time>
      </trkpt>
      <trkpt lat="31.16994" lon="-8.00033">
        <ele>1309.33</ele>
        <time>2018-06-17T11:01:13Z</time>
      </trkpt>
      <trkpt lat="31.16994" lon="-8.00033">
        <ele>1309.31</ele>
        <time>2018-06-17T11:02:14Z</time>
      </trkpt>
      <trkpt lat="31.16994" lon="-8.00031">
        <ele>1309.25</ele>
        <time>2018-06-17T11:03:14Z</time>
      </trkpt>
      <trkpt lat="31.16993" lon="-8.00034">
        <ele>1308.8</ele>
        <time>2018-06-17T11:04:15Z</time>
      </trkpt>
      <trkpt lat="31.16994" lon="-8.00032">
        <ele>1308.95</ele>
        <time>2018-06-17T11:05:15Z</time>
      </trkpt>
      <trkpt lat="31.16985" lon="-8.00032">
        <ele>1309.34</ele>
        <time>2018-06-17T11:06:16Z</time>
      </trkpt>
      <trkpt lat="31.16983" lon="-8.00033">
        <ele>1309.03</ele>
        <time>2018-06-17T11:07:16Z</time>
      </trkpt>
      <trkpt lat="31.16988" lon="-8.00034">
        <ele>1308.41</ele>
        <time>2018-06-17T11:08:16Z</time>
      </trkpt>
      <trkpt lat="31.16986" lon="-8.00035">
        <ele>1309.05</ele>
        <time>2018-06-17T11:09:16Z</time>
      </trkpt>
      <trkpt lat="31.16961" lon="-8.00026">
        <ele>1312.29</ele>
        <time>2018-06-17T11:10:16Z</time>
      </trkpt>
      <trkpt lat="31.16934" lon="-8.00002">
        <ele>1314.25</ele>
        <time>2018-06-17T11:11:16Z</time>
      </trkpt>
      <trkpt lat="31.16908" lon="-7.9997">
        <ele>1318.65</ele>
        <time>2018-06-17T11:12:16Z</time>
      </trkpt>
      <trkpt lat="31.16884" lon="-7.99907">
        <ele>1325.44</ele>
        <time>2018-06-17T11:13:16Z</time>
      </trkpt>
      <trkpt lat="31.16856" lon="-7.99859">
        <ele>1331.39</ele>
        <time>2018-06-17T11:14:16Z</time>
      </trkpt>
      <trkpt lat="31.16851" lon="-7.99862">
        <ele>1330.58</ele>
        <time>2018-06-17T11:15:18Z</time>
      </trkpt>
      <trkpt lat="31.16901" lon="-7.99798">
        <ele>1339.78</ele>
        <time>2018-06-17T11:16:18Z</time>
      </trkpt>
      <trkpt lat="31.16918" lon="-7.9972">
        <ele>1344.64</ele>
        <time>2018-06-17T11:17:18Z</time>
      </trkpt>
      <trkpt lat="31.16919" lon="-7.99645">
        <ele>1352.54</ele>
        <time>2018-06-17T11:18:18Z</time>
      </trkpt>
      <trkpt lat="31.16888" lon="-7.9957">
        <ele>1360.54</ele>
        <time>2018-06-17T11:19:18Z</time>
      </trkpt>
      <trkpt lat="31.16857" lon="-7.99528">
        <ele>1361.53</ele>
        <time>2018-06-17T11:20:18Z</time>
      </trkpt>
      <trkpt lat="31.16832" lon="-7.99469">
        <ele>1363.97</ele>
        <time>2018-06-17T11:21:18Z</time>
      </trkpt>
      <trkpt lat="31.16816" lon="-7.99428">
        <ele>1367.95</ele>
        <time>2018-06-17T11:22:18Z</time>
      </trkpt>
      <trkpt lat="31.1681" lon="-7.99394">
        <ele>1369.27</ele>
        <time>2018-06-17T11:23:18Z</time>
      </trkpt>
      <trkpt lat="31.16763" lon="-7.99355">
        <ele>1371.34</ele>
        <time>2018-06-17T11:24:18Z</time>
      </trkpt>
      <trkpt lat="31.16722" lon="-7.99332">
        <ele>1374.84</ele>
        <time>2018-06-17T11:25:18Z</time>
      </trkpt>
      <trkpt lat="31.1668" lon="-7.99327">
        <ele>1376.98</ele>
        <time>2018-06-17T11:26:18Z</time>
      </trkpt>
      <trkpt lat="31.16685" lon="-7.99332">
        <ele>1376.2</ele>
        <time>2018-06-17T11:27:18Z</time>
      </trkpt>
      <trkpt lat="31.16685" lon="-7.99329">
        <ele>1377.01</ele>
        <time>2018-06-17T11:28:18Z</time>
      </trkpt>
      <trkpt lat="31.16674" lon="-7.99325">
        <ele>1376.63</ele>
        <time>2018-06-17T11:29:18Z</time>
      </trkpt>
      <trkpt lat="31.16671" lon="-7.99327">
        <ele>1376.22</ele>
        <time>2018-06-17T11:30:18Z</time>
      </trkpt>
      <trkpt lat="31.16658" lon="-7.99342">
        <ele>1369.94</ele>
        <time>2018-06-17T11:31:19Z</time>
      </trkpt>
      <trkpt lat="31.16666" lon="-7.99362">
        <ele>1366.32</ele>
        <time>2018-06-17T11:32:19Z</time>
      </trkpt>
      <trkpt lat="31.16665" lon="-7.99385">
        <ele>1359.54</ele>
        <time>2018-06-17T11:33:19Z</time>
      </trkpt>
      <trkpt lat="31.16671" lon="-7.99384">
        <ele>1359.48</ele>
        <time>2018-06-17T11:34:19Z</time>
      </trkpt>
      <trkpt lat="31.1668" lon="-7.9938">
        <ele>1358.84</ele>
        <time>2018-06-17T11:35:19Z</time>
      </trkpt>
      <trkpt lat="31.1668" lon="-7.99386">
        <ele>1359.03</ele>
        <time>2018-06-17T11:36:19Z</time>
      </trkpt>
      <trkpt lat="31.16682" lon="-7.99382">
        <ele>1358.93</ele>
        <time>2018-06-17T11:37:06Z</time>
      </trkpt>
    </trkseg>
  </trk>
  <trk>
    <name><![CDATA[2018-06-17 18:09:42]]></name>
    <trkseg>
      <trkpt lat="31.16679" lon="-7.9932">
        <ele>1460.35</ele>
        <time>2018-06-17T14:00:55Z</time>
      </trkpt>
      <trkpt lat="31.16651" lon="-7.99271">
        <ele>1463.67</ele>
        <time>2018-06-17T14:01:55Z</time>
      </trkpt>
      <trkpt lat="31.16612" lon="-7.9923">
        <ele>1465.95</ele>
        <time>2018-06-17T14:02:55Z</time>
      </trkpt>
      <trkpt lat="31.16572" lon="-7.99165">
        <ele>1465.95</ele>
        <time>2018-06-17T14:03:55Z</time>
      </trkpt>
      <trkpt lat="31.16524" lon="-7.99135">
        <ele>1467.34</ele>
        <time>2018-06-17T14:04:55Z</time>
      </trkpt>
      <trkpt lat="31.16525" lon="-7.99131">
        <ele>1466.27</ele>
        <time>2018-06-17T14:05:56Z</time>
      </trkpt>
      <trkpt lat="31.16478" lon="-7.99119">
        <ele>1469.42</ele>
        <time>2018-06-17T14:07:00Z</time>
      </trkpt>
      <trkpt lat="31.16434" lon="-7.99121">
        <ele>1470.64</ele>
        <time>2018-06-17T14:08:00Z</time>
      </trkpt>
      <trkpt lat="31.16359" lon="-7.99097">
        <ele>1472.45</ele>
        <time>2018-06-17T14:09:00Z</time>
      </trkpt>
      <trkpt lat="31.1628" lon="-7.99068">
        <ele>1477.92</ele>
        <time>2018-06-17T14:10:00Z</time>
      </trkpt>
      <trkpt lat="31.1626" lon="-7.99001">
        <ele>1485.04</ele>
        <time>2018-06-17T14:11:00Z</time>
      </trkpt>
      <trkpt lat="31.16266" lon="-7.98914">
        <ele>1485.37</ele>
        <time>2018-06-17T14:12:00Z</time>
      </trkpt>
      <trkpt lat="31.16196" lon="-7.98916">
        <ele>1489.4</ele>
        <time>2018-06-17T14:13:00Z</time>
      </trkpt>
      <trkpt lat="31.16127" lon="-7.98926">
        <ele>1495.09</ele>
        <time>2018-06-17T14:14:00Z</time>
      </trkpt>
      <trkpt lat="31.1606" lon="-7.98951">
        <ele>1500.01</ele>
        <time>2018-06-17T14:15:00Z</time>
      </trkpt>
      <trkpt lat="31.15987" lon="-7.98955">
        <ele>1502.03</ele>
        <time>2018-06-17T14:16:00Z</time>
      </trkpt>
      <trkpt lat="31.15917" lon="-7.98982">
        <ele>1501.78</ele>
        <time>2018-06-17T14:17:00Z</time>
      </trkpt>
      <trkpt lat="31.15918" lon="-7.99007">
        <ele>1494.66</ele>
        <time>2018-06-17T14:18:00Z</time>
      </trkpt>
      <trkpt lat="31.15903" lon="-7.99005">
        <ele>1488.46</ele>
        <time>2018-06-17T14:19:00Z</time>
      </trkpt>
      <trkpt lat="31.15867" lon="-7.9898">
        <ele>1473.84</ele>
        <time>2018-06-17T14:20:00Z</time>
      </trkpt>
      <trkpt lat="31.15813" lon="-7.98931">
        <ele>1473.19</ele>
        <time>2018-06-17T14:21:00Z</time>
      </trkpt>
      <trkpt lat="31.15775" lon="-7.98933">
        <ele>1468.74</ele>
        <time>2018-06-17T14:22:00Z</time>
      </trkpt>
      <trkpt lat="31.15795" lon="-7.98929">
        <ele>1468.08</ele>
        <time>2018-06-17T14:23:00Z</time>
      </trkpt>
      <trkpt lat="31.15789" lon="-7.98933">
        <ele>1470.91</ele>
        <time>2018-06-17T14:24:00Z</time>
      </trkpt>
      <trkpt lat="31.15756" lon="-7.98946">
        <ele>1465.77</ele>
        <time>2018-06-17T14:25:00Z</time>
      </trkpt>
      <trkpt lat="31.15731" lon="-7.98941">
        <ele>1461.39</ele>
        <time>2018-06-17T14:26:00Z</time>
      </trkpt>
      <trkpt lat="31.15732" lon="-7.98938">
        <ele>1461.46</ele>
        <time>2018-06-17T14:27:00Z</time>
      </trkpt>
      <trkpt lat="31.15706" lon="-7.98941">
        <ele>1461.16</ele>
        <time>2018-06-17T14:28:00Z</time>
      </trkpt>
      <trkpt lat="31.15653" lon="-7.98954">
        <ele>1462.5</ele>
        <time>2018-06-17T14:29:00Z</time>
      </trkpt>
      <trkpt lat="31.15514" lon="-7.99037">
        <ele>1461.54</ele>
        <time>2018-06-17T14:30:08Z</time>
      </trkpt>
      <trkpt lat="31.15485" lon="-7.98991">
        <ele>1456.42</ele>
        <time>2018-06-17T14:31:08Z</time>
      </trkpt>
      <trkpt lat="31.15456" lon="-7.98985">
        <ele>1448.66</ele>
        <time>2018-06-17T14:32:08Z</time>
      </trkpt>
      <trkpt lat="31.15465" lon="-7.9898">
        <ele>1448.59</ele>
        <time>2018-06-17T14:33:08Z</time>
      </trkpt>
      <trkpt lat="31.15465" lon="-7.98923">
        <ele>1451.26</ele>
        <time>2018-06-17T14:34:08Z</time>
      </trkpt>
      <trkpt lat="31.15453" lon="-7.98953">
        <ele>1457.58</ele>
        <time>2018-06-17T14:35:08Z</time>
      </trkpt>
      <trkpt lat="31.15449" lon="-7.98967">
        <ele>1464.32</ele>
        <time>2018-06-17T14:36:08Z</time>
      </trkpt>
      <trkpt lat="31.15412" lon="-7.98936">
        <ele>1473.23</ele>
        <time>2018-06-17T14:37:08Z</time>
      </trkpt>
      <trkpt lat="31.15421" lon="-7.98977">
        <ele>1481.45</ele>
        <time>2018-06-17T14:38:08Z</time>
      </trkpt>
      <trkpt lat="31.1543" lon="-7.99014">
        <ele>1487.27</ele>
        <time>2018-06-17T14:39:08Z</time>
      </trkpt>
      <trkpt lat="31.154" lon="-7.98982">
        <ele>1494.01</ele>
        <time>2018-06-17T14:40:08Z</time>
      </trkpt>
      <trkpt lat="31.15395" lon="-7.98976">
        <ele>1493.92</ele>
        <time>2018-06-17T14:41:08Z</time>
      </trkpt>
      <trkpt lat="31.15395" lon="-7.98972">
        <ele>1494.28</ele>
        <time>2018-06-17T14:42:08Z</time>
      </trkpt>
      <trkpt lat="31.15367" lon="-7.98956">
        <ele>1497.08</ele>
        <time>2018-06-17T14:43:08Z</time>
      </trkpt>
      <trkpt lat="31.15328" lon="-7.98957">
        <ele>1502.48</ele>
        <time>2018-06-17T14:44:08Z</time>
      </trkpt>
      <trkpt lat="31.15281" lon="-7.98961">
        <ele>1505.95</ele>
        <time>2018-06-17T14:45:08Z</time>
      </trkpt>
      <trkpt lat="31.15279" lon="-7.98962">
        <ele>1505.93</ele>
        <time>2018-06-17T14:46:08Z</time>
      </trkpt>
      <trkpt lat="31.15277" lon="-7.98957">
        <ele>1504.28</ele>
        <time>2018-06-17T14:47:08Z</time>
      </trkpt>
      <trkpt lat="31.15261" lon="-7.98944">
        <ele>1507.67</ele>
        <time>2018-06-17T14:48:08Z</time>
      </trkpt>
      <trkpt lat="31.15248" lon="-7.98906">
        <ele>1513.35</ele>
        <time>2018-06-17T14:49:08Z</time>
      </trkpt>
      <trkpt lat="31.15216" lon="-7.98912">
        <ele>1517.57</ele>
        <time>2018-06-17T14:50:08Z</time>
      </trkpt>
      <trkpt lat="31.1518" lon="-7.98925">
        <ele>1519.81</ele>
        <time>2018-06-17T14:51:08Z</time>
      </trkpt>
      <trkpt lat="31.15123" lon="-7.98918">
        <ele>1524.43</ele>
        <time>2018-06-17T14:52:08Z</time>
      </trkpt>
      <trkpt lat="31.15075" lon="-7.98895">
        <ele>1530.44</ele>
        <time>2018-06-17T14:53:09Z</time>
      </trkpt>
      <trkpt lat="31.15056" lon="-7.989">
        <ele>1532.91</ele>
        <time>2018-06-17T14:54:09Z</time>
      </trkpt>
      <trkpt lat="31.15007" lon="-7.98897">
        <ele>1540.61</ele>
        <time>2018-06-17T14:55:09Z</time>
      </trkpt>
      <trkpt lat="31.14969" lon="-7.98914">
        <ele>1541.22</ele>
        <time>2018-06-17T14:56:09Z</time>
      </trkpt>
      <trkpt lat="31.14913" lon="-7.98944">
        <ele>1545.36</ele>
        <time>2018-06-17T14:57:09Z</time>
      </trkpt>
      <trkpt lat="31.14893" lon="-7.99003">
        <ele>1549.6</ele>
        <time>2018-06-17T14:58:09Z</time>
      </trkpt>
      <trkpt lat="31.14846" lon="-7.98974">
        <ele>1557.56</ele>
        <time>2018-06-17T14:59:09Z</time>
      </trkpt>
      <trkpt lat="31.14813" lon="-7.98978">
        <ele>1562.59</ele>
        <time>2018-06-17T15:00:09Z</time>
      </trkpt>
      <trkpt lat="31.14767" lon="-7.98954">
        <ele>1567.73</ele>
        <time>2018-06-17T15:01:09Z</time>
      </trkpt>
      <trkpt lat="31.14724" lon="-7.98911">
        <ele>1569.41</ele>
        <time>2018-06-17T15:02:09Z</time>
      </trkpt>
      <trkpt lat="31.14672" lon="-7.98889">
        <ele>1572.05</ele>
        <time>2018-06-17T15:03:09Z</time>
      </trkpt>
      <trkpt lat="31.14647" lon="-7.9887">
        <ele>1573.22</ele>
        <time>2018-06-17T15:04:09Z</time>
      </trkpt>
      <trkpt lat="31.14618" lon="-7.98814">
        <ele>1577.49</ele>
        <time>2018-06-17T15:05:09Z</time>
      </trkpt>
      <trkpt lat="31.14604" lon="-7.98787">
        <ele>1579.64</ele>
        <time>2018-06-17T15:06:10Z</time>
      </trkpt>
      <trkpt lat="31.14595" lon="-7.98716">
        <ele>1581.76</ele>
        <time>2018-06-17T15:07:10Z</time>
      </trkpt>
      <trkpt lat="31.14557" lon="-7.98672">
        <ele>1585.41</ele>
        <time>2018-06-17T15:08:10Z</time>
      </trkpt>
      <trkpt lat="31.14546" lon="-7.9862">
        <ele>1582.77</ele>
        <time>2018-06-17T15:09:10Z</time>
      </trkpt>
      <trkpt lat="31.14512" lon="-7.98569">
        <ele>1580.37</ele>
        <time>2018-06-17T15:10:10Z</time>
      </trkpt>
      <trkpt lat="31.14452" lon="-7.98567">
        <ele>1582.76</ele>
        <time>2018-06-17T15:11:10Z</time>
      </trkpt>
      <trkpt lat="31.14386" lon="-7.98598">
        <ele>1584.51</ele>
        <time>2018-06-17T15:12:10Z</time>
      </trkpt>
      <trkpt lat="31.14329" lon="-7.98577">
        <ele>1581.32</ele>
        <time>2018-06-17T15:13:10Z</time>
      </trkpt>
      <trkpt lat="31.14256" lon="-7.98529">
        <ele>1574.4</ele>
        <time>2018-06-17T15:14:10Z</time>
      </trkpt>
      <trkpt lat="31.14229" lon="-7.98519">
        <ele>1572.83</ele>
        <time>2018-06-17T15:15:10Z</time>
      </trkpt>
      <trkpt lat="31.14208" lon="-7.98517">
        <ele>1573.58</ele>
        <time>2018-06-17T15:16:10Z</time>
      </trkpt>
      <trkpt lat="31.14151" lon="-7.98465">
        <ele>1575.38</ele>
        <time>2018-06-17T15:17:10Z</time>
      </trkpt>
      <trkpt lat="31.14117" lon="-7.98401">
        <ele>1576.55</ele>
        <time>2018-06-17T15:18:12Z</time>
      </trkpt>
      <trkpt lat="31.14073" lon="-7.98435">
        <ele>1574.37</ele>
        <time>2018-06-17T15:19:12Z</time>
      </trkpt>
      <trkpt lat="31.14048" lon="-7.9845">
        <ele>1574.85</ele>
        <time>2018-06-17T15:20:12Z</time>
      </trkpt>
      <trkpt lat="31.14031" lon="-7.98452">
        <ele>1575.59</ele>
        <time>2018-06-17T15:21:12Z</time>
      </trkpt>
      <trkpt lat="31.14031" lon="-7.98459">
        <ele>1575.6</ele>
        <time>2018-06-17T15:22:12Z</time>
      </trkpt>
      <trkpt lat="31.14028" lon="-7.98455">
        <ele>1576.17</ele>
        <time>2018-06-17T15:23:13Z</time>
      </trkpt>
      <trkpt lat="31.14029" lon="-7.98458">
        <ele>1576.33</ele>
        <time>2018-06-17T15:24:13Z</time>
      </trkpt>
      <trkpt lat="31.14026" lon="-7.98456">
        <ele>1576.46</ele>
        <time>2018-06-17T15:25:13Z</time>
      </trkpt>
      <trkpt lat="31.14027" lon="-7.98457">
        <ele>1575.92</ele>
        <time>2018-06-17T15:26:14Z</time>
      </trkpt>
      <trkpt lat="31.14028" lon="-7.98458">
        <ele>1575.95</ele>
        <time>2018-06-17T15:27:14Z</time>
      </trkpt>
      <trkpt lat="31.14028" lon="-7.98458">
        <ele>1575.96</ele>
        <time>2018-06-17T15:28:15Z</time>
      </trkpt>
      <trkpt lat="31.13997" lon="-7.98476">
        <ele>1578.02</ele>
        <time>2018-06-17T15:29:15Z</time>
      </trkpt>
      <trkpt lat="31.13947" lon="-7.98492">
        <ele>1581.55</ele>
        <time>2018-06-17T15:30:15Z</time>
      </trkpt>
      <trkpt lat="31.13944" lon="-7.98426">
        <ele>1576.45</ele>
        <time>2018-06-17T15:31:15Z</time>
      </trkpt>
      <trkpt lat="31.1392" lon="-7.98413">
        <ele>1575.44</ele>
        <time>2018-06-17T15:32:15Z</time>
      </trkpt>
      <trkpt lat="31.1392" lon="-7.98413">
        <ele>1575.82</ele>
        <time>2018-06-17T15:33:15Z</time>
      </trkpt>
      <trkpt lat="31.13922" lon="-7.98415">
        <ele>1576.03</ele>
        <time>2018-06-17T15:34:15Z</time>
      </trkpt>
      <trkpt lat="31.13917" lon="-7.98414">
        <ele>1575.85</ele>
        <time>2018-06-17T15:35:15Z</time>
      </trkpt>
      <trkpt lat="31.139" lon="-7.98403">
        <ele>1574.92</ele>
        <time>2018-06-17T15:36:15Z</time>
      </trkpt>
      <trkpt lat="31.139" lon="-7.98405">
        <ele>1574.08</ele>
        <time>2018-06-17T15:37:15Z</time>
      </trkpt>
      <trkpt lat="31.13899" lon="-7.98404">
        <ele>1574.57</ele>
        <time>2018-06-17T15:38:15Z</time>
      </trkpt>
      <trkpt lat="31.13897" lon="-7.98418">
        <ele>1574.26</ele>
        <time>2018-06-17T15:39:15Z</time>
      </trkpt>
      <trkpt lat="31.13897" lon="-7.98401">
        <ele>1573.89</ele>
        <time>2018-06-17T15:40:15Z</time>
      </trkpt>
      <trkpt lat="31.13898" lon="-7.98405">
        <ele>1573.82</ele>
        <time>2018-06-17T15:41:15Z</time>
      </trkpt>
      <trkpt lat="31.13885" lon="-7.98398">
        <ele>1573.92</ele>
        <time>2018-06-17T15:42:15Z</time>
      </trkpt>
      <trkpt lat="31.13845" lon="-7.98397">
        <ele>1576.44</ele>
        <time>2018-06-17T15:43:15Z</time>
      </trkpt>
      <trkpt lat="31.13805" lon="-7.98383">
        <ele>1577.41</ele>
        <time>2018-06-17T15:44:15Z</time>
      </trkpt>
      <trkpt lat="31.13767" lon="-7.98346">
        <ele>1580.13</ele>
        <time>2018-06-17T15:45:15Z</time>
      </trkpt>
      <trkpt lat="31.13713" lon="-7.98312">
        <ele>1583.05</ele>
        <time>2018-06-17T15:46:15Z</time>
      </trkpt>
      <trkpt lat="31.13703" lon="-7.98308">
        <ele>1583.4</ele>
        <time>2018-06-17T15:47:15Z</time>
      </trkpt>
      <trkpt lat="31.13712" lon="-7.98308">
        <ele>1582.97</ele>
        <time>2018-06-17T15:48:15Z</time>
      </trkpt>
      <trkpt lat="31.13693" lon="-7.98287">
        <ele>1583.85</ele>
        <time>2018-06-17T15:49:15Z</time>
      </trkpt>
      <trkpt lat="31.13681" lon="-7.98266">
        <ele>1585.3</ele>
        <time>2018-06-17T15:50:15Z</time>
      </trkpt>
      <trkpt lat="31.13671" lon="-7.98247">
        <ele>1585.84</ele>
        <time>2018-06-17T15:51:15Z</time>
      </trkpt>
      <trkpt lat="31.13659" lon="-7.98235">
        <ele>1586.86</ele>
        <time>2018-06-17T15:52:15Z</time>
      </trkpt>
      <trkpt lat="31.13613" lon="-7.98206">
        <ele>1589.41</ele>
        <time>2018-06-17T15:53:15Z</time>
      </trkpt>
      <trkpt lat="31.1358" lon="-7.98167">
        <ele>1592.74</ele>
        <time>2018-06-17T15:54:15Z</time>
      </trkpt>
      <trkpt lat="31.13534" lon="-7.9815">
        <ele>1595.85</ele>
        <time>2018-06-17T15:55:15Z</time>
      </trkpt>
      <trkpt lat="31.13511" lon="-7.98146">
        <ele>1597.85</ele>
        <time>2018-06-17T15:56:15Z</time>
      </trkpt>
      <trkpt lat="31.13509" lon="-7.9814">
        <ele>1596.84</ele>
        <time>2018-06-17T15:57:15Z</time>
      </trkpt>
      <trkpt lat="31.1349" lon="-7.98116">
        <ele>1598.6</ele>
        <time>2018-06-17T15:58:15Z</time>
      </trkpt>
      <trkpt lat="31.13462" lon="-7.98087">
        <ele>1601.14</ele>
        <time>2018-06-17T15:59:15Z</time>
      </trkpt>
      <trkpt lat="31.13467" lon="-7.98078">
        <ele>1602.91</ele>
        <time>2018-06-17T16:00:16Z</time>
      </trkpt>
      <trkpt lat="31.13467" lon="-7.98068">
        <ele>1603.17</ele>
        <time>2018-06-17T16:01:16Z</time>
      </trkpt>
      <trkpt lat="31.1346" lon="-7.98056">
        <ele>1604.46</ele>
        <time>2018-06-17T16:02:16Z</time>
      </trkpt>
      <trkpt lat="31.13468" lon="-7.98046">
        <ele>1605.17</ele>
        <time>2018-06-17T16:03:16Z</time>
      </trkpt>
      <trkpt lat="31.13463" lon="-7.98049">
        <ele>1605.56</ele>
        <time>2018-06-17T16:04:16Z</time>
      </trkpt>
      <trkpt lat="31.13451" lon="-7.98064">
        <ele>1604.03</ele>
        <time>2018-06-17T16:05:16Z</time>
      </trkpt>
      <trkpt lat="31.13451" lon="-7.98063">
        <ele>1604.15</ele>
        <time>2018-06-17T16:06:16Z</time>
      </trkpt>
      <trkpt lat="31.13452" lon="-7.98065">
        <ele>1603.56</ele>
        <time>2018-06-17T16:07:16Z</time>
      </trkpt>
      <trkpt lat="31.13454" lon="-7.98064">
        <ele>1603.43</ele>
        <time>2018-06-17T16:08:16Z</time>
      </trkpt>
      <trkpt lat="31.13453" lon="-7.98065">
        <ele>1602.93</ele>
        <time>2018-06-17T16:09:16Z</time>
      </trkpt>
      <trkpt lat="31.13451" lon="-7.98065">
        <ele>1603.28</ele>
        <time>2018-06-17T16:10:16Z</time>
      </trkpt>
      <trkpt lat="31.13453" lon="-7.98057">
        <ele>1603.88</ele>
        <time>2018-06-17T16:11:16Z</time>
      </trkpt>
      <trkpt lat="31.13469" lon="-7.98017">
        <ele>1609.86</ele>
        <time>2018-06-17T16:12:16Z</time>
      </trkpt>
      <trkpt lat="31.13468" lon="-7.97986">
        <ele>1613.94</ele>
        <time>2018-06-17T16:13:16Z</time>
      </trkpt>
      <trkpt lat="31.13465" lon="-7.97949">
        <ele>1622.01</ele>
        <time>2018-06-17T16:14:16Z</time>
      </trkpt>
      <trkpt lat="31.13458" lon="-7.97973">
        <ele>1628.26</ele>
        <time>2018-06-17T16:15:16Z</time>
      </trkpt>
      <trkpt lat="31.13432" lon="-7.97985">
        <ele>1635.89</ele>
        <time>2018-06-17T16:16:16Z</time>
      </trkpt>
      <trkpt lat="31.13403" lon="-7.97966">
        <ele>1643.83</ele>
        <time>2018-06-17T16:17:16Z</time>
      </trkpt>
      <trkpt lat="31.13389" lon="-7.97949">
        <ele>1651.77</ele>
        <time>2018-06-17T16:18:16Z</time>
      </trkpt>
      <trkpt lat="31.13355" lon="-7.97943">
        <ele>1660.33</ele>
        <time>2018-06-17T16:19:16Z</time>
      </trkpt>
      <trkpt lat="31.13377" lon="-7.97933">
        <ele>1667.79</ele>
        <time>2018-06-17T16:20:16Z</time>
      </trkpt>
      <trkpt lat="31.13393" lon="-7.97913">
        <ele>1676.05</ele>
        <time>2018-06-17T16:21:18Z</time>
      </trkpt>
      <trkpt lat="31.13383" lon="-7.97896">
        <ele>1684.45</ele>
        <time>2018-06-17T16:22:18Z</time>
      </trkpt>
      <trkpt lat="31.13393" lon="-7.97852">
        <ele>1687.13</ele>
        <time>2018-06-17T16:23:18Z</time>
      </trkpt>
      <trkpt lat="31.1339" lon="-7.97821">
        <ele>1692.63</ele>
        <time>2018-06-17T16:24:18Z</time>
      </trkpt>
      <trkpt lat="31.13392" lon="-7.97799">
        <ele>1700.38</ele>
        <time>2018-06-17T16:25:18Z</time>
      </trkpt>
      <trkpt lat="31.13396" lon="-7.9777">
        <ele>1702.53</ele>
        <time>2018-06-17T16:26:18Z</time>
      </trkpt>
      <trkpt lat="31.13389" lon="-7.97759">
        <ele>1707.98</ele>
        <time>2018-06-17T16:27:18Z</time>
      </trkpt>
      <trkpt lat="31.13396" lon="-7.97756">
        <ele>1709.01</ele>
        <time>2018-06-17T16:28:19Z</time>
      </trkpt>
      <trkpt lat="31.13396" lon="-7.97755">
        <ele>1708.59</ele>
        <time>2018-06-17T16:29:19Z</time>
      </trkpt>
      <trkpt lat="31.13396" lon="-7.97763">
        <ele>1707.92</ele>
        <time>2018-06-17T16:30:19Z</time>
      </trkpt>
      <trkpt lat="31.13398" lon="-7.97731">
        <ele>1713.18</ele>
        <time>2018-06-17T16:31:19Z</time>
      </trkpt>
      <trkpt lat="31.13384" lon="-7.97672">
        <ele>1713.95</ele>
        <time>2018-06-17T16:32:19Z</time>
      </trkpt>
      <trkpt lat="31.1335" lon="-7.97621">
        <ele>1715.35</ele>
        <time>2018-06-17T16:33:19Z</time>
      </trkpt>
      <trkpt lat="31.13312" lon="-7.97615">
        <ele>1714.32</ele>
        <time>2018-06-17T16:34:19Z</time>
      </trkpt>
      <trkpt lat="31.13293" lon="-7.97622">
        <ele>1715.78</ele>
        <time>2018-06-17T16:35:19Z</time>
      </trkpt>
      <trkpt lat="31.13273" lon="-7.97615">
        <ele>1717.88</ele>
        <time>2018-06-17T16:36:19Z</time>
      </trkpt>
      <trkpt lat="31.13272" lon="-7.97589">
        <ele>1716.63</ele>
        <time>2018-06-17T16:37:19Z</time>
      </trkpt>
      <trkpt lat="31.13278" lon="-7.97573">
        <ele>1717.98</ele>
        <time>2018-06-17T16:38:19Z</time>
      </trkpt>
      <trkpt lat="31.13277" lon="-7.97571">
        <ele>1716.95</ele>
        <time>2018-06-17T16:39:19Z</time>
      </trkpt>
      <trkpt lat="31.1325" lon="-7.97572">
        <ele>1722.31</ele>
        <time>2018-06-17T16:40:19Z</time>
      </trkpt>
      <trkpt lat="31.13231" lon="-7.97546">
        <ele>1731.37</ele>
        <time>2018-06-17T16:41:19Z</time>
      </trkpt>
      <trkpt lat="31.13208" lon="-7.97539">
        <ele>1734.96</ele>
        <time>2018-06-17T16:42:21Z</time>
      </trkpt>
      <trkpt lat="31.13187" lon="-7.97558">
        <ele>1742.67</ele>
        <time>2018-06-17T16:43:21Z</time>
      </trkpt>
      <trkpt lat="31.13187" lon="-7.97539">
        <ele>1748.45</ele>
        <time>2018-06-17T16:44:21Z</time>
      </trkpt>
      <trkpt lat="31.13188" lon="-7.97526">
        <ele>1754.74</ele>
        <time>2018-06-17T16:45:21Z</time>
      </trkpt>
      <trkpt lat="31.13195" lon="-7.97507">
        <ele>1758.29</ele>
        <time>2018-06-17T16:46:21Z</time>
      </trkpt>
      <trkpt lat="31.13203" lon="-7.97466">
        <ele>1757.35</ele>
        <time>2018-06-17T16:47:21Z</time>
      </trkpt>
      <trkpt lat="31.13255" lon="-7.9747">
        <ele>1762</ele>
        <time>2018-06-17T16:48:21Z</time>
      </trkpt>
      <trkpt lat="31.13308" lon="-7.97457">
        <ele>1758.54</ele>
        <time>2018-06-17T16:49:21Z</time>
      </trkpt>
      <trkpt lat="31.13353" lon="-7.97469">
        <ele>1760.1</ele>
        <time>2018-06-17T16:50:21Z</time>
      </trkpt>
      <trkpt lat="31.13376" lon="-7.9755">
        <ele>1761.6</ele>
        <time>2018-06-17T16:51:21Z</time>
      </trkpt>
      <trkpt lat="31.13418" lon="-7.97568">
        <ele>1762.26</ele>
        <time>2018-06-17T16:52:21Z</time>
      </trkpt>
      <trkpt lat="31.13424" lon="-7.97576">
        <ele>1763.76</ele>
        <time>2018-06-17T16:53:21Z</time>
      </trkpt>
      <trkpt lat="31.13427" lon="-7.97576">
        <ele>1763.34</ele>
        <time>2018-06-17T16:54:21Z</time>
      </trkpt>
      <trkpt lat="31.13449" lon="-7.97598">
        <ele>1767.26</ele>
        <time>2018-06-17T16:55:21Z</time>
      </trkpt>
      <trkpt lat="31.13475" lon="-7.97626">
        <ele>1770.34</ele>
        <time>2018-06-17T16:56:21Z</time>
      </trkpt>
      <trkpt lat="31.13478" lon="-7.9763">
        <ele>1770.33</ele>
        <time>2018-06-17T16:57:21Z</time>
      </trkpt>
      <trkpt lat="31.13497" lon="-7.9762">
        <ele>1767.46</ele>
        <time>2018-06-17T16:58:21Z</time>
      </trkpt>
      <trkpt lat="31.13532" lon="-7.97581">
        <ele>1765.77</ele>
        <time>2018-06-17T16:59:21Z</time>
      </trkpt>
      <trkpt lat="31.13542" lon="-7.97564">
        <ele>1767.62</ele>
        <time>2018-06-17T17:00:21Z</time>
      </trkpt>
      <trkpt lat="31.13538" lon="-7.97565">
        <ele>1767.89</ele>
        <time>2018-06-17T17:01:21Z</time>
      </trkpt>
      <trkpt lat="31.13536" lon="-7.97571">
        <ele>1767.62</ele>
        <time>2018-06-17T17:02:21Z</time>
      </trkpt>
      <trkpt lat="31.13535" lon="-7.97568">
        <ele>1768.15</ele>
        <time>2018-06-17T17:03:21Z</time>
      </trkpt>
      <trkpt lat="31.1358" lon="-7.97612">
        <ele>1768.44</ele>
        <time>2018-06-17T17:05:10Z</time>
      </trkpt>
      <trkpt lat="31.13533" lon="-7.97572">
        <ele>1771.41</ele>
        <time>2018-06-17T17:06:10Z</time>
      </trkpt>
      <trkpt lat="31.13531" lon="-7.97571">
        <ele>1772.04</ele>
        <time>2018-06-17T17:07:10Z</time>
      </trkpt>
      <trkpt lat="31.13529" lon="-7.97579">
        <ele>1771.38</ele>
        <time>2018-06-17T17:08:10Z</time>
      </trkpt>
      <trkpt lat="31.13523" lon="-7.97582">
        <ele>1771.06</ele>
        <time>2018-06-17T17:09:10Z</time>
      </trkpt>
      <trkpt lat="31.13527" lon="-7.97582">
        <ele>1770.09</ele>
        <time>2018-06-17T17:09:41Z</time>
      </trkpt>
    </trkseg>
  </trk>
  <trk>
    <name><![CDATA[2018-06-18 13:57:21]]></name>
    <trkseg>
      <trkpt lat="31.13548" lon="-7.9756">
        <ele>1796.14</ele>
        <time>2018-06-18T07:35:14Z</time>
      </trkpt>
      <trkpt lat="31.13507" lon="-7.97611">
        <ele>1797.08</ele>
        <time>2018-06-18T07:36:14Z</time>
      </trkpt>
      <trkpt lat="31.13466" lon="-7.97617">
        <ele>1802.36</ele>
        <time>2018-06-18T07:37:14Z</time>
      </trkpt>
      <trkpt lat="31.13431" lon="-7.97571">
        <ele>1796.01</ele>
        <time>2018-06-18T07:38:14Z</time>
      </trkpt>
      <trkpt lat="31.13364" lon="-7.97537">
        <ele>1792.86</ele>
        <time>2018-06-18T07:39:14Z</time>
      </trkpt>
      <trkpt lat="31.13344" lon="-7.97454">
        <ele>1790.46</ele>
        <time>2018-06-18T07:40:14Z</time>
      </trkpt>
      <trkpt lat="31.13299" lon="-7.97467">
        <ele>1792.13</ele>
        <time>2018-06-18T07:41:14Z</time>
      </trkpt>
      <trkpt lat="31.13242" lon="-7.97461">
        <ele>1794.04</ele>
        <time>2018-06-18T07:42:14Z</time>
      </trkpt>
      <trkpt lat="31.13199" lon="-7.97485">
        <ele>1791.01</ele>
        <time>2018-06-18T07:43:14Z</time>
      </trkpt>
      <trkpt lat="31.13148" lon="-7.97529">
        <ele>1787.52</ele>
        <time>2018-06-18T07:44:14Z</time>
      </trkpt>
      <trkpt lat="31.13098" lon="-7.97496">
        <ele>1779.56</ele>
        <time>2018-06-18T07:45:14Z</time>
      </trkpt>
      <trkpt lat="31.13046" lon="-7.97453">
        <ele>1770.44</ele>
        <time>2018-06-18T07:46:14Z</time>
      </trkpt>
      <trkpt lat="31.13005" lon="-7.97395">
        <ele>1761.55</ele>
        <time>2018-06-18T07:47:14Z</time>
      </trkpt>
      <trkpt lat="31.12953" lon="-7.97348">
        <ele>1753.82</ele>
        <time>2018-06-18T07:48:14Z</time>
      </trkpt>
      <trkpt lat="31.12923" lon="-7.97309">
        <ele>1752.1</ele>
        <time>2018-06-18T07:49:14Z</time>
      </trkpt>
      <trkpt lat="31.12883" lon="-7.97238">
        <ele>1754.47</ele>
        <time>2018-06-18T07:50:14Z</time>
      </trkpt>
      <trkpt lat="31.12857" lon="-7.97158">
        <ele>1753.75</ele>
        <time>2018-06-18T07:51:14Z</time>
      </trkpt>
      <trkpt lat="31.12809" lon="-7.97148">
        <ele>1756.38</ele>
        <time>2018-06-18T07:52:14Z</time>
      </trkpt>
      <trkpt lat="31.12768" lon="-7.97152">
        <ele>1759.37</ele>
        <time>2018-06-18T07:53:14Z</time>
      </trkpt>
      <trkpt lat="31.12706" lon="-7.97151">
        <ele>1757.78</ele>
        <time>2018-06-18T07:54:14Z</time>
      </trkpt>
      <trkpt lat="31.12642" lon="-7.97182">
        <ele>1762.47</ele>
        <time>2018-06-18T07:55:14Z</time>
      </trkpt>
      <trkpt lat="31.1259" lon="-7.97242">
        <ele>1768.84</ele>
        <time>2018-06-18T07:56:14Z</time>
      </trkpt>
      <trkpt lat="31.12537" lon="-7.97285">
        <ele>1767.62</ele>
        <time>2018-06-18T07:57:14Z</time>
      </trkpt>
      <trkpt lat="31.12477" lon="-7.973">
        <ele>1759.27</ele>
        <time>2018-06-18T07:58:14Z</time>
      </trkpt>
      <trkpt lat="31.12404" lon="-7.97292">
        <ele>1757.5</ele>
        <time>2018-06-18T07:59:14Z</time>
      </trkpt>
      <trkpt lat="31.12337" lon="-7.97274">
        <ele>1753.64</ele>
        <time>2018-06-18T08:00:14Z</time>
      </trkpt>
      <trkpt lat="31.12269" lon="-7.97321">
        <ele>1753.45</ele>
        <time>2018-06-18T08:01:14Z</time>
      </trkpt>
      <trkpt lat="31.12213" lon="-7.97343">
        <ele>1753.88</ele>
        <time>2018-06-18T08:02:14Z</time>
      </trkpt>
      <trkpt lat="31.12177" lon="-7.97315">
        <ele>1762.02</ele>
        <time>2018-06-18T08:03:14Z</time>
      </trkpt>
      <trkpt lat="31.12131" lon="-7.97303">
        <ele>1768.85</ele>
        <time>2018-06-18T08:04:14Z</time>
      </trkpt>
      <trkpt lat="31.12128" lon="-7.97321">
        <ele>1775.81</ele>
        <time>2018-06-18T08:05:14Z</time>
      </trkpt>
      <trkpt lat="31.12118" lon="-7.9738">
        <ele>1784.26</ele>
        <time>2018-06-18T08:06:14Z</time>
      </trkpt>
      <trkpt lat="31.1207" lon="-7.97414">
        <ele>1793.69</ele>
        <time>2018-06-18T08:07:14Z</time>
      </trkpt>
      <trkpt lat="31.12075" lon="-7.97387">
        <ele>1802.31</ele>
        <time>2018-06-18T08:08:14Z</time>
      </trkpt>
      <trkpt lat="31.12029" lon="-7.97423">
        <ele>1810.04</ele>
        <time>2018-06-18T08:09:14Z</time>
      </trkpt>
      <trkpt lat="31.11967" lon="-7.97466">
        <ele>1818.73</ele>
        <time>2018-06-18T08:10:14Z</time>
      </trkpt>
      <trkpt lat="31.11902" lon="-7.97462">
        <ele>1822.68</ele>
        <time>2018-06-18T08:11:14Z</time>
      </trkpt>
      <trkpt lat="31.1184" lon="-7.9745">
        <ele>1825.21</ele>
        <time>2018-06-18T08:12:14Z</time>
      </trkpt>
      <trkpt lat="31.11807" lon="-7.97446">
        <ele>1828.76</ele>
        <time>2018-06-18T08:13:14Z</time>
      </trkpt>
      <trkpt lat="31.11805" lon="-7.97445">
        <ele>1829</ele>
        <time>2018-06-18T08:14:14Z</time>
      </trkpt>
      <trkpt lat="31.11806" lon="-7.97448">
        <ele>1828.68</ele>
        <time>2018-06-18T08:15:14Z</time>
      </trkpt>
      <trkpt lat="31.11804" lon="-7.97446">
        <ele>1828.83</ele>
        <time>2018-06-18T08:16:14Z</time>
      </trkpt>
      <trkpt lat="31.118" lon="-7.97422">
        <ele>1837.34</ele>
        <time>2018-06-18T08:17:14Z</time>
      </trkpt>
      <trkpt lat="31.1183" lon="-7.97414">
        <ele>1846.23</ele>
        <time>2018-06-18T08:18:14Z</time>
      </trkpt>
      <trkpt lat="31.11836" lon="-7.97397">
        <ele>1854.13</ele>
        <time>2018-06-18T08:19:14Z</time>
      </trkpt>
      <trkpt lat="31.1183" lon="-7.97383">
        <ele>1861.47</ele>
        <time>2018-06-18T08:20:14Z</time>
      </trkpt>
      <trkpt lat="31.11845" lon="-7.97372">
        <ele>1869.46</ele>
        <time>2018-06-18T08:21:15Z</time>
      </trkpt>
      <trkpt lat="31.11836" lon="-7.97353">
        <ele>1877.64</ele>
        <time>2018-06-18T08:22:15Z</time>
      </trkpt>
      <trkpt lat="31.118" lon="-7.97339">
        <ele>1882.99</ele>
        <time>2018-06-18T08:23:15Z</time>
      </trkpt>
      <trkpt lat="31.11763" lon="-7.97334">
        <ele>1885.08</ele>
        <time>2018-06-18T08:24:15Z</time>
      </trkpt>
      <trkpt lat="31.11734" lon="-7.97306">
        <ele>1891.83</ele>
        <time>2018-06-18T08:25:15Z</time>
      </trkpt>
      <trkpt lat="31.11712" lon="-7.97267">
        <ele>1897.82</ele>
        <time>2018-06-18T08:26:15Z</time>
      </trkpt>
      <trkpt lat="31.11698" lon="-7.97256">
        <ele>1902.22</ele>
        <time>2018-06-18T08:27:15Z</time>
      </trkpt>
      <trkpt lat="31.11679" lon="-7.97231">
        <ele>1911.43</ele>
        <time>2018-06-18T08:28:15Z</time>
      </trkpt>
      <trkpt lat="31.11653" lon="-7.972">
        <ele>1914.8</ele>
        <time>2018-06-18T08:29:15Z</time>
      </trkpt>
      <trkpt lat="31.11624" lon="-7.97156">
        <ele>1918.24</ele>
        <time>2018-06-18T08:30:15Z</time>
      </trkpt>
      <trkpt lat="31.11605" lon="-7.97123">
        <ele>1921.93</ele>
        <time>2018-06-18T08:31:15Z</time>
      </trkpt>
      <trkpt lat="31.11593" lon="-7.9713">
        <ele>1929.2</ele>
        <time>2018-06-18T08:32:15Z</time>
      </trkpt>
      <trkpt lat="31.11596" lon="-7.97093">
        <ele>1938.3</ele>
        <time>2018-06-18T08:33:15Z</time>
      </trkpt>
      <trkpt lat="31.11609" lon="-7.97052">
        <ele>1944.76</ele>
        <time>2018-06-18T08:34:15Z</time>
      </trkpt>
      <trkpt lat="31.1161" lon="-7.97018">
        <ele>1947.04</ele>
        <time>2018-06-18T08:35:15Z</time>
      </trkpt>
      <trkpt lat="31.1163" lon="-7.96993">
        <ele>1950.41</ele>
        <time>2018-06-18T08:36:16Z</time>
      </trkpt>
      <trkpt lat="31.11616" lon="-7.97">
        <ele>1950.53</ele>
        <time>2018-06-18T08:37:16Z</time>
      </trkpt>
      <trkpt lat="31.11605" lon="-7.96992">
        <ele>1957.21</ele>
        <time>2018-06-18T08:38:16Z</time>
      </trkpt>
      <trkpt lat="31.11626" lon="-7.96971">
        <ele>1964.19</ele>
        <time>2018-06-18T08:39:16Z</time>
      </trkpt>
      <trkpt lat="31.11637" lon="-7.96935">
        <ele>1971.55</ele>
        <time>2018-06-18T08:40:16Z</time>
      </trkpt>
      <trkpt lat="31.11654" lon="-7.96898">
        <ele>1974.92</ele>
        <time>2018-06-18T08:41:16Z</time>
      </trkpt>
      <trkpt lat="31.11655" lon="-7.96897">
        <ele>1975.39</ele>
        <time>2018-06-18T08:42:16Z</time>
      </trkpt>
      <trkpt lat="31.11655" lon="-7.96903">
        <ele>1975.26</ele>
        <time>2018-06-18T08:43:17Z</time>
      </trkpt>
      <trkpt lat="31.11655" lon="-7.96899">
        <ele>1974.9</ele>
        <time>2018-06-18T08:44:17Z</time>
      </trkpt>
      <trkpt lat="31.11662" lon="-7.96899">
        <ele>1974.86</ele>
        <time>2018-06-18T08:45:18Z</time>
      </trkpt>
      <trkpt lat="31.11653" lon="-7.96902">
        <ele>1974.57</ele>
        <time>2018-06-18T08:46:18Z</time>
      </trkpt>
      <trkpt lat="31.11649" lon="-7.96897">
        <ele>1974.51</ele>
        <time>2018-06-18T08:47:18Z</time>
      </trkpt>
      <trkpt lat="31.1165" lon="-7.96902">
        <ele>1974.5</ele>
        <time>2018-06-18T08:48:18Z</time>
      </trkpt>
      <trkpt lat="31.1165" lon="-7.96898">
        <ele>1974.7</ele>
        <time>2018-06-18T08:49:18Z</time>
      </trkpt>
      <trkpt lat="31.11656" lon="-7.96895">
        <ele>1974.83</ele>
        <time>2018-06-18T08:50:18Z</time>
      </trkpt>
      <trkpt lat="31.11653" lon="-7.96894">
        <ele>1974.71</ele>
        <time>2018-06-18T08:51:19Z</time>
      </trkpt>
      <trkpt lat="31.11653" lon="-7.96894">
        <ele>1974.7</ele>
        <time>2018-06-18T08:52:20Z</time>
      </trkpt>
      <trkpt lat="31.11666" lon="-7.96881">
        <ele>1980.96</ele>
        <time>2018-06-18T08:53:20Z</time>
      </trkpt>
      <trkpt lat="31.11677" lon="-7.96862">
        <ele>1988.55</ele>
        <time>2018-06-18T08:54:20Z</time>
      </trkpt>
      <trkpt lat="31.11702" lon="-7.96857">
        <ele>1997.63</ele>
        <time>2018-06-18T08:55:20Z</time>
      </trkpt>
      <trkpt lat="31.11715" lon="-7.96823">
        <ele>2006.12</ele>
        <time>2018-06-18T08:56:20Z</time>
      </trkpt>
      <trkpt lat="31.11726" lon="-7.96799">
        <ele>2014.38</ele>
        <time>2018-06-18T08:57:20Z</time>
      </trkpt>
      <trkpt lat="31.11725" lon="-7.96768">
        <ele>2021.97</ele>
        <time>2018-06-18T08:58:20Z</time>
      </trkpt>
      <trkpt lat="31.1169" lon="-7.96767">
        <ele>2028.99</ele>
        <time>2018-06-18T08:59:20Z</time>
      </trkpt>
      <trkpt lat="31.11666" lon="-7.9676">
        <ele>2038.24</ele>
        <time>2018-06-18T09:00:20Z</time>
      </trkpt>
      <trkpt lat="31.1167" lon="-7.96741">
        <ele>2044.5</ele>
        <time>2018-06-18T09:01:20Z</time>
      </trkpt>
      <trkpt lat="31.11662" lon="-7.96731">
        <ele>2050.74</ele>
        <time>2018-06-18T09:02:20Z</time>
      </trkpt>
      <trkpt lat="31.11654" lon="-7.96733">
        <ele>2051.49</ele>
        <time>2018-06-18T09:03:20Z</time>
      </trkpt>
      <trkpt lat="31.11643" lon="-7.96717">
        <ele>2057.47</ele>
        <time>2018-06-18T09:04:20Z</time>
      </trkpt>
      <trkpt lat="31.11643" lon="-7.96693">
        <ele>2067.69</ele>
        <time>2018-06-18T09:05:20Z</time>
      </trkpt>
      <trkpt lat="31.11625" lon="-7.96681">
        <ele>2078.44</ele>
        <time>2018-06-18T09:06:20Z</time>
      </trkpt>
      <trkpt lat="31.1161" lon="-7.96658">
        <ele>2088.15</ele>
        <time>2018-06-18T09:07:20Z</time>
      </trkpt>
      <trkpt lat="31.11598" lon="-7.96639">
        <ele>2095.54</ele>
        <time>2018-06-18T09:08:20Z</time>
      </trkpt>
      <trkpt lat="31.11591" lon="-7.96622">
        <ele>2104.23</ele>
        <time>2018-06-18T09:09:21Z</time>
      </trkpt>
      <trkpt lat="31.11571" lon="-7.96616">
        <ele>2112.09</ele>
        <time>2018-06-18T09:10:21Z</time>
      </trkpt>
      <trkpt lat="31.11553" lon="-7.96609">
        <ele>2120.26</ele>
        <time>2018-06-18T09:11:21Z</time>
      </trkpt>
      <trkpt lat="31.11522" lon="-7.96621">
        <ele>2126.98</ele>
        <time>2018-06-18T09:12:21Z</time>
      </trkpt>
      <trkpt lat="31.11479" lon="-7.96622">
        <ele>2132.76</ele>
        <time>2018-06-18T09:13:21Z</time>
      </trkpt>
      <trkpt lat="31.11476" lon="-7.96611">
        <ele>2140</ele>
        <time>2018-06-18T09:14:21Z</time>
      </trkpt>
      <trkpt lat="31.1149" lon="-7.96573">
        <ele>2147.99</ele>
        <time>2018-06-18T09:15:21Z</time>
      </trkpt>
      <trkpt lat="31.11515" lon="-7.9654">
        <ele>2153.54</ele>
        <time>2018-06-18T09:16:21Z</time>
      </trkpt>
      <trkpt lat="31.11537" lon="-7.96503">
        <ele>2157.45</ele>
        <time>2018-06-18T09:17:21Z</time>
      </trkpt>
      <trkpt lat="31.11537" lon="-7.96459">
        <ele>2162.05</ele>
        <time>2018-06-18T09:18:21Z</time>
      </trkpt>
      <trkpt lat="31.11527" lon="-7.96438">
        <ele>2167.33</ele>
        <time>2018-06-18T09:19:21Z</time>
      </trkpt>
      <trkpt lat="31.11521" lon="-7.96436">
        <ele>2168.05</ele>
        <time>2018-06-18T09:20:21Z</time>
      </trkpt>
      <trkpt lat="31.11527" lon="-7.96434">
        <ele>2166.21</ele>
        <time>2018-06-18T09:21:21Z</time>
      </trkpt>
      <trkpt lat="31.11536" lon="-7.96433">
        <ele>2164.96</ele>
        <time>2018-06-18T09:22:21Z</time>
      </trkpt>
      <trkpt lat="31.11537" lon="-7.96431">
        <ele>2165.62</ele>
        <time>2018-06-18T09:23:21Z</time>
      </trkpt>
      <trkpt lat="31.11537" lon="-7.96431">
        <ele>2164.76</ele>
        <time>2018-06-18T09:24:21Z</time>
      </trkpt>
      <trkpt lat="31.11538" lon="-7.96433">
        <ele>2164.8</ele>
        <time>2018-06-18T09:25:21Z</time>
      </trkpt>
      <trkpt lat="31.11538" lon="-7.9643">
        <ele>2164.26</ele>
        <time>2018-06-18T09:26:21Z</time>
      </trkpt>
      <trkpt lat="31.1154" lon="-7.9643">
        <ele>2163.8</ele>
        <time>2018-06-18T09:27:21Z</time>
      </trkpt>
      <trkpt lat="31.11539" lon="-7.96426">
        <ele>2163.38</ele>
        <time>2018-06-18T09:28:21Z</time>
      </trkpt>
      <trkpt lat="31.11536" lon="-7.96434">
        <ele>2163.38</ele>
        <time>2018-06-18T09:29:22Z</time>
      </trkpt>
      <trkpt lat="31.11536" lon="-7.96438">
        <ele>2163.65</ele>
        <time>2018-06-18T09:30:22Z</time>
      </trkpt>
      <trkpt lat="31.11537" lon="-7.96434">
        <ele>2163.85</ele>
        <time>2018-06-18T09:31:22Z</time>
      </trkpt>
      <trkpt lat="31.11541" lon="-7.96434">
        <ele>2164.31</ele>
        <time>2018-06-18T09:32:28Z</time>
      </trkpt>
      <trkpt lat="31.11536" lon="-7.96438">
        <ele>2163.36</ele>
        <time>2018-06-18T09:33:28Z</time>
      </trkpt>
      <trkpt lat="31.11537" lon="-7.96433">
        <ele>2163.12</ele>
        <time>2018-06-18T09:34:28Z</time>
      </trkpt>
      <trkpt lat="31.11533" lon="-7.96428">
        <ele>2163.39</ele>
        <time>2018-06-18T09:35:28Z</time>
      </trkpt>
      <trkpt lat="31.11537" lon="-7.96435">
        <ele>2163.26</ele>
        <time>2018-06-18T09:36:28Z</time>
      </trkpt>
      <trkpt lat="31.11533" lon="-7.96428">
        <ele>2163.66</ele>
        <time>2018-06-18T09:37:28Z</time>
      </trkpt>
      <trkpt lat="31.11531" lon="-7.9642">
        <ele>2165.2</ele>
        <time>2018-06-18T09:38:28Z</time>
      </trkpt>
      <trkpt lat="31.11518" lon="-7.96399">
        <ele>2172.01</ele>
        <time>2018-06-18T09:39:28Z</time>
      </trkpt>
      <trkpt lat="31.1152" lon="-7.96376">
        <ele>2179.83</ele>
        <time>2018-06-18T09:40:28Z</time>
      </trkpt>
      <trkpt lat="31.115" lon="-7.96371">
        <ele>2187.38</ele>
        <time>2018-06-18T09:41:28Z</time>
      </trkpt>
      <trkpt lat="31.11489" lon="-7.96353">
        <ele>2194.05</ele>
        <time>2018-06-18T09:42:28Z</time>
      </trkpt>
      <trkpt lat="31.11482" lon="-7.96333">
        <ele>2200.7</ele>
        <time>2018-06-18T09:43:28Z</time>
      </trkpt>
      <trkpt lat="31.11454" lon="-7.96325">
        <ele>2208.23</ele>
        <time>2018-06-18T09:44:28Z</time>
      </trkpt>
      <trkpt lat="31.11418" lon="-7.9633">
        <ele>2214.69</ele>
        <time>2018-06-18T09:45:28Z</time>
      </trkpt>
      <trkpt lat="31.11397" lon="-7.96304">
        <ele>2221.44</ele>
        <time>2018-06-18T09:46:28Z</time>
      </trkpt>
      <trkpt lat="31.11398" lon="-7.96273">
        <ele>2228.69</ele>
        <time>2018-06-18T09:47:28Z</time>
      </trkpt>
      <trkpt lat="31.11394" lon="-7.96247">
        <ele>2235.43</ele>
        <time>2018-06-18T09:48:28Z</time>
      </trkpt>
      <trkpt lat="31.11383" lon="-7.96224">
        <ele>2242.85</ele>
        <time>2018-06-18T09:49:28Z</time>
      </trkpt>
      <trkpt lat="31.11372" lon="-7.96201">
        <ele>2249.29</ele>
        <time>2018-06-18T09:50:28Z</time>
      </trkpt>
      <trkpt lat="31.11385" lon="-7.96169">
        <ele>2256.11</ele>
        <time>2018-06-18T09:51:28Z</time>
      </trkpt>
      <trkpt lat="31.1138" lon="-7.96162">
        <ele>2256.6</ele>
        <time>2018-06-18T09:52:28Z</time>
      </trkpt>
      <trkpt lat="31.11371" lon="-7.96159">
        <ele>2259.37</ele>
        <time>2018-06-18T09:53:28Z</time>
      </trkpt>
      <trkpt lat="31.11363" lon="-7.9615">
        <ele>2262.05</ele>
        <time>2018-06-18T09:54:28Z</time>
      </trkpt>
      <trkpt lat="31.11352" lon="-7.96146">
        <ele>2262.95</ele>
        <time>2018-06-18T09:55:30Z</time>
      </trkpt>
      <trkpt lat="31.11376" lon="-7.96126">
        <ele>2267.25</ele>
        <time>2018-06-18T09:56:30Z</time>
      </trkpt>
      <trkpt lat="31.11396" lon="-7.96096">
        <ele>2273.35</ele>
        <time>2018-06-18T09:57:30Z</time>
      </trkpt>
      <trkpt lat="31.1142" lon="-7.96067">
        <ele>2280.45</ele>
        <time>2018-06-18T09:58:30Z</time>
      </trkpt>
      <trkpt lat="31.1139" lon="-7.96049">
        <ele>2287.78</ele>
        <time>2018-06-18T09:59:30Z</time>
      </trkpt>
      <trkpt lat="31.11402" lon="-7.96015">
        <ele>2296.08</ele>
        <time>2018-06-18T10:00:30Z</time>
      </trkpt>
      <trkpt lat="31.11418" lon="-7.95976">
        <ele>2303.22</ele>
        <time>2018-06-18T10:01:30Z</time>
      </trkpt>
      <trkpt lat="31.11439" lon="-7.95935">
        <ele>2310.07</ele>
        <time>2018-06-18T10:02:30Z</time>
      </trkpt>
      <trkpt lat="31.11454" lon="-7.95891">
        <ele>2318.17</ele>
        <time>2018-06-18T10:03:30Z</time>
      </trkpt>
      <trkpt lat="31.11468" lon="-7.95864">
        <ele>2323.56</ele>
        <time>2018-06-18T10:04:30Z</time>
      </trkpt>
      <trkpt lat="31.1149" lon="-7.95815">
        <ele>2331.28</ele>
        <time>2018-06-18T10:05:30Z</time>
      </trkpt>
      <trkpt lat="31.11519" lon="-7.95769">
        <ele>2336.41</ele>
        <time>2018-06-18T10:06:30Z</time>
      </trkpt>
      <trkpt lat="31.11536" lon="-7.95722">
        <ele>2342.16</ele>
        <time>2018-06-18T10:07:30Z</time>
      </trkpt>
      <trkpt lat="31.11549" lon="-7.95683">
        <ele>2349.78</ele>
        <time>2018-06-18T10:08:30Z</time>
      </trkpt>
      <trkpt lat="31.11566" lon="-7.9564">
        <ele>2357.04</ele>
        <time>2018-06-18T10:09:30Z</time>
      </trkpt>
      <trkpt lat="31.11579" lon="-7.95593">
        <ele>2361.85</ele>
        <time>2018-06-18T10:10:30Z</time>
      </trkpt>
      <trkpt lat="31.11577" lon="-7.9554">
        <ele>2367.93</ele>
        <time>2018-06-18T10:11:30Z</time>
      </trkpt>
      <trkpt lat="31.1155" lon="-7.95516">
        <ele>2372.09</ele>
        <time>2018-06-18T10:12:30Z</time>
      </trkpt>
      <trkpt lat="31.11538" lon="-7.95472">
        <ele>2375.01</ele>
        <time>2018-06-18T10:13:30Z</time>
      </trkpt>
      <trkpt lat="31.11517" lon="-7.95441">
        <ele>2375.76</ele>
        <time>2018-06-18T10:14:30Z</time>
      </trkpt>
      <trkpt lat="31.1152" lon="-7.95382">
        <ele>2366.83</ele>
        <time>2018-06-18T10:15:30Z</time>
      </trkpt>
      <trkpt lat="31.1153" lon="-7.95364">
        <ele>2369.84</ele>
        <time>2018-06-18T10:16:30Z</time>
      </trkpt>
      <trkpt lat="31.11555" lon="-7.95363">
        <ele>2371.89</ele>
        <time>2018-06-18T10:17:30Z</time>
      </trkpt>
      <trkpt lat="31.11564" lon="-7.95364">
        <ele>2371.58</ele>
        <time>2018-06-18T10:18:34Z</time>
      </trkpt>
      <trkpt lat="31.11588" lon="-7.95345">
        <ele>2366.81</ele>
        <time>2018-06-18T10:19:34Z</time>
      </trkpt>
      <trkpt lat="31.11605" lon="-7.95313">
        <ele>2366.99</ele>
        <time>2018-06-18T10:20:34Z</time>
      </trkpt>
      <trkpt lat="31.11632" lon="-7.95315">
        <ele>2368.44</ele>
        <time>2018-06-18T10:21:34Z</time>
      </trkpt>
      <trkpt lat="31.11685" lon="-7.95315">
        <ele>2375.77</ele>
        <time>2018-06-18T10:22:34Z</time>
      </trkpt>
      <trkpt lat="31.11737" lon="-7.95312">
        <ele>2379.1</ele>
        <time>2018-06-18T10:23:34Z</time>
      </trkpt>
      <trkpt lat="31.11776" lon="-7.95289">
        <ele>2386.04</ele>
        <time>2018-06-18T10:24:34Z</time>
      </trkpt>
      <trkpt lat="31.11821" lon="-7.95258">
        <ele>2390.26</ele>
        <time>2018-06-18T10:25:34Z</time>
      </trkpt>
      <trkpt lat="31.11836" lon="-7.952">
        <ele>2392.67</ele>
        <time>2018-06-18T10:26:34Z</time>
      </trkpt>
      <trkpt lat="31.11865" lon="-7.95148">
        <ele>2391.89</ele>
        <time>2018-06-18T10:27:34Z</time>
      </trkpt>
      <trkpt lat="31.11914" lon="-7.95123">
        <ele>2392.2</ele>
        <time>2018-06-18T10:28:34Z</time>
      </trkpt>
      <trkpt lat="31.11961" lon="-7.95105">
        <ele>2393.28</ele>
        <time>2018-06-18T10:29:34Z</time>
      </trkpt>
      <trkpt lat="31.11994" lon="-7.95105">
        <ele>2400.59</ele>
        <time>2018-06-18T10:30:34Z</time>
      </trkpt>
      <trkpt lat="31.12041" lon="-7.95105">
        <ele>2405.99</ele>
        <time>2018-06-18T10:31:34Z</time>
      </trkpt>
      <trkpt lat="31.12089" lon="-7.95115">
        <ele>2409.4</ele>
        <time>2018-06-18T10:32:34Z</time>
      </trkpt>
      <trkpt lat="31.12122" lon="-7.95117">
        <ele>2414.43</ele>
        <time>2018-06-18T10:33:34Z</time>
      </trkpt>
      <trkpt lat="31.12165" lon="-7.95125">
        <ele>2418.56</ele>
        <time>2018-06-18T10:34:34Z</time>
      </trkpt>
      <trkpt lat="31.12212" lon="-7.95133">
        <ele>2424.37</ele>
        <time>2018-06-18T10:35:34Z</time>
      </trkpt>
      <trkpt lat="31.12263" lon="-7.95134">
        <ele>2428.13</ele>
        <time>2018-06-18T10:36:34Z</time>
      </trkpt>
      <trkpt lat="31.12307" lon="-7.95119">
        <ele>2431.26</ele>
        <time>2018-06-18T10:37:34Z</time>
      </trkpt>
      <trkpt lat="31.12359" lon="-7.95113">
        <ele>2431.84</ele>
        <time>2018-06-18T10:38:34Z</time>
      </trkpt>
      <trkpt lat="31.12378" lon="-7.95118">
        <ele>2432.26</ele>
        <time>2018-06-18T10:39:34Z</time>
      </trkpt>
      <trkpt lat="31.12405" lon="-7.95117">
        <ele>2432.5</ele>
        <time>2018-06-18T10:40:34Z</time>
      </trkpt>
      <trkpt lat="31.1242" lon="-7.95133">
        <ele>2432.22</ele>
        <time>2018-06-18T10:41:38Z</time>
      </trkpt>
      <trkpt lat="31.12378" lon="-7.95118">
        <ele>2431.6</ele>
        <time>2018-06-18T10:42:39Z</time>
      </trkpt>
      <trkpt lat="31.12376" lon="-7.95114">
        <ele>2431.15</ele>
        <time>2018-06-18T10:43:39Z</time>
      </trkpt>
      <trkpt lat="31.12374" lon="-7.95113">
        <ele>2431.77</ele>
        <time>2018-06-18T10:44:39Z</time>
      </trkpt>
      <trkpt lat="31.12375" lon="-7.95113">
        <ele>2432.41</ele>
        <time>2018-06-18T10:45:39Z</time>
      </trkpt>
      <trkpt lat="31.12377" lon="-7.95114">
        <ele>2431.19</ele>
        <time>2018-06-18T10:46:39Z</time>
      </trkpt>
      <trkpt lat="31.12376" lon="-7.95114">
        <ele>2430.65</ele>
        <time>2018-06-18T10:47:39Z</time>
      </trkpt>
      <trkpt lat="31.12375" lon="-7.95112">
        <ele>2430.82</ele>
        <time>2018-06-18T10:48:39Z</time>
      </trkpt>
      <trkpt lat="31.12374" lon="-7.95112">
        <ele>2430.9</ele>
        <time>2018-06-18T10:49:39Z</time>
      </trkpt>
      <trkpt lat="31.12376" lon="-7.95113">
        <ele>2430.81</ele>
        <time>2018-06-18T10:50:39Z</time>
      </trkpt>
      <trkpt lat="31.12381" lon="-7.95114">
        <ele>2431.21</ele>
        <time>2018-06-18T10:51:40Z</time>
      </trkpt>
      <trkpt lat="31.12389" lon="-7.95104">
        <ele>2427.59</ele>
        <time>2018-06-18T10:52:40Z</time>
      </trkpt>
      <trkpt lat="31.1239" lon="-7.95102">
        <ele>2427.39</ele>
        <time>2018-06-18T10:53:40Z</time>
      </trkpt>
      <trkpt lat="31.1239" lon="-7.95102">
        <ele>2427.02</ele>
        <time>2018-06-18T10:54:40Z</time>
      </trkpt>
      <trkpt lat="31.12388" lon="-7.95101">
        <ele>2428</ele>
        <time>2018-06-18T10:55:40Z</time>
      </trkpt>
      <trkpt lat="31.12374" lon="-7.9511">
        <ele>2431.72</ele>
        <time>2018-06-18T10:56:40Z</time>
      </trkpt>
      <trkpt lat="31.12373" lon="-7.95113">
        <ele>2431.2</ele>
        <time>2018-06-18T10:57:40Z</time>
      </trkpt>
      <trkpt lat="31.12374" lon="-7.95113">
        <ele>2431.46</ele>
        <time>2018-06-18T10:58:40Z</time>
      </trkpt>
      <trkpt lat="31.12373" lon="-7.95112">
        <ele>2432.16</ele>
        <time>2018-06-18T10:59:40Z</time>
      </trkpt>
      <trkpt lat="31.12375" lon="-7.95115">
        <ele>2431.99</ele>
        <time>2018-06-18T11:00:41Z</time>
      </trkpt>
      <trkpt lat="31.12374" lon="-7.95114">
        <ele>2432.27</ele>
        <time>2018-06-18T11:01:41Z</time>
      </trkpt>
      <trkpt lat="31.12372" lon="-7.95114">
        <ele>2431.9</ele>
        <time>2018-06-18T11:02:41Z</time>
      </trkpt>
      <trkpt lat="31.12385" lon="-7.95121">
        <ele>2432.34</ele>
        <time>2018-06-18T11:03:41Z</time>
      </trkpt>
      <trkpt lat="31.12385" lon="-7.95123">
        <ele>2432.2</ele>
        <time>2018-06-18T11:04:44Z</time>
      </trkpt>
      <trkpt lat="31.12386" lon="-7.95122">
        <ele>2431.49</ele>
        <time>2018-06-18T11:05:44Z</time>
      </trkpt>
      <trkpt lat="31.12385" lon="-7.95123">
        <ele>2431.79</ele>
        <time>2018-06-18T11:06:44Z</time>
      </trkpt>
      <trkpt lat="31.12376" lon="-7.95125">
        <ele>2431.9</ele>
        <time>2018-06-18T11:07:44Z</time>
      </trkpt>
      <trkpt lat="31.12383" lon="-7.95119">
        <ele>2432.45</ele>
        <time>2018-06-18T11:08:44Z</time>
      </trkpt>
      <trkpt lat="31.12384" lon="-7.9512">
        <ele>2432.32</ele>
        <time>2018-06-18T11:09:44Z</time>
      </trkpt>
      <trkpt lat="31.12371" lon="-7.95114">
        <ele>2430.96</ele>
        <time>2018-06-18T11:10:44Z</time>
      </trkpt>
      <trkpt lat="31.12385" lon="-7.9512">
        <ele>2431.49</ele>
        <time>2018-06-18T11:11:44Z</time>
      </trkpt>
      <trkpt lat="31.12385" lon="-7.95122">
        <ele>2432.46</ele>
        <time>2018-06-18T11:12:44Z</time>
      </trkpt>
      <trkpt lat="31.12383" lon="-7.95122">
        <ele>2432.56</ele>
        <time>2018-06-18T11:13:44Z</time>
      </trkpt>
      <trkpt lat="31.12388" lon="-7.95126">
        <ele>2432.21</ele>
        <time>2018-06-18T11:14:45Z</time>
      </trkpt>
      <trkpt lat="31.12387" lon="-7.95125">
        <ele>2432.39</ele>
        <time>2018-06-18T11:15:45Z</time>
      </trkpt>
      <trkpt lat="31.12388" lon="-7.95125">
        <ele>2433.18</ele>
        <time>2018-06-18T11:16:45Z</time>
      </trkpt>
      <trkpt lat="31.12384" lon="-7.95122">
        <ele>2433.08</ele>
        <time>2018-06-18T11:17:45Z</time>
      </trkpt>
      <trkpt lat="31.12386" lon="-7.95122">
        <ele>2434.27</ele>
        <time>2018-06-18T11:18:45Z</time>
      </trkpt>
      <trkpt lat="31.12372" lon="-7.95119">
        <ele>2433.51</ele>
        <time>2018-06-18T11:19:45Z</time>
      </trkpt>
      <trkpt lat="31.12358" lon="-7.95146">
        <ele>2429.58</ele>
        <time>2018-06-18T11:20:45Z</time>
      </trkpt>
      <trkpt lat="31.12357" lon="-7.95146">
        <ele>2429.87</ele>
        <time>2018-06-18T11:21:45Z</time>
      </trkpt>
      <trkpt lat="31.12357" lon="-7.95147">
        <ele>2429.83</ele>
        <time>2018-06-18T11:22:45Z</time>
      </trkpt>
      <trkpt lat="31.12355" lon="-7.95144">
        <ele>2429.6</ele>
        <time>2018-06-18T11:23:45Z</time>
      </trkpt>
      <trkpt lat="31.12356" lon="-7.95146">
        <ele>2429.4</ele>
        <time>2018-06-18T11:24:45Z</time>
      </trkpt>
      <trkpt lat="31.12355" lon="-7.95146">
        <ele>2428.42</ele>
        <time>2018-06-18T11:25:45Z</time>
      </trkpt>
      <trkpt lat="31.12356" lon="-7.95147">
        <ele>2428.82</ele>
        <time>2018-06-18T11:26:45Z</time>
      </trkpt>
      <trkpt lat="31.12358" lon="-7.95149">
        <ele>2428.96</ele>
        <time>2018-06-18T11:27:45Z</time>
      </trkpt>
      <trkpt lat="31.12356" lon="-7.95149">
        <ele>2428.7</ele>
        <time>2018-06-18T11:28:46Z</time>
      </trkpt>
      <trkpt lat="31.12361" lon="-7.95144">
        <ele>2428.31</ele>
        <time>2018-06-18T11:29:46Z</time>
      </trkpt>
      <trkpt lat="31.12355" lon="-7.95145">
        <ele>2428.95</ele>
        <time>2018-06-18T11:30:46Z</time>
      </trkpt>
      <trkpt lat="31.12357" lon="-7.95145">
        <ele>2429.39</ele>
        <time>2018-06-18T11:31:46Z</time>
      </trkpt>
      <trkpt lat="31.12356" lon="-7.95146">
        <ele>2428.83</ele>
        <time>2018-06-18T11:32:46Z</time>
      </trkpt>
      <trkpt lat="31.12357" lon="-7.95144">
        <ele>2428.86</ele>
        <time>2018-06-18T11:33:46Z</time>
      </trkpt>
      <trkpt lat="31.12366" lon="-7.95142">
        <ele>2429.16</ele>
        <time>2018-06-18T11:34:46Z</time>
      </trkpt>
      <trkpt lat="31.12357" lon="-7.95147">
        <ele>2429.28</ele>
        <time>2018-06-18T11:35:46Z</time>
      </trkpt>
      <trkpt lat="31.12359" lon="-7.95146">
        <ele>2429.53</ele>
        <time>2018-06-18T11:36:46Z</time>
      </trkpt>
      <trkpt lat="31.12358" lon="-7.95146">
        <ele>2429.47</ele>
        <time>2018-06-18T11:37:46Z</time>
      </trkpt>
      <trkpt lat="31.12357" lon="-7.95146">
        <ele>2429.52</ele>
        <time>2018-06-18T11:38:46Z</time>
      </trkpt>
      <trkpt lat="31.12358" lon="-7.95149">
        <ele>2429.78</ele>
        <time>2018-06-18T11:39:46Z</time>
      </trkpt>
      <trkpt lat="31.12354" lon="-7.95146">
        <ele>2429.95</ele>
        <time>2018-06-18T11:40:46Z</time>
      </trkpt>
      <trkpt lat="31.12357" lon="-7.95146">
        <ele>2429.91</ele>
        <time>2018-06-18T11:41:46Z</time>
      </trkpt>
      <trkpt lat="31.12358" lon="-7.95145">
        <ele>2429.67</ele>
        <time>2018-06-18T11:42:46Z</time>
      </trkpt>
      <trkpt lat="31.12359" lon="-7.95147">
        <ele>2429.54</ele>
        <time>2018-06-18T11:43:43Z</time>
      </trkpt>
    </trkseg>
  </trk>
  <trk>
    <name><![CDATA[2018-06-18 16:00:22]]></name>
    <trkseg>
      <trkpt lat="31.12383" lon="-7.95119">
        <ele>2479.46</ele>
        <time>2018-06-18T13:31:52Z</time>
      </trkpt>
      <trkpt lat="31.12383" lon="-7.95117">
        <ele>2478.18</ele>
        <time>2018-06-18T13:32:52Z</time>
      </trkpt>
      <trkpt lat="31.1238" lon="-7.95116">
        <ele>2479.06</ele>
        <time>2018-06-18T13:33:53Z</time>
      </trkpt>
      <trkpt lat="31.12381" lon="-7.95115">
        <ele>2478.52</ele>
        <time>2018-06-18T13:34:53Z</time>
      </trkpt>
      <trkpt lat="31.12381" lon="-7.95117">
        <ele>2478.58</ele>
        <time>2018-06-18T13:35:53Z</time>
      </trkpt>
      <trkpt lat="31.12382" lon="-7.95115">
        <ele>2478.42</ele>
        <time>2018-06-18T13:36:54Z</time>
      </trkpt>
      <trkpt lat="31.12383" lon="-7.95117">
        <ele>2478.06</ele>
        <time>2018-06-18T13:37:54Z</time>
      </trkpt>
      <trkpt lat="31.12384" lon="-7.95112">
        <ele>2477.98</ele>
        <time>2018-06-18T13:38:54Z</time>
      </trkpt>
      <trkpt lat="31.12386" lon="-7.95116">
        <ele>2477.02</ele>
        <time>2018-06-18T13:39:54Z</time>
      </trkpt>
      <trkpt lat="31.12384" lon="-7.95115">
        <ele>2476.85</ele>
        <time>2018-06-18T13:40:54Z</time>
      </trkpt>
      <trkpt lat="31.12399" lon="-7.951">
        <ele>2474.4</ele>
        <time>2018-06-18T13:41:54Z</time>
      </trkpt>
      <trkpt lat="31.12413" lon="-7.95089">
        <ele>2466.7</ele>
        <time>2018-06-18T13:42:54Z</time>
      </trkpt>
      <trkpt lat="31.12426" lon="-7.95076">
        <ele>2459.47</ele>
        <time>2018-06-18T13:43:55Z</time>
      </trkpt>
      <trkpt lat="31.12451" lon="-7.9507">
        <ele>2455.24</ele>
        <time>2018-06-18T13:44:55Z</time>
      </trkpt>
      <trkpt lat="31.12475" lon="-7.95065">
        <ele>2445.78</ele>
        <time>2018-06-18T13:45:55Z</time>
      </trkpt>
      <trkpt lat="31.12502" lon="-7.95051">
        <ele>2436.23</ele>
        <time>2018-06-18T13:46:55Z</time>
      </trkpt>
      <trkpt lat="31.12507" lon="-7.95037">
        <ele>2427.15</ele>
        <time>2018-06-18T13:47:55Z</time>
      </trkpt>
      <trkpt lat="31.12524" lon="-7.95013">
        <ele>2418.14</ele>
        <time>2018-06-18T13:48:55Z</time>
      </trkpt>
      <trkpt lat="31.12541" lon="-7.94985">
        <ele>2408.93</ele>
        <time>2018-06-18T13:49:55Z</time>
      </trkpt>
      <trkpt lat="31.12543" lon="-7.94964">
        <ele>2400.63</ele>
        <time>2018-06-18T13:50:55Z</time>
      </trkpt>
      <trkpt lat="31.12568" lon="-7.94951">
        <ele>2392.36</ele>
        <time>2018-06-18T13:51:55Z</time>
      </trkpt>
      <trkpt lat="31.12595" lon="-7.9494">
        <ele>2384.23</ele>
        <time>2018-06-18T13:52:55Z</time>
      </trkpt>
      <trkpt lat="31.12611" lon="-7.94902">
        <ele>2376.06</ele>
        <time>2018-06-18T13:53:55Z</time>
      </trkpt>
      <trkpt lat="31.12605" lon="-7.94881">
        <ele>2369.67</ele>
        <time>2018-06-18T13:54:55Z</time>
      </trkpt>
      <trkpt lat="31.12598" lon="-7.94865">
        <ele>2359.97</ele>
        <time>2018-06-18T13:55:55Z</time>
      </trkpt>
      <trkpt lat="31.12612" lon="-7.94838">
        <ele>2348.97</ele>
        <time>2018-06-18T13:56:55Z</time>
      </trkpt>
      <trkpt lat="31.12627" lon="-7.94811">
        <ele>2339.9</ele>
        <time>2018-06-18T13:57:55Z</time>
      </trkpt>
      <trkpt lat="31.12625" lon="-7.94793">
        <ele>2331.39</ele>
        <time>2018-06-18T13:58:55Z</time>
      </trkpt>
      <trkpt lat="31.1263" lon="-7.94789">
        <ele>2327.82</ele>
        <time>2018-06-18T13:59:55Z</time>
      </trkpt>
      <trkpt lat="31.12637" lon="-7.94786">
        <ele>2326.03</ele>
        <time>2018-06-18T14:00:55Z</time>
      </trkpt>
      <trkpt lat="31.12633" lon="-7.94777">
        <ele>2323.79</ele>
        <time>2018-06-18T14:01:55Z</time>
      </trkpt>
      <trkpt lat="31.12663" lon="-7.94756">
        <ele>2311.82</ele>
        <time>2018-06-18T14:02:55Z</time>
      </trkpt>
      <trkpt lat="31.12697" lon="-7.94724">
        <ele>2299.32</ele>
        <time>2018-06-18T14:03:55Z</time>
      </trkpt>
      <trkpt lat="31.12723" lon="-7.9468">
        <ele>2284.69</ele>
        <time>2018-06-18T14:04:55Z</time>
      </trkpt>
      <trkpt lat="31.12764" lon="-7.94623">
        <ele>2270.85</ele>
        <time>2018-06-18T14:05:55Z</time>
      </trkpt>
      <trkpt lat="31.12751" lon="-7.94592">
        <ele>2256.63</ele>
        <time>2018-06-18T14:06:55Z</time>
      </trkpt>
      <trkpt lat="31.12749" lon="-7.94553">
        <ele>2239.8</ele>
        <time>2018-06-18T14:07:55Z</time>
      </trkpt>
      <trkpt lat="31.12764" lon="-7.94484">
        <ele>2224.3</ele>
        <time>2018-06-18T14:08:55Z</time>
      </trkpt>
      <trkpt lat="31.12781" lon="-7.94405">
        <ele>2205.23</ele>
        <time>2018-06-18T14:09:55Z</time>
      </trkpt>
      <trkpt lat="31.12759" lon="-7.94356">
        <ele>2188.37</ele>
        <time>2018-06-18T14:10:55Z</time>
      </trkpt>
      <trkpt lat="31.12782" lon="-7.94267">
        <ele>2165.96</ele>
        <time>2018-06-18T14:11:55Z</time>
      </trkpt>
      <trkpt lat="31.12803" lon="-7.94182">
        <ele>2155.86</ele>
        <time>2018-06-18T14:12:55Z</time>
      </trkpt>
      <trkpt lat="31.12791" lon="-7.94089">
        <ele>2139.23</ele>
        <time>2018-06-18T14:13:55Z</time>
      </trkpt>
      <trkpt lat="31.12803" lon="-7.94012">
        <ele>2133.66</ele>
        <time>2018-06-18T14:14:55Z</time>
      </trkpt>
      <trkpt lat="31.12805" lon="-7.93957">
        <ele>2124.09</ele>
        <time>2018-06-18T14:15:55Z</time>
      </trkpt>
      <trkpt lat="31.12818" lon="-7.93892">
        <ele>2126.68</ele>
        <time>2018-06-18T14:16:55Z</time>
      </trkpt>
      <trkpt lat="31.12819" lon="-7.93877">
        <ele>2124.78</ele>
        <time>2018-06-18T14:17:56Z</time>
      </trkpt>
      <trkpt lat="31.12823" lon="-7.93784">
        <ele>2118.86</ele>
        <time>2018-06-18T14:18:56Z</time>
      </trkpt>
      <trkpt lat="31.12847" lon="-7.93693">
        <ele>2111.26</ele>
        <time>2018-06-18T14:19:56Z</time>
      </trkpt>
      <trkpt lat="31.12868" lon="-7.93603">
        <ele>2096.3</ele>
        <time>2018-06-18T14:20:56Z</time>
      </trkpt>
      <trkpt lat="31.12881" lon="-7.93563">
        <ele>2096.63</ele>
        <time>2018-06-18T14:21:56Z</time>
      </trkpt>
      <trkpt lat="31.12899" lon="-7.93514">
        <ele>2086.6</ele>
        <time>2018-06-18T14:22:56Z</time>
      </trkpt>
      <trkpt lat="31.12945" lon="-7.93419">
        <ele>2079.77</ele>
        <time>2018-06-18T14:23:56Z</time>
      </trkpt>
      <trkpt lat="31.12978" lon="-7.93385">
        <ele>2075.91</ele>
        <time>2018-06-18T14:24:56Z</time>
      </trkpt>
      <trkpt lat="31.12975" lon="-7.93379">
        <ele>2074.48</ele>
        <time>2018-06-18T14:25:56Z</time>
      </trkpt>
      <trkpt lat="31.12959" lon="-7.93314">
        <ele>2060.97</ele>
        <time>2018-06-18T14:26:56Z</time>
      </trkpt>
      <trkpt lat="31.1297" lon="-7.93206">
        <ele>2040.39</ele>
        <time>2018-06-18T14:27:56Z</time>
      </trkpt>
      <trkpt lat="31.13002" lon="-7.93152">
        <ele>2030.13</ele>
        <time>2018-06-18T14:28:56Z</time>
      </trkpt>
      <trkpt lat="31.13021" lon="-7.93144">
        <ele>2023.65</ele>
        <time>2018-06-18T14:29:56Z</time>
      </trkpt>
      <trkpt lat="31.13075" lon="-7.93061">
        <ele>2008.1</ele>
        <time>2018-06-18T14:30:56Z</time>
      </trkpt>
      <trkpt lat="31.13103" lon="-7.92959">
        <ele>2001.32</ele>
        <time>2018-06-18T14:31:56Z</time>
      </trkpt>
      <trkpt lat="31.1313" lon="-7.92858">
        <ele>1994.39</ele>
        <time>2018-06-18T14:32:56Z</time>
      </trkpt>
      <trkpt lat="31.1314" lon="-7.92762">
        <ele>1986.71</ele>
        <time>2018-06-18T14:33:56Z</time>
      </trkpt>
      <trkpt lat="31.13161" lon="-7.92702">
        <ele>1981.23</ele>
        <time>2018-06-18T14:34:56Z</time>
      </trkpt>
      <trkpt lat="31.13195" lon="-7.92601">
        <ele>1968.93</ele>
        <time>2018-06-18T14:35:56Z</time>
      </trkpt>
      <trkpt lat="31.13197" lon="-7.925">
        <ele>1967.62</ele>
        <time>2018-06-18T14:36:56Z</time>
      </trkpt>
      <trkpt lat="31.13229" lon="-7.92432">
        <ele>1959.34</ele>
        <time>2018-06-18T14:37:56Z</time>
      </trkpt>
      <trkpt lat="31.13282" lon="-7.92369">
        <ele>1949.54</ele>
        <time>2018-06-18T14:38:56Z</time>
      </trkpt>
      <trkpt lat="31.13337" lon="-7.92291">
        <ele>1937.28</ele>
        <time>2018-06-18T14:39:56Z</time>
      </trkpt>
      <trkpt lat="31.13363" lon="-7.92215">
        <ele>1928.28</ele>
        <time>2018-06-18T14:40:56Z</time>
      </trkpt>
      <trkpt lat="31.13363" lon="-7.92291">
        <ele>1916.37</ele>
        <time>2018-06-18T14:41:56Z</time>
      </trkpt>
      <trkpt lat="31.1335" lon="-7.92368">
        <ele>1905.01</ele>
        <time>2018-06-18T14:42:56Z</time>
      </trkpt>
      <trkpt lat="31.13334" lon="-7.92434">
        <ele>1897.26</ele>
        <time>2018-06-18T14:43:56Z</time>
      </trkpt>
      <trkpt lat="31.13321" lon="-7.92529">
        <ele>1892.13</ele>
        <time>2018-06-18T14:44:56Z</time>
      </trkpt>
      <trkpt lat="31.13319" lon="-7.92617">
        <ele>1886.14</ele>
        <time>2018-06-18T14:45:56Z</time>
      </trkpt>
      <trkpt lat="31.13337" lon="-7.92707">
        <ele>1877.94</ele>
        <time>2018-06-18T14:46:56Z</time>
      </trkpt>
      <trkpt lat="31.13368" lon="-7.92779">
        <ele>1873.83</ele>
        <time>2018-06-18T14:47:56Z</time>
      </trkpt>
      <trkpt lat="31.13398" lon="-7.92838">
        <ele>1868.96</ele>
        <time>2018-06-18T14:48:56Z</time>
      </trkpt>
      <trkpt lat="31.1342" lon="-7.92816">
        <ele>1865.53</ele>
        <time>2018-06-18T14:49:56Z</time>
      </trkpt>
      <trkpt lat="31.1342" lon="-7.92806">
        <ele>1864.43</ele>
        <time>2018-06-18T14:50:56Z</time>
      </trkpt>
      <trkpt lat="31.13421" lon="-7.92788">
        <ele>1862.17</ele>
        <time>2018-06-18T14:51:56Z</time>
      </trkpt>
      <trkpt lat="31.13417" lon="-7.92723">
        <ele>1855.8</ele>
        <time>2018-06-18T14:52:56Z</time>
      </trkpt>
      <trkpt lat="31.13442" lon="-7.9279">
        <ele>1855.2</ele>
        <time>2018-06-18T14:53:56Z</time>
      </trkpt>
      <trkpt lat="31.13465" lon="-7.92812">
        <ele>1855.72</ele>
        <time>2018-06-18T14:54:56Z</time>
      </trkpt>
      <trkpt lat="31.13462" lon="-7.92807">
        <ele>1855.4</ele>
        <time>2018-06-18T14:55:56Z</time>
      </trkpt>
      <trkpt lat="31.13463" lon="-7.928">
        <ele>1855.77</ele>
        <time>2018-06-18T14:56:56Z</time>
      </trkpt>
      <trkpt lat="31.13463" lon="-7.92805">
        <ele>1856.08</ele>
        <time>2018-06-18T14:57:56Z</time>
      </trkpt>
      <trkpt lat="31.13451" lon="-7.92788">
        <ele>1855.02</ele>
        <time>2018-06-18T14:58:56Z</time>
      </trkpt>
      <trkpt lat="31.13455" lon="-7.92804">
        <ele>1856.51</ele>
        <time>2018-06-18T14:59:56Z</time>
      </trkpt>
      <trkpt lat="31.13467" lon="-7.92809">
        <ele>1858.48</ele>
        <time>2018-06-18T15:00:21Z</time>
      </trkpt>
    </trkseg>
  </trk>
  <trk>
    <name><![CDATA[2018-06-19 14:07:22]]></name>
    <trkseg>
      <trkpt lat="31.13436" lon="-7.92754">
        <ele>1841.8</ele>
        <time>2018-06-19T07:21:01Z</time>
      </trkpt>
      <trkpt lat="31.13415" lon="-7.92735">
        <ele>1847.14</ele>
        <time>2018-06-19T07:22:01Z</time>
      </trkpt>
      <trkpt lat="31.13422" lon="-7.92813">
        <ele>1851.99</ele>
        <time>2018-06-19T07:23:01Z</time>
      </trkpt>
      <trkpt lat="31.13405" lon="-7.92846">
        <ele>1857.89</ele>
        <time>2018-06-19T07:24:01Z</time>
      </trkpt>
      <trkpt lat="31.13369" lon="-7.92783">
        <ele>1858.76</ele>
        <time>2018-06-19T07:25:01Z</time>
      </trkpt>
      <trkpt lat="31.13342" lon="-7.92718">
        <ele>1863.46</ele>
        <time>2018-06-19T07:26:01Z</time>
      </trkpt>
      <trkpt lat="31.13321" lon="-7.92637">
        <ele>1869.55</ele>
        <time>2018-06-19T07:27:01Z</time>
      </trkpt>
      <trkpt lat="31.13326" lon="-7.92578">
        <ele>1875.41</ele>
        <time>2018-06-19T07:28:01Z</time>
      </trkpt>
      <trkpt lat="31.13314" lon="-7.92489">
        <ele>1880.67</ele>
        <time>2018-06-19T07:29:01Z</time>
      </trkpt>
      <trkpt lat="31.13341" lon="-7.9242">
        <ele>1886.6</ele>
        <time>2018-06-19T07:30:01Z</time>
      </trkpt>
      <trkpt lat="31.13346" lon="-7.92384">
        <ele>1891.14</ele>
        <time>2018-06-19T07:31:01Z</time>
      </trkpt>
      <trkpt lat="31.1336" lon="-7.92305">
        <ele>1900.39</ele>
        <time>2018-06-19T07:32:01Z</time>
      </trkpt>
      <trkpt lat="31.13368" lon="-7.92234">
        <ele>1908.63</ele>
        <time>2018-06-19T07:33:01Z</time>
      </trkpt>
      <trkpt lat="31.13352" lon="-7.92247">
        <ele>1916.23</ele>
        <time>2018-06-19T07:34:01Z</time>
      </trkpt>
      <trkpt lat="31.13319" lon="-7.92305">
        <ele>1923.67</ele>
        <time>2018-06-19T07:35:01Z</time>
      </trkpt>
      <trkpt lat="31.13285" lon="-7.92362">
        <ele>1933.07</ele>
        <time>2018-06-19T07:36:01Z</time>
      </trkpt>
      <trkpt lat="31.13237" lon="-7.92408">
        <ele>1941.89</ele>
        <time>2018-06-19T07:37:01Z</time>
      </trkpt>
      <trkpt lat="31.13235" lon="-7.92393">
        <ele>1950.16</ele>
        <time>2018-06-19T07:38:01Z</time>
      </trkpt>
      <trkpt lat="31.13259" lon="-7.92332">
        <ele>1957.18</ele>
        <time>2018-06-19T07:39:01Z</time>
      </trkpt>
      <trkpt lat="31.13274" lon="-7.92261">
        <ele>1963.27</ele>
        <time>2018-06-19T07:40:01Z</time>
      </trkpt>
      <trkpt lat="31.1325" lon="-7.92201">
        <ele>1966.84</ele>
        <time>2018-06-19T07:41:01Z</time>
      </trkpt>
      <trkpt lat="31.13249" lon="-7.92204">
        <ele>1966.16</ele>
        <time>2018-06-19T07:42:01Z</time>
      </trkpt>
      <trkpt lat="31.13255" lon="-7.92182">
        <ele>1966.04</ele>
        <time>2018-06-19T07:43:01Z</time>
      </trkpt>
      <trkpt lat="31.13229" lon="-7.92212">
        <ele>1964.63</ele>
        <time>2018-06-19T07:44:01Z</time>
      </trkpt>
      <trkpt lat="31.13219" lon="-7.92215">
        <ele>1964.46</ele>
        <time>2018-06-19T07:45:01Z</time>
      </trkpt>
      <trkpt lat="31.1316" lon="-7.92204">
        <ele>1961.13</ele>
        <time>2018-06-19T07:46:01Z</time>
      </trkpt>
      <trkpt lat="31.13103" lon="-7.92178">
        <ele>1960.27</ele>
        <time>2018-06-19T07:47:01Z</time>
      </trkpt>
      <trkpt lat="31.1304" lon="-7.92131">
        <ele>1958.19</ele>
        <time>2018-06-19T07:48:01Z</time>
      </trkpt>
      <trkpt lat="31.12987" lon="-7.92132">
        <ele>1954.9</ele>
        <time>2018-06-19T07:49:01Z</time>
      </trkpt>
      <trkpt lat="31.12923" lon="-7.92097">
        <ele>1950.49</ele>
        <time>2018-06-19T07:50:01Z</time>
      </trkpt>
      <trkpt lat="31.12857" lon="-7.92064">
        <ele>1948.57</ele>
        <time>2018-06-19T07:51:01Z</time>
      </trkpt>
      <trkpt lat="31.12809" lon="-7.92038">
        <ele>1948.47</ele>
        <time>2018-06-19T07:52:02Z</time>
      </trkpt>
      <trkpt lat="31.12768" lon="-7.92029">
        <ele>1950.95</ele>
        <time>2018-06-19T07:53:02Z</time>
      </trkpt>
      <trkpt lat="31.12711" lon="-7.91969">
        <ele>1953.74</ele>
        <time>2018-06-19T07:54:02Z</time>
      </trkpt>
      <trkpt lat="31.12629" lon="-7.91986">
        <ele>1948.26</ele>
        <time>2018-06-19T07:55:02Z</time>
      </trkpt>
      <trkpt lat="31.12555" lon="-7.9195">
        <ele>1947.59</ele>
        <time>2018-06-19T07:56:02Z</time>
      </trkpt>
      <trkpt lat="31.12484" lon="-7.91956">
        <ele>1943.27</ele>
        <time>2018-06-19T07:57:02Z</time>
      </trkpt>
      <trkpt lat="31.12452" lon="-7.92022">
        <ele>1942.98</ele>
        <time>2018-06-19T07:58:02Z</time>
      </trkpt>
      <trkpt lat="31.12384" lon="-7.92071">
        <ele>1941.79</ele>
        <time>2018-06-19T07:59:02Z</time>
      </trkpt>
      <trkpt lat="31.12333" lon="-7.92125">
        <ele>1942.75</ele>
        <time>2018-06-19T08:00:02Z</time>
      </trkpt>
      <trkpt lat="31.1232" lon="-7.92143">
        <ele>1944.2</ele>
        <time>2018-06-19T08:01:02Z</time>
      </trkpt>
      <trkpt lat="31.12322" lon="-7.92139">
        <ele>1942.53</ele>
        <time>2018-06-19T08:02:02Z</time>
      </trkpt>
      <trkpt lat="31.12319" lon="-7.92143">
        <ele>1942.44</ele>
        <time>2018-06-19T08:03:02Z</time>
      </trkpt>
      <trkpt lat="31.12313" lon="-7.92145">
        <ele>1943.27</ele>
        <time>2018-06-19T08:04:02Z</time>
      </trkpt>
      <trkpt lat="31.1225" lon="-7.92119">
        <ele>1941.84</ele>
        <time>2018-06-19T08:05:02Z</time>
      </trkpt>
      <trkpt lat="31.12191" lon="-7.92133">
        <ele>1944.83</ele>
        <time>2018-06-19T08:06:04Z</time>
      </trkpt>
      <trkpt lat="31.12144" lon="-7.92143">
        <ele>1946.58</ele>
        <time>2018-06-19T08:07:04Z</time>
      </trkpt>
      <trkpt lat="31.12083" lon="-7.92169">
        <ele>1947.15</ele>
        <time>2018-06-19T08:08:04Z</time>
      </trkpt>
      <trkpt lat="31.12026" lon="-7.92179">
        <ele>1950.35</ele>
        <time>2018-06-19T08:09:04Z</time>
      </trkpt>
      <trkpt lat="31.11973" lon="-7.92163">
        <ele>1951.99</ele>
        <time>2018-06-19T08:10:04Z</time>
      </trkpt>
      <trkpt lat="31.11931" lon="-7.92158">
        <ele>1952.8</ele>
        <time>2018-06-19T08:11:04Z</time>
      </trkpt>
      <trkpt lat="31.11881" lon="-7.92155">
        <ele>1956.79</ele>
        <time>2018-06-19T08:12:04Z</time>
      </trkpt>
      <trkpt lat="31.11829" lon="-7.92138">
        <ele>1959.81</ele>
        <time>2018-06-19T08:13:04Z</time>
      </trkpt>
      <trkpt lat="31.11779" lon="-7.92108">
        <ele>1961.44</ele>
        <time>2018-06-19T08:14:04Z</time>
      </trkpt>
      <trkpt lat="31.11723" lon="-7.92094">
        <ele>1964.19</ele>
        <time>2018-06-19T08:15:04Z</time>
      </trkpt>
      <trkpt lat="31.1167" lon="-7.92068">
        <ele>1967.29</ele>
        <time>2018-06-19T08:16:04Z</time>
      </trkpt>
      <trkpt lat="31.11617" lon="-7.92053">
        <ele>1968.19</ele>
        <time>2018-06-19T08:17:04Z</time>
      </trkpt>
      <trkpt lat="31.11573" lon="-7.92027">
        <ele>1970.18</ele>
        <time>2018-06-19T08:18:04Z</time>
      </trkpt>
      <trkpt lat="31.11525" lon="-7.92006">
        <ele>1973.66</ele>
        <time>2018-06-19T08:19:04Z</time>
      </trkpt>
      <trkpt lat="31.115" lon="-7.91984">
        <ele>1978.83</ele>
        <time>2018-06-19T08:20:04Z</time>
      </trkpt>
      <trkpt lat="31.11461" lon="-7.91979">
        <ele>1985.43</ele>
        <time>2018-06-19T08:21:04Z</time>
      </trkpt>
      <trkpt lat="31.11435" lon="-7.91982">
        <ele>1993.18</ele>
        <time>2018-06-19T08:22:04Z</time>
      </trkpt>
      <trkpt lat="31.11412" lon="-7.91991">
        <ele>1997.7</ele>
        <time>2018-06-19T08:23:04Z</time>
      </trkpt>
      <trkpt lat="31.11382" lon="-7.92007">
        <ele>2004.46</ele>
        <time>2018-06-19T08:24:04Z</time>
      </trkpt>
      <trkpt lat="31.1136" lon="-7.92008">
        <ele>2010.28</ele>
        <time>2018-06-19T08:25:04Z</time>
      </trkpt>
      <trkpt lat="31.11334" lon="-7.92015">
        <ele>2016.7</ele>
        <time>2018-06-19T08:26:04Z</time>
      </trkpt>
      <trkpt lat="31.11335" lon="-7.9199">
        <ele>2023.37</ele>
        <time>2018-06-19T08:27:04Z</time>
      </trkpt>
      <trkpt lat="31.11317" lon="-7.91993">
        <ele>2028.9</ele>
        <time>2018-06-19T08:28:04Z</time>
      </trkpt>
      <trkpt lat="31.11318" lon="-7.91966">
        <ele>2035.07</ele>
        <time>2018-06-19T08:29:04Z</time>
      </trkpt>
      <trkpt lat="31.11293" lon="-7.91993">
        <ele>2041.29</ele>
        <time>2018-06-19T08:30:04Z</time>
      </trkpt>
      <trkpt lat="31.11276" lon="-7.92006">
        <ele>2043.77</ele>
        <time>2018-06-19T08:31:04Z</time>
      </trkpt>
      <trkpt lat="31.11276" lon="-7.92004">
        <ele>2045.08</ele>
        <time>2018-06-19T08:32:04Z</time>
      </trkpt>
      <trkpt lat="31.11279" lon="-7.92006">
        <ele>2043.08</ele>
        <time>2018-06-19T08:33:04Z</time>
      </trkpt>
      <trkpt lat="31.11282" lon="-7.92004">
        <ele>2044.13</ele>
        <time>2018-06-19T08:34:05Z</time>
      </trkpt>
      <trkpt lat="31.11265" lon="-7.92013">
        <ele>2045.92</ele>
        <time>2018-06-19T08:35:05Z</time>
      </trkpt>
      <trkpt lat="31.11265" lon="-7.9201">
        <ele>2046.54</ele>
        <time>2018-06-19T08:36:05Z</time>
      </trkpt>
      <trkpt lat="31.11245" lon="-7.92013">
        <ele>2049.73</ele>
        <time>2018-06-19T08:37:05Z</time>
      </trkpt>
      <trkpt lat="31.11215" lon="-7.92005">
        <ele>2056.23</ele>
        <time>2018-06-19T08:38:05Z</time>
      </trkpt>
      <trkpt lat="31.11199" lon="-7.91994">
        <ele>2061.26</ele>
        <time>2018-06-19T08:39:05Z</time>
      </trkpt>
      <trkpt lat="31.11171" lon="-7.91988">
        <ele>2065.99</ele>
        <time>2018-06-19T08:40:05Z</time>
      </trkpt>
      <trkpt lat="31.11132" lon="-7.91993">
        <ele>2073.92</ele>
        <time>2018-06-19T08:41:05Z</time>
      </trkpt>
      <trkpt lat="31.1109" lon="-7.91988">
        <ele>2079.91</ele>
        <time>2018-06-19T08:42:05Z</time>
      </trkpt>
      <trkpt lat="31.11055" lon="-7.91983">
        <ele>2085.12</ele>
        <time>2018-06-19T08:43:05Z</time>
      </trkpt>
      <trkpt lat="31.11014" lon="-7.91987">
        <ele>2091.21</ele>
        <time>2018-06-19T08:44:05Z</time>
      </trkpt>
      <trkpt lat="31.11008" lon="-7.91965">
        <ele>2095.81</ele>
        <time>2018-06-19T08:45:05Z</time>
      </trkpt>
      <trkpt lat="31.10989" lon="-7.91966">
        <ele>2100.95</ele>
        <time>2018-06-19T08:46:05Z</time>
      </trkpt>
      <trkpt lat="31.10962" lon="-7.91964">
        <ele>2108.26</ele>
        <time>2018-06-19T08:47:05Z</time>
      </trkpt>
      <trkpt lat="31.10924" lon="-7.91973">
        <ele>2113.5</ele>
        <time>2018-06-19T08:48:05Z</time>
      </trkpt>
      <trkpt lat="31.10895" lon="-7.91963">
        <ele>2118.63</ele>
        <time>2018-06-19T08:49:05Z</time>
      </trkpt>
      <trkpt lat="31.10868" lon="-7.9196">
        <ele>2123.07</ele>
        <time>2018-06-19T08:50:05Z</time>
      </trkpt>
      <trkpt lat="31.10834" lon="-7.91957">
        <ele>2129.52</ele>
        <time>2018-06-19T08:51:05Z</time>
      </trkpt>
      <trkpt lat="31.10803" lon="-7.91968">
        <ele>2137.32</ele>
        <time>2018-06-19T08:52:05Z</time>
      </trkpt>
      <trkpt lat="31.10772" lon="-7.91951">
        <ele>2141.69</ele>
        <time>2018-06-19T08:53:05Z</time>
      </trkpt>
      <trkpt lat="31.1074" lon="-7.9195">
        <ele>2149.91</ele>
        <time>2018-06-19T08:54:05Z</time>
      </trkpt>
      <trkpt lat="31.10745" lon="-7.91928">
        <ele>2158.65</ele>
        <time>2018-06-19T08:55:05Z</time>
      </trkpt>
      <trkpt lat="31.10719" lon="-7.91913">
        <ele>2162.07</ele>
        <time>2018-06-19T08:56:05Z</time>
      </trkpt>
      <trkpt lat="31.1068" lon="-7.9191">
        <ele>2170.51</ele>
        <time>2018-06-19T08:57:05Z</time>
      </trkpt>
      <trkpt lat="31.10653" lon="-7.91894">
        <ele>2181.06</ele>
        <time>2018-06-19T08:58:05Z</time>
      </trkpt>
      <trkpt lat="31.1066" lon="-7.91868">
        <ele>2184.19</ele>
        <time>2018-06-19T08:59:05Z</time>
      </trkpt>
      <trkpt lat="31.1065" lon="-7.91836">
        <ele>2188.96</ele>
        <time>2018-06-19T09:00:05Z</time>
      </trkpt>
      <trkpt lat="31.10614" lon="-7.91815">
        <ele>2194.89</ele>
        <time>2018-06-19T09:01:05Z</time>
      </trkpt>
      <trkpt lat="31.10603" lon="-7.91803">
        <ele>2200.94</ele>
        <time>2018-06-19T09:02:05Z</time>
      </trkpt>
      <trkpt lat="31.10591" lon="-7.91806">
        <ele>2203.95</ele>
        <time>2018-06-19T09:03:05Z</time>
      </trkpt>
      <trkpt lat="31.10576" lon="-7.918">
        <ele>2205.53</ele>
        <time>2018-06-19T09:04:05Z</time>
      </trkpt>
      <trkpt lat="31.1057" lon="-7.91802">
        <ele>2204.95</ele>
        <time>2018-06-19T09:05:05Z</time>
      </trkpt>
      <trkpt lat="31.10572" lon="-7.91802">
        <ele>2205.03</ele>
        <time>2018-06-19T09:06:06Z</time>
      </trkpt>
      <trkpt lat="31.10572" lon="-7.91801">
        <ele>2203.44</ele>
        <time>2018-06-19T09:07:07Z</time>
      </trkpt>
      <trkpt lat="31.10567" lon="-7.91792">
        <ele>2205.84</ele>
        <time>2018-06-19T09:08:07Z</time>
      </trkpt>
      <trkpt lat="31.10541" lon="-7.9176">
        <ele>2210.15</ele>
        <time>2018-06-19T09:09:07Z</time>
      </trkpt>
      <trkpt lat="31.10514" lon="-7.91731">
        <ele>2216.5</ele>
        <time>2018-06-19T09:10:07Z</time>
      </trkpt>
      <trkpt lat="31.10477" lon="-7.91713">
        <ele>2220.81</ele>
        <time>2018-06-19T09:11:07Z</time>
      </trkpt>
      <trkpt lat="31.10453" lon="-7.91683">
        <ele>2226.01</ele>
        <time>2018-06-19T09:12:07Z</time>
      </trkpt>
      <trkpt lat="31.10409" lon="-7.91687">
        <ele>2230.34</ele>
        <time>2018-06-19T09:13:07Z</time>
      </trkpt>
      <trkpt lat="31.10375" lon="-7.91673">
        <ele>2237.04</ele>
        <time>2018-06-19T09:14:07Z</time>
      </trkpt>
      <trkpt lat="31.10346" lon="-7.9166">
        <ele>2242.13</ele>
        <time>2018-06-19T09:15:11Z</time>
      </trkpt>
      <trkpt lat="31.10298" lon="-7.91666">
        <ele>2247.39</ele>
        <time>2018-06-19T09:16:11Z</time>
      </trkpt>
      <trkpt lat="31.10265" lon="-7.91663">
        <ele>2254.36</ele>
        <time>2018-06-19T09:17:11Z</time>
      </trkpt>
      <trkpt lat="31.1023" lon="-7.91654">
        <ele>2260.25</ele>
        <time>2018-06-19T09:18:11Z</time>
      </trkpt>
      <trkpt lat="31.10208" lon="-7.91636">
        <ele>2266.28</ele>
        <time>2018-06-19T09:19:11Z</time>
      </trkpt>
      <trkpt lat="31.10179" lon="-7.91616">
        <ele>2272.7</ele>
        <time>2018-06-19T09:20:11Z</time>
      </trkpt>
      <trkpt lat="31.10158" lon="-7.91565">
        <ele>2273.1</ele>
        <time>2018-06-19T09:21:11Z</time>
      </trkpt>
      <trkpt lat="31.10133" lon="-7.91525">
        <ele>2277.3</ele>
        <time>2018-06-19T09:22:11Z</time>
      </trkpt>
      <trkpt lat="31.10109" lon="-7.91484">
        <ele>2282.55</ele>
        <time>2018-06-19T09:23:11Z</time>
      </trkpt>
      <trkpt lat="31.10094" lon="-7.91451">
        <ele>2287.86</ele>
        <time>2018-06-19T09:24:11Z</time>
      </trkpt>
      <trkpt lat="31.10056" lon="-7.91442">
        <ele>2291.42</ele>
        <time>2018-06-19T09:25:11Z</time>
      </trkpt>
      <trkpt lat="31.10029" lon="-7.91467">
        <ele>2294.66</ele>
        <time>2018-06-19T09:26:11Z</time>
      </trkpt>
      <trkpt lat="31.09984" lon="-7.91436">
        <ele>2297.49</ele>
        <time>2018-06-19T09:27:11Z</time>
      </trkpt>
      <trkpt lat="31.09949" lon="-7.91398">
        <ele>2298.44</ele>
        <time>2018-06-19T09:28:11Z</time>
      </trkpt>
      <trkpt lat="31.09924" lon="-7.91353">
        <ele>2299.61</ele>
        <time>2018-06-19T09:29:11Z</time>
      </trkpt>
      <trkpt lat="31.09925" lon="-7.91344">
        <ele>2300.15</ele>
        <time>2018-06-19T09:30:11Z</time>
      </trkpt>
      <trkpt lat="31.09907" lon="-7.91328">
        <ele>2296.76</ele>
        <time>2018-06-19T09:31:11Z</time>
      </trkpt>
      <trkpt lat="31.09886" lon="-7.91294">
        <ele>2295.15</ele>
        <time>2018-06-19T09:32:11Z</time>
      </trkpt>
      <trkpt lat="31.09846" lon="-7.9127">
        <ele>2297.91</ele>
        <time>2018-06-19T09:33:11Z</time>
      </trkpt>
      <trkpt lat="31.09826" lon="-7.91294">
        <ele>2302.31</ele>
        <time>2018-06-19T09:34:11Z</time>
      </trkpt>
      <trkpt lat="31.09817" lon="-7.91266">
        <ele>2310.59</ele>
        <time>2018-06-19T09:35:11Z</time>
      </trkpt>
      <trkpt lat="31.098" lon="-7.91257">
        <ele>2314.58</ele>
        <time>2018-06-19T09:36:11Z</time>
      </trkpt>
      <trkpt lat="31.0978" lon="-7.91259">
        <ele>2321.38</ele>
        <time>2018-06-19T09:37:11Z</time>
      </trkpt>
      <trkpt lat="31.09776" lon="-7.91298">
        <ele>2330.38</ele>
        <time>2018-06-19T09:38:13Z</time>
      </trkpt>
      <trkpt lat="31.09763" lon="-7.91282">
        <ele>2337.95</ele>
        <time>2018-06-19T09:39:14Z</time>
      </trkpt>
      <trkpt lat="31.09744" lon="-7.91279">
        <ele>2344.81</ele>
        <time>2018-06-19T09:40:14Z</time>
      </trkpt>
      <trkpt lat="31.09732" lon="-7.91297">
        <ele>2350.41</ele>
        <time>2018-06-19T09:41:14Z</time>
      </trkpt>
      <trkpt lat="31.09733" lon="-7.91311">
        <ele>2355.59</ele>
        <time>2018-06-19T09:42:14Z</time>
      </trkpt>
      <trkpt lat="31.09729" lon="-7.91319">
        <ele>2362.68</ele>
        <time>2018-06-19T09:43:14Z</time>
      </trkpt>
      <trkpt lat="31.09698" lon="-7.91281">
        <ele>2367.26</ele>
        <time>2018-06-19T09:44:14Z</time>
      </trkpt>
      <trkpt lat="31.09682" lon="-7.9128">
        <ele>2377.26</ele>
        <time>2018-06-19T09:45:14Z</time>
      </trkpt>
      <trkpt lat="31.09663" lon="-7.91276">
        <ele>2383.33</ele>
        <time>2018-06-19T09:46:14Z</time>
      </trkpt>
      <trkpt lat="31.09649" lon="-7.91268">
        <ele>2387.23</ele>
        <time>2018-06-19T09:47:14Z</time>
      </trkpt>
      <trkpt lat="31.09646" lon="-7.91265">
        <ele>2387.22</ele>
        <time>2018-06-19T09:48:15Z</time>
      </trkpt>
      <trkpt lat="31.09646" lon="-7.91266">
        <ele>2386.04</ele>
        <time>2018-06-19T09:49:16Z</time>
      </trkpt>
      <trkpt lat="31.09648" lon="-7.91266">
        <ele>2387.3</ele>
        <time>2018-06-19T09:50:17Z</time>
      </trkpt>
      <trkpt lat="31.09654" lon="-7.91265">
        <ele>2386.05</ele>
        <time>2018-06-19T09:51:17Z</time>
      </trkpt>
      <trkpt lat="31.09654" lon="-7.91266">
        <ele>2384.77</ele>
        <time>2018-06-19T09:52:18Z</time>
      </trkpt>
      <trkpt lat="31.09658" lon="-7.91268">
        <ele>2384.89</ele>
        <time>2018-06-19T09:53:19Z</time>
      </trkpt>
      <trkpt lat="31.0966" lon="-7.91273">
        <ele>2386.27</ele>
        <time>2018-06-19T09:54:19Z</time>
      </trkpt>
      <trkpt lat="31.09652" lon="-7.91283">
        <ele>2389.75</ele>
        <time>2018-06-19T09:55:19Z</time>
      </trkpt>
      <trkpt lat="31.09651" lon="-7.91285">
        <ele>2389.19</ele>
        <time>2018-06-19T09:56:19Z</time>
      </trkpt>
      <trkpt lat="31.09644" lon="-7.91289">
        <ele>2390.94</ele>
        <time>2018-06-19T09:57:19Z</time>
      </trkpt>
      <trkpt lat="31.09631" lon="-7.91291">
        <ele>2396.77</ele>
        <time>2018-06-19T09:58:19Z</time>
      </trkpt>
      <trkpt lat="31.09644" lon="-7.91306">
        <ele>2399.03</ele>
        <time>2018-06-19T09:59:19Z</time>
      </trkpt>
      <trkpt lat="31.09608" lon="-7.91298">
        <ele>2403.2</ele>
        <time>2018-06-19T10:00:21Z</time>
      </trkpt>
      <trkpt lat="31.09597" lon="-7.91378">
        <ele>2410.43</ele>
        <time>2018-06-19T10:01:40Z</time>
      </trkpt>
      <trkpt lat="31.09542" lon="-7.91382">
        <ele>2416.47</ele>
        <time>2018-06-19T10:02:40Z</time>
      </trkpt>
      <trkpt lat="31.09505" lon="-7.91388">
        <ele>2423.91</ele>
        <time>2018-06-19T10:03:40Z</time>
      </trkpt>
      <trkpt lat="31.09481" lon="-7.9139">
        <ele>2430.76</ele>
        <time>2018-06-19T10:04:40Z</time>
      </trkpt>
      <trkpt lat="31.09467" lon="-7.91404">
        <ele>2435.9</ele>
        <time>2018-06-19T10:05:40Z</time>
      </trkpt>
      <trkpt lat="31.09439" lon="-7.91407">
        <ele>2441.69</ele>
        <time>2018-06-19T10:06:40Z</time>
      </trkpt>
      <trkpt lat="31.09406" lon="-7.9141">
        <ele>2450.29</ele>
        <time>2018-06-19T10:07:40Z</time>
      </trkpt>
      <trkpt lat="31.09373" lon="-7.91415">
        <ele>2455.07</ele>
        <time>2018-06-19T10:08:41Z</time>
      </trkpt>
      <trkpt lat="31.0937" lon="-7.91415">
        <ele>2458.25</ele>
        <time>2018-06-19T10:09:41Z</time>
      </trkpt>
      <trkpt lat="31.09379" lon="-7.91437">
        <ele>2466.04</ele>
        <time>2018-06-19T10:10:41Z</time>
      </trkpt>
      <trkpt lat="31.094" lon="-7.9147">
        <ele>2471.32</ele>
        <time>2018-06-19T10:11:41Z</time>
      </trkpt>
      <trkpt lat="31.09429" lon="-7.91484">
        <ele>2476.93</ele>
        <time>2018-06-19T10:12:41Z</time>
      </trkpt>
      <trkpt lat="31.09406" lon="-7.91502">
        <ele>2484.15</ele>
        <time>2018-06-19T10:13:41Z</time>
      </trkpt>
      <trkpt lat="31.09391" lon="-7.91525">
        <ele>2489.3</ele>
        <time>2018-06-19T10:14:41Z</time>
      </trkpt>
      <trkpt lat="31.09368" lon="-7.91536">
        <ele>2495.31</ele>
        <time>2018-06-19T10:15:41Z</time>
      </trkpt>
      <trkpt lat="31.09348" lon="-7.91551">
        <ele>2506.06</ele>
        <time>2018-06-19T10:16:41Z</time>
      </trkpt>
      <trkpt lat="31.09341" lon="-7.91565">
        <ele>2511.86</ele>
        <time>2018-06-19T10:17:41Z</time>
      </trkpt>
      <trkpt lat="31.09307" lon="-7.91558">
        <ele>2516.24</ele>
        <time>2018-06-19T10:18:42Z</time>
      </trkpt>
      <trkpt lat="31.0928" lon="-7.91557">
        <ele>2519.74</ele>
        <time>2018-06-19T10:19:42Z</time>
      </trkpt>
      <trkpt lat="31.09241" lon="-7.91548">
        <ele>2526.08</ele>
        <time>2018-06-19T10:20:42Z</time>
      </trkpt>
      <trkpt lat="31.09215" lon="-7.91529">
        <ele>2533.39</ele>
        <time>2018-06-19T10:21:42Z</time>
      </trkpt>
      <trkpt lat="31.09167" lon="-7.91503">
        <ele>2538.34</ele>
        <time>2018-06-19T10:22:55Z</time>
      </trkpt>
      <trkpt lat="31.0916" lon="-7.91503">
        <ele>2538.25</ele>
        <time>2018-06-19T10:23:55Z</time>
      </trkpt>
      <trkpt lat="31.09163" lon="-7.91493">
        <ele>2537.15</ele>
        <time>2018-06-19T10:24:55Z</time>
      </trkpt>
      <trkpt lat="31.09161" lon="-7.91498">
        <ele>2540.78</ele>
        <time>2018-06-19T10:25:55Z</time>
      </trkpt>
      <trkpt lat="31.09153" lon="-7.915">
        <ele>2538.38</ele>
        <time>2018-06-19T10:26:55Z</time>
      </trkpt>
      <trkpt lat="31.09159" lon="-7.91505">
        <ele>2543.21</ele>
        <time>2018-06-19T10:27:56Z</time>
      </trkpt>
      <trkpt lat="31.09161" lon="-7.91503">
        <ele>2544.96</ele>
        <time>2018-06-19T10:28:56Z</time>
      </trkpt>
      <trkpt lat="31.09138" lon="-7.91502">
        <ele>2544.94</ele>
        <time>2018-06-19T10:29:56Z</time>
      </trkpt>
      <trkpt lat="31.09155" lon="-7.91492">
        <ele>2543.45</ele>
        <time>2018-06-19T10:30:56Z</time>
      </trkpt>
      <trkpt lat="31.09153" lon="-7.91505">
        <ele>2544.07</ele>
        <time>2018-06-19T10:31:57Z</time>
      </trkpt>
      <trkpt lat="31.09143" lon="-7.91502">
        <ele>2547.33</ele>
        <time>2018-06-19T10:32:57Z</time>
      </trkpt>
      <trkpt lat="31.09141" lon="-7.91505">
        <ele>2544.07</ele>
        <time>2018-06-19T10:33:57Z</time>
      </trkpt>
      <trkpt lat="31.0914" lon="-7.91498">
        <ele>2545.58</ele>
        <time>2018-06-19T10:34:57Z</time>
      </trkpt>
      <trkpt lat="31.09142" lon="-7.91498">
        <ele>2545.35</ele>
        <time>2018-06-19T10:35:57Z</time>
      </trkpt>
      <trkpt lat="31.09147" lon="-7.91498">
        <ele>2544.12</ele>
        <time>2018-06-19T10:36:57Z</time>
      </trkpt>
      <trkpt lat="31.09144" lon="-7.91498">
        <ele>2540.81</ele>
        <time>2018-06-19T10:37:58Z</time>
      </trkpt>
      <trkpt lat="31.09143" lon="-7.91498">
        <ele>2545.83</ele>
        <time>2018-06-19T10:38:58Z</time>
      </trkpt>
      <trkpt lat="31.09147" lon="-7.91495">
        <ele>2544.12</ele>
        <time>2018-06-19T10:39:58Z</time>
      </trkpt>
      <trkpt lat="31.09147" lon="-7.91494">
        <ele>2545.13</ele>
        <time>2018-06-19T10:40:59Z</time>
      </trkpt>
      <trkpt lat="31.09151" lon="-7.91495">
        <ele>2545.94</ele>
        <time>2018-06-19T10:41:59Z</time>
      </trkpt>
      <trkpt lat="31.09145" lon="-7.91495">
        <ele>2546.23</ele>
        <time>2018-06-19T10:42:59Z</time>
      </trkpt>
      <trkpt lat="31.09142" lon="-7.91504">
        <ele>2543.36</ele>
        <time>2018-06-19T10:43:59Z</time>
      </trkpt>
      <trkpt lat="31.09147" lon="-7.91495">
        <ele>2548.3</ele>
        <time>2018-06-19T10:44:59Z</time>
      </trkpt>
      <trkpt lat="31.09147" lon="-7.91513">
        <ele>2547.75</ele>
        <time>2018-06-19T10:45:59Z</time>
      </trkpt>
      <trkpt lat="31.0912" lon="-7.91503">
        <ele>2555.82</ele>
        <time>2018-06-19T10:46:59Z</time>
      </trkpt>
      <trkpt lat="31.0909" lon="-7.91492">
        <ele>2562.21</ele>
        <time>2018-06-19T10:47:59Z</time>
      </trkpt>
      <trkpt lat="31.09056" lon="-7.91496">
        <ele>2564.1</ele>
        <time>2018-06-19T10:48:59Z</time>
      </trkpt>
      <trkpt lat="31.09022" lon="-7.91481">
        <ele>2570.74</ele>
        <time>2018-06-19T10:49:59Z</time>
      </trkpt>
      <trkpt lat="31.08987" lon="-7.9148">
        <ele>2573.3</ele>
        <time>2018-06-19T10:50:59Z</time>
      </trkpt>
      <trkpt lat="31.08959" lon="-7.91485">
        <ele>2582.49</ele>
        <time>2018-06-19T10:51:59Z</time>
      </trkpt>
      <trkpt lat="31.08934" lon="-7.91502">
        <ele>2587.66</ele>
        <time>2018-06-19T10:52:59Z</time>
      </trkpt>
      <trkpt lat="31.08905" lon="-7.91518">
        <ele>2594.37</ele>
        <time>2018-06-19T10:53:59Z</time>
      </trkpt>
      <trkpt lat="31.08883" lon="-7.91538">
        <ele>2602.25</ele>
        <time>2018-06-19T10:54:59Z</time>
      </trkpt>
      <trkpt lat="31.08879" lon="-7.91538">
        <ele>2601.89</ele>
        <time>2018-06-19T10:55:59Z</time>
      </trkpt>
      <trkpt lat="31.08877" lon="-7.91539">
        <ele>2600.41</ele>
        <time>2018-06-19T10:56:59Z</time>
      </trkpt>
      <trkpt lat="31.08859" lon="-7.91555">
        <ele>2604.73</ele>
        <time>2018-06-19T10:57:59Z</time>
      </trkpt>
      <trkpt lat="31.08833" lon="-7.91577">
        <ele>2613.24</ele>
        <time>2018-06-19T10:58:59Z</time>
      </trkpt>
      <trkpt lat="31.0881" lon="-7.91604">
        <ele>2621.67</ele>
        <time>2018-06-19T10:59:59Z</time>
      </trkpt>
      <trkpt lat="31.08788" lon="-7.91627">
        <ele>2623.66</ele>
        <time>2018-06-19T11:00:59Z</time>
      </trkpt>
      <trkpt lat="31.08768" lon="-7.91648">
        <ele>2633.84</ele>
        <time>2018-06-19T11:01:59Z</time>
      </trkpt>
      <trkpt lat="31.0874" lon="-7.91666">
        <ele>2639.21</ele>
        <time>2018-06-19T11:02:59Z</time>
      </trkpt>
      <trkpt lat="31.08714" lon="-7.91685">
        <ele>2644.92</ele>
        <time>2018-06-19T11:03:59Z</time>
      </trkpt>
      <trkpt lat="31.08686" lon="-7.9171">
        <ele>2651.57</ele>
        <time>2018-06-19T11:04:59Z</time>
      </trkpt>
      <trkpt lat="31.08664" lon="-7.91714">
        <ele>2654.39</ele>
        <time>2018-06-19T11:05:59Z</time>
      </trkpt>
      <trkpt lat="31.08646" lon="-7.91754">
        <ele>2651.26</ele>
        <time>2018-06-19T11:06:59Z</time>
      </trkpt>
      <trkpt lat="31.08643" lon="-7.91757">
        <ele>2653.7</ele>
        <time>2018-06-19T11:07:59Z</time>
      </trkpt>
      <trkpt lat="31.08637" lon="-7.91761">
        <ele>2655.33</ele>
        <time>2018-06-19T11:08:59Z</time>
      </trkpt>
      <trkpt lat="31.08637" lon="-7.91763">
        <ele>2655.11</ele>
        <time>2018-06-19T11:09:59Z</time>
      </trkpt>
      <trkpt lat="31.08635" lon="-7.91764">
        <ele>2656.49</ele>
        <time>2018-06-19T11:10:59Z</time>
      </trkpt>
      <trkpt lat="31.08634" lon="-7.91763">
        <ele>2656.63</ele>
        <time>2018-06-19T11:11:59Z</time>
      </trkpt>
      <trkpt lat="31.08639" lon="-7.91762">
        <ele>2656.16</ele>
        <time>2018-06-19T11:12:59Z</time>
      </trkpt>
      <trkpt lat="31.08632" lon="-7.91767">
        <ele>2656.3</ele>
        <time>2018-06-19T11:13:59Z</time>
      </trkpt>
      <trkpt lat="31.08633" lon="-7.91772">
        <ele>2656.82</ele>
        <time>2018-06-19T11:14:59Z</time>
      </trkpt>
      <trkpt lat="31.08632" lon="-7.9177">
        <ele>2656.59</ele>
        <time>2018-06-19T11:15:59Z</time>
      </trkpt>
      <trkpt lat="31.08634" lon="-7.91769">
        <ele>2655.65</ele>
        <time>2018-06-19T11:16:59Z</time>
      </trkpt>
      <trkpt lat="31.08633" lon="-7.91772">
        <ele>2651.03</ele>
        <time>2018-06-19T11:17:59Z</time>
      </trkpt>
      <trkpt lat="31.08625" lon="-7.91781">
        <ele>2656.49</ele>
        <time>2018-06-19T11:18:59Z</time>
      </trkpt>
      <trkpt lat="31.08609" lon="-7.91802">
        <ele>2658.57</ele>
        <time>2018-06-19T11:19:59Z</time>
      </trkpt>
      <trkpt lat="31.08589" lon="-7.91833">
        <ele>2661.09</ele>
        <time>2018-06-19T11:20:59Z</time>
      </trkpt>
      <trkpt lat="31.08567" lon="-7.91859">
        <ele>2669.51</ele>
        <time>2018-06-19T11:21:59Z</time>
      </trkpt>
      <trkpt lat="31.0855" lon="-7.91893">
        <ele>2677.66</ele>
        <time>2018-06-19T11:22:59Z</time>
      </trkpt>
      <trkpt lat="31.08539" lon="-7.91928">
        <ele>2686.22</ele>
        <time>2018-06-19T11:23:59Z</time>
      </trkpt>
      <trkpt lat="31.08525" lon="-7.91963">
        <ele>2694.01</ele>
        <time>2018-06-19T11:24:59Z</time>
      </trkpt>
      <trkpt lat="31.08515" lon="-7.91988">
        <ele>2690.86</ele>
        <time>2018-06-19T11:25:59Z</time>
      </trkpt>
      <trkpt lat="31.08503" lon="-7.92023">
        <ele>2702.68</ele>
        <time>2018-06-19T11:26:59Z</time>
      </trkpt>
      <trkpt lat="31.08493" lon="-7.92059">
        <ele>2703.89</ele>
        <time>2018-06-19T11:27:59Z</time>
      </trkpt>
      <trkpt lat="31.08501" lon="-7.92094">
        <ele>2714.76</ele>
        <time>2018-06-19T11:29:01Z</time>
      </trkpt>
      <trkpt lat="31.08502" lon="-7.9213">
        <ele>2720.74</ele>
        <time>2018-06-19T11:30:01Z</time>
      </trkpt>
      <trkpt lat="31.08503" lon="-7.92136">
        <ele>2722.22</ele>
        <time>2018-06-19T11:31:01Z</time>
      </trkpt>
      <trkpt lat="31.08505" lon="-7.9217">
        <ele>2727.6</ele>
        <time>2018-06-19T11:32:01Z</time>
      </trkpt>
      <trkpt lat="31.08502" lon="-7.92206">
        <ele>2733.73</ele>
        <time>2018-06-19T11:33:01Z</time>
      </trkpt>
      <trkpt lat="31.08503" lon="-7.92239">
        <ele>2742.18</ele>
        <time>2018-06-19T11:34:01Z</time>
      </trkpt>
      <trkpt lat="31.08505" lon="-7.92275">
        <ele>2744.49</ele>
        <time>2018-06-19T11:35:01Z</time>
      </trkpt>
      <trkpt lat="31.08497" lon="-7.92317">
        <ele>2754.84</ele>
        <time>2018-06-19T11:36:01Z</time>
      </trkpt>
      <trkpt lat="31.08483" lon="-7.92348">
        <ele>2760.23</ele>
        <time>2018-06-19T11:37:01Z</time>
      </trkpt>
      <trkpt lat="31.08463" lon="-7.92385">
        <ele>2763.33</ele>
        <time>2018-06-19T11:38:01Z</time>
      </trkpt>
      <trkpt lat="31.08449" lon="-7.92423">
        <ele>2768.91</ele>
        <time>2018-06-19T11:39:01Z</time>
      </trkpt>
      <trkpt lat="31.08449" lon="-7.92461">
        <ele>2773.65</ele>
        <time>2018-06-19T11:40:01Z</time>
      </trkpt>
      <trkpt lat="31.0845" lon="-7.925">
        <ele>2779.65</ele>
        <time>2018-06-19T11:41:01Z</time>
      </trkpt>
      <trkpt lat="31.0845" lon="-7.92522">
        <ele>2781.8</ele>
        <time>2018-06-19T11:42:01Z</time>
      </trkpt>
      <trkpt lat="31.08444" lon="-7.92545">
        <ele>2785.02</ele>
        <time>2018-06-19T11:43:01Z</time>
      </trkpt>
      <trkpt lat="31.08426" lon="-7.92585">
        <ele>2791.45</ele>
        <time>2018-06-19T11:44:01Z</time>
      </trkpt>
      <trkpt lat="31.08399" lon="-7.92605">
        <ele>2797.67</ele>
        <time>2018-06-19T11:45:01Z</time>
      </trkpt>
      <trkpt lat="31.08371" lon="-7.92629">
        <ele>2805.08</ele>
        <time>2018-06-19T11:46:01Z</time>
      </trkpt>
      <trkpt lat="31.08366" lon="-7.92627">
        <ele>2804.97</ele>
        <time>2018-06-19T11:47:01Z</time>
      </trkpt>
      <trkpt lat="31.08345" lon="-7.92648">
        <ele>2807.71</ele>
        <time>2018-06-19T11:48:01Z</time>
      </trkpt>
      <trkpt lat="31.08316" lon="-7.92669">
        <ele>2813.81</ele>
        <time>2018-06-19T11:49:01Z</time>
      </trkpt>
      <trkpt lat="31.08284" lon="-7.92687">
        <ele>2819.12</ele>
        <time>2018-06-19T11:50:01Z</time>
      </trkpt>
      <trkpt lat="31.08261" lon="-7.92703">
        <ele>2825.48</ele>
        <time>2018-06-19T11:51:01Z</time>
      </trkpt>
      <trkpt lat="31.08229" lon="-7.92708">
        <ele>2832.61</ele>
        <time>2018-06-19T11:52:02Z</time>
      </trkpt>
      <trkpt lat="31.08202" lon="-7.92733">
        <ele>2839.47</ele>
        <time>2018-06-19T11:53:02Z</time>
      </trkpt>
      <trkpt lat="31.08173" lon="-7.92743">
        <ele>2844.95</ele>
        <time>2018-06-19T11:54:03Z</time>
      </trkpt>
      <trkpt lat="31.08152" lon="-7.92767">
        <ele>2850.83</ele>
        <time>2018-06-19T11:55:03Z</time>
      </trkpt>
      <trkpt lat="31.08133" lon="-7.92797">
        <ele>2856.38</ele>
        <time>2018-06-19T11:56:03Z</time>
      </trkpt>
      <trkpt lat="31.08128" lon="-7.92798">
        <ele>2859.17</ele>
        <time>2018-06-19T11:57:03Z</time>
      </trkpt>
      <trkpt lat="31.08137" lon="-7.92797">
        <ele>2862.86</ele>
        <time>2018-06-19T11:58:03Z</time>
      </trkpt>
      <trkpt lat="31.08141" lon="-7.92796">
        <ele>2862.69</ele>
        <time>2018-06-19T11:59:03Z</time>
      </trkpt>
      <trkpt lat="31.08131" lon="-7.92806">
        <ele>2860.25</ele>
        <time>2018-06-19T12:00:03Z</time>
      </trkpt>
      <trkpt lat="31.08132" lon="-7.92795">
        <ele>2857.82</ele>
        <time>2018-06-19T12:01:03Z</time>
      </trkpt>
      <trkpt lat="31.08123" lon="-7.92818">
        <ele>2858.91</ele>
        <time>2018-06-19T12:02:03Z</time>
      </trkpt>
      <trkpt lat="31.08128" lon="-7.92827">
        <ele>2864.35</ele>
        <time>2018-06-19T12:03:03Z</time>
      </trkpt>
      <trkpt lat="31.08127" lon="-7.92831">
        <ele>2864.51</ele>
        <time>2018-06-19T12:04:03Z</time>
      </trkpt>
      <trkpt lat="31.08126" lon="-7.92847">
        <ele>2867.3</ele>
        <time>2018-06-19T12:05:03Z</time>
      </trkpt>
      <trkpt lat="31.08117" lon="-7.92883">
        <ele>2872.72</ele>
        <time>2018-06-19T12:06:03Z</time>
      </trkpt>
      <trkpt lat="31.08089" lon="-7.92911">
        <ele>2877.08</ele>
        <time>2018-06-19T12:07:03Z</time>
      </trkpt>
      <trkpt lat="31.08061" lon="-7.92942">
        <ele>2881.23</ele>
        <time>2018-06-19T12:08:03Z</time>
      </trkpt>
      <trkpt lat="31.08023" lon="-7.92957">
        <ele>2884.69</ele>
        <time>2018-06-19T12:09:03Z</time>
      </trkpt>
      <trkpt lat="31.07998" lon="-7.92989">
        <ele>2889.58</ele>
        <time>2018-06-19T12:10:03Z</time>
      </trkpt>
      <trkpt lat="31.07973" lon="-7.92992">
        <ele>2894.27</ele>
        <time>2018-06-19T12:11:03Z</time>
      </trkpt>
      <trkpt lat="31.07956" lon="-7.92965">
        <ele>2895.06</ele>
        <time>2018-06-19T12:12:03Z</time>
      </trkpt>
      <trkpt lat="31.07919" lon="-7.92973">
        <ele>2900.04</ele>
        <time>2018-06-19T12:13:03Z</time>
      </trkpt>
      <trkpt lat="31.07889" lon="-7.92995">
        <ele>2902.66</ele>
        <time>2018-06-19T12:14:03Z</time>
      </trkpt>
      <trkpt lat="31.07877" lon="-7.93005">
        <ele>2909.07</ele>
        <time>2018-06-19T12:15:03Z</time>
      </trkpt>
      <trkpt lat="31.07816" lon="-7.93037">
        <ele>2913.82</ele>
        <time>2018-06-19T12:16:03Z</time>
      </trkpt>
      <trkpt lat="31.07786" lon="-7.93061">
        <ele>2918.58</ele>
        <time>2018-06-19T12:17:03Z</time>
      </trkpt>
      <trkpt lat="31.07749" lon="-7.93076">
        <ele>2923.67</ele>
        <time>2018-06-19T12:18:03Z</time>
      </trkpt>
      <trkpt lat="31.07712" lon="-7.93098">
        <ele>2928.76</ele>
        <time>2018-06-19T12:19:03Z</time>
      </trkpt>
      <trkpt lat="31.07672" lon="-7.93119">
        <ele>2933.47</ele>
        <time>2018-06-19T12:20:03Z</time>
      </trkpt>
      <trkpt lat="31.07638" lon="-7.93148">
        <ele>2938.65</ele>
        <time>2018-06-19T12:21:03Z</time>
      </trkpt>
      <trkpt lat="31.07589" lon="-7.9316">
        <ele>2943.78</ele>
        <time>2018-06-19T12:22:03Z</time>
      </trkpt>
      <trkpt lat="31.07558" lon="-7.93197">
        <ele>2947.45</ele>
        <time>2018-06-19T12:23:03Z</time>
      </trkpt>
      <trkpt lat="31.0753" lon="-7.93212">
        <ele>2952.05</ele>
        <time>2018-06-19T12:24:03Z</time>
      </trkpt>
      <trkpt lat="31.07502" lon="-7.93237">
        <ele>2957.75</ele>
        <time>2018-06-19T12:25:03Z</time>
      </trkpt>
      <trkpt lat="31.07479" lon="-7.93268">
        <ele>2962.07</ele>
        <time>2018-06-19T12:26:03Z</time>
      </trkpt>
      <trkpt lat="31.07444" lon="-7.93289">
        <ele>2967.24</ele>
        <time>2018-06-19T12:27:03Z</time>
      </trkpt>
      <trkpt lat="31.07413" lon="-7.93305">
        <ele>2972.13</ele>
        <time>2018-06-19T12:28:03Z</time>
      </trkpt>
      <trkpt lat="31.07374" lon="-7.93319">
        <ele>2978.33</ele>
        <time>2018-06-19T12:29:03Z</time>
      </trkpt>
      <trkpt lat="31.07349" lon="-7.93339">
        <ele>2982.33</ele>
        <time>2018-06-19T12:30:03Z</time>
      </trkpt>
      <trkpt lat="31.07322" lon="-7.93367">
        <ele>2985.96</ele>
        <time>2018-06-19T12:31:03Z</time>
      </trkpt>
      <trkpt lat="31.07321" lon="-7.93367">
        <ele>2986.38</ele>
        <time>2018-06-19T12:31:04Z</time>
      </trkpt>
      <trkpt lat="31.07294" lon="-7.93411">
        <ele>2987.96</ele>
        <time>2018-06-19T12:32:04Z</time>
      </trkpt>
      <trkpt lat="31.07279" lon="-7.93457">
        <ele>2993.49</ele>
        <time>2018-06-19T12:33:04Z</time>
      </trkpt>
      <trkpt lat="31.07237" lon="-7.93459">
        <ele>2995.18</ele>
        <time>2018-06-19T12:34:04Z</time>
      </trkpt>
      <trkpt lat="31.07205" lon="-7.93483">
        <ele>3000.45</ele>
        <time>2018-06-19T12:35:04Z</time>
      </trkpt>
      <trkpt lat="31.07164" lon="-7.93496">
        <ele>3004.23</ele>
        <time>2018-06-19T12:36:04Z</time>
      </trkpt>
      <trkpt lat="31.07118" lon="-7.93513">
        <ele>3009.59</ele>
        <time>2018-06-19T12:37:04Z</time>
      </trkpt>
      <trkpt lat="31.07078" lon="-7.93508">
        <ele>3014.4</ele>
        <time>2018-06-19T12:38:06Z</time>
      </trkpt>
      <trkpt lat="31.07049" lon="-7.9354">
        <ele>3017.14</ele>
        <time>2018-06-19T12:39:06Z</time>
      </trkpt>
      <trkpt lat="31.07003" lon="-7.93528">
        <ele>3021.74</ele>
        <time>2018-06-19T12:40:06Z</time>
      </trkpt>
      <trkpt lat="31.06968" lon="-7.93557">
        <ele>3024.72</ele>
        <time>2018-06-19T12:41:06Z</time>
      </trkpt>
      <trkpt lat="31.06937" lon="-7.93571">
        <ele>3030.27</ele>
        <time>2018-06-19T12:42:06Z</time>
      </trkpt>
      <trkpt lat="31.06908" lon="-7.93593">
        <ele>3034.35</ele>
        <time>2018-06-19T12:43:06Z</time>
      </trkpt>
      <trkpt lat="31.0688" lon="-7.93615">
        <ele>3040.76</ele>
        <time>2018-06-19T12:44:06Z</time>
      </trkpt>
      <trkpt lat="31.06861" lon="-7.93604">
        <ele>3043.96</ele>
        <time>2018-06-19T12:45:06Z</time>
      </trkpt>
      <trkpt lat="31.06861" lon="-7.93608">
        <ele>3042.5</ele>
        <time>2018-06-19T12:46:06Z</time>
      </trkpt>
      <trkpt lat="31.06859" lon="-7.93608">
        <ele>3044.04</ele>
        <time>2018-06-19T12:47:06Z</time>
      </trkpt>
      <trkpt lat="31.06858" lon="-7.93607">
        <ele>3043.05</ele>
        <time>2018-06-19T12:48:06Z</time>
      </trkpt>
      <trkpt lat="31.06854" lon="-7.93608">
        <ele>3042.51</ele>
        <time>2018-06-19T12:49:06Z</time>
      </trkpt>
      <trkpt lat="31.06853" lon="-7.93608">
        <ele>3043.51</ele>
        <time>2018-06-19T12:50:06Z</time>
      </trkpt>
      <trkpt lat="31.06854" lon="-7.93611">
        <ele>3043.17</ele>
        <time>2018-06-19T12:51:06Z</time>
      </trkpt>
      <trkpt lat="31.06836" lon="-7.93606">
        <ele>3045.74</ele>
        <time>2018-06-19T12:52:06Z</time>
      </trkpt>
      <trkpt lat="31.06804" lon="-7.93605">
        <ele>3052.3</ele>
        <time>2018-06-19T12:53:06Z</time>
      </trkpt>
      <trkpt lat="31.06762" lon="-7.93618">
        <ele>3051.93</ele>
        <time>2018-06-19T12:54:06Z</time>
      </trkpt>
      <trkpt lat="31.06721" lon="-7.93629">
        <ele>3055.45</ele>
        <time>2018-06-19T12:55:06Z</time>
      </trkpt>
      <trkpt lat="31.0668" lon="-7.93633">
        <ele>3058.61</ele>
        <time>2018-06-19T12:56:06Z</time>
      </trkpt>
      <trkpt lat="31.06663" lon="-7.93634">
        <ele>3060.04</ele>
        <time>2018-06-19T12:57:07Z</time>
      </trkpt>
      <trkpt lat="31.0663" lon="-7.93654">
        <ele>3064.97</ele>
        <time>2018-06-19T12:58:07Z</time>
      </trkpt>
      <trkpt lat="31.06588" lon="-7.93673">
        <ele>3066.86</ele>
        <time>2018-06-19T12:59:07Z</time>
      </trkpt>
      <trkpt lat="31.06552" lon="-7.93693">
        <ele>3071.26</ele>
        <time>2018-06-19T13:00:07Z</time>
      </trkpt>
      <trkpt lat="31.06535" lon="-7.93719">
        <ele>3076</ele>
        <time>2018-06-19T13:01:10Z</time>
      </trkpt>
      <trkpt lat="31.06525" lon="-7.93725">
        <ele>3079.91</ele>
        <time>2018-06-19T13:02:10Z</time>
      </trkpt>
      <trkpt lat="31.06499" lon="-7.93763">
        <ele>3083.97</ele>
        <time>2018-06-19T13:03:10Z</time>
      </trkpt>
      <trkpt lat="31.06468" lon="-7.93799">
        <ele>3090.99</ele>
        <time>2018-06-19T13:04:10Z</time>
      </trkpt>
      <trkpt lat="31.06426" lon="-7.93795">
        <ele>3095</ele>
        <time>2018-06-19T13:05:10Z</time>
      </trkpt>
      <trkpt lat="31.06388" lon="-7.93767">
        <ele>3101.11</ele>
        <time>2018-06-19T13:06:10Z</time>
      </trkpt>
      <trkpt lat="31.06357" lon="-7.93762">
        <ele>3109.47</ele>
        <time>2018-06-19T13:07:10Z</time>
      </trkpt>
      <trkpt lat="31.06354" lon="-7.93761">
        <ele>3110.55</ele>
        <time>2018-06-19T13:07:22Z</time>
      </trkpt>
    </trkseg>
  </trk>
  <trk>
    <name><![CDATA[2018-06-20 11:23:59]]></name>
    <trkseg>
      <trkpt lat="31.06348" lon="-7.93718">
        <ele>3215.53</ele>
        <time>2018-06-20T05:12:29Z</time>
      </trkpt>
      <trkpt lat="31.06379" lon="-7.93707">
        <ele>3215.93</ele>
        <time>2018-06-20T05:13:29Z</time>
      </trkpt>
      <trkpt lat="31.06351" lon="-7.93706">
        <ele>3215.61</ele>
        <time>2018-06-20T05:14:29Z</time>
      </trkpt>
      <trkpt lat="31.06339" lon="-7.93701">
        <ele>3218.68</ele>
        <time>2018-06-20T05:15:29Z</time>
      </trkpt>
      <trkpt lat="31.06326" lon="-7.93707">
        <ele>3224.94</ele>
        <time>2018-06-20T05:16:29Z</time>
      </trkpt>
      <trkpt lat="31.06311" lon="-7.9372">
        <ele>3232.18</ele>
        <time>2018-06-20T05:17:30Z</time>
      </trkpt>
      <trkpt lat="31.06285" lon="-7.93726">
        <ele>3239.35</ele>
        <time>2018-06-20T05:18:30Z</time>
      </trkpt>
      <trkpt lat="31.06268" lon="-7.93705">
        <ele>3245.3</ele>
        <time>2018-06-20T05:19:30Z</time>
      </trkpt>
      <trkpt lat="31.06252" lon="-7.93693">
        <ele>3251.8</ele>
        <time>2018-06-20T05:20:30Z</time>
      </trkpt>
      <trkpt lat="31.06232" lon="-7.93684">
        <ele>3258.42</ele>
        <time>2018-06-20T05:21:31Z</time>
      </trkpt>
      <trkpt lat="31.06217" lon="-7.93679">
        <ele>3264.72</ele>
        <time>2018-06-20T05:22:32Z</time>
      </trkpt>
      <trkpt lat="31.06205" lon="-7.93674">
        <ele>3271.75</ele>
        <time>2018-06-20T05:23:32Z</time>
      </trkpt>
      <trkpt lat="31.0619" lon="-7.93672">
        <ele>3277.63</ele>
        <time>2018-06-20T05:24:32Z</time>
      </trkpt>
      <trkpt lat="31.0617" lon="-7.93679">
        <ele>3284.53</ele>
        <time>2018-06-20T05:25:32Z</time>
      </trkpt>
      <trkpt lat="31.06145" lon="-7.93657">
        <ele>3289.31</ele>
        <time>2018-06-20T05:26:33Z</time>
      </trkpt>
      <trkpt lat="31.06143" lon="-7.93632">
        <ele>3294.64</ele>
        <time>2018-06-20T05:27:33Z</time>
      </trkpt>
      <trkpt lat="31.06141" lon="-7.93628">
        <ele>3296.97</ele>
        <time>2018-06-20T05:28:33Z</time>
      </trkpt>
      <trkpt lat="31.06139" lon="-7.93627">
        <ele>3296.52</ele>
        <time>2018-06-20T05:29:33Z</time>
      </trkpt>
      <trkpt lat="31.06138" lon="-7.93626">
        <ele>3297.01</ele>
        <time>2018-06-20T05:30:33Z</time>
      </trkpt>
      <trkpt lat="31.06138" lon="-7.93628">
        <ele>3297.08</ele>
        <time>2018-06-20T05:31:33Z</time>
      </trkpt>
      <trkpt lat="31.06139" lon="-7.9362">
        <ele>3298.15</ele>
        <time>2018-06-20T05:32:33Z</time>
      </trkpt>
      <trkpt lat="31.06153" lon="-7.93581">
        <ele>3304.94</ele>
        <time>2018-06-20T05:33:34Z</time>
      </trkpt>
      <trkpt lat="31.06144" lon="-7.93573">
        <ele>3311.69</ele>
        <time>2018-06-20T05:34:34Z</time>
      </trkpt>
      <trkpt lat="31.06155" lon="-7.93552">
        <ele>3317.31</ele>
        <time>2018-06-20T05:35:34Z</time>
      </trkpt>
      <trkpt lat="31.06159" lon="-7.93541">
        <ele>3322.55</ele>
        <time>2018-06-20T05:36:34Z</time>
      </trkpt>
      <trkpt lat="31.06165" lon="-7.93533">
        <ele>3325.93</ele>
        <time>2018-06-20T05:37:34Z</time>
      </trkpt>
      <trkpt lat="31.06169" lon="-7.93514">
        <ele>3332.64</ele>
        <time>2018-06-20T05:38:34Z</time>
      </trkpt>
      <trkpt lat="31.06172" lon="-7.935">
        <ele>3338.18</ele>
        <time>2018-06-20T05:39:34Z</time>
      </trkpt>
      <trkpt lat="31.06177" lon="-7.93489">
        <ele>3343.06</ele>
        <time>2018-06-20T05:40:34Z</time>
      </trkpt>
      <trkpt lat="31.06187" lon="-7.93471">
        <ele>3348.29</ele>
        <time>2018-06-20T05:41:34Z</time>
      </trkpt>
      <trkpt lat="31.06188" lon="-7.9346">
        <ele>3353.12</ele>
        <time>2018-06-20T05:42:34Z</time>
      </trkpt>
      <trkpt lat="31.06191" lon="-7.93455">
        <ele>3357.35</ele>
        <time>2018-06-20T05:43:35Z</time>
      </trkpt>
      <trkpt lat="31.06188" lon="-7.9344">
        <ele>3363.2</ele>
        <time>2018-06-20T05:44:35Z</time>
      </trkpt>
      <trkpt lat="31.06187" lon="-7.93433">
        <ele>3367.2</ele>
        <time>2018-06-20T05:45:35Z</time>
      </trkpt>
      <trkpt lat="31.06193" lon="-7.93416">
        <ele>3370.67</ele>
        <time>2018-06-20T05:46:35Z</time>
      </trkpt>
      <trkpt lat="31.06197" lon="-7.93402">
        <ele>3375.31</ele>
        <time>2018-06-20T05:47:35Z</time>
      </trkpt>
      <trkpt lat="31.06211" lon="-7.93399">
        <ele>3380.45</ele>
        <time>2018-06-20T05:48:35Z</time>
      </trkpt>
      <trkpt lat="31.06217" lon="-7.93389">
        <ele>3385.5</ele>
        <time>2018-06-20T05:49:35Z</time>
      </trkpt>
      <trkpt lat="31.06224" lon="-7.93385">
        <ele>3389.51</ele>
        <time>2018-06-20T05:50:35Z</time>
      </trkpt>
      <trkpt lat="31.06221" lon="-7.93385">
        <ele>3389.79</ele>
        <time>2018-06-20T05:51:35Z</time>
      </trkpt>
      <trkpt lat="31.06221" lon="-7.93385">
        <ele>3389.44</ele>
        <time>2018-06-20T05:52:35Z</time>
      </trkpt>
      <trkpt lat="31.06224" lon="-7.93377">
        <ele>3391.65</ele>
        <time>2018-06-20T05:53:35Z</time>
      </trkpt>
      <trkpt lat="31.0623" lon="-7.93368">
        <ele>3395.77</ele>
        <time>2018-06-20T05:54:35Z</time>
      </trkpt>
      <trkpt lat="31.06249" lon="-7.9334">
        <ele>3402.53</ele>
        <time>2018-06-20T05:55:35Z</time>
      </trkpt>
      <trkpt lat="31.06254" lon="-7.93323">
        <ele>3408.18</ele>
        <time>2018-06-20T05:56:37Z</time>
      </trkpt>
      <trkpt lat="31.0626" lon="-7.93297">
        <ele>3414.35</ele>
        <time>2018-06-20T05:57:37Z</time>
      </trkpt>
      <trkpt lat="31.06269" lon="-7.93275">
        <ele>3419.56</ele>
        <time>2018-06-20T05:58:37Z</time>
      </trkpt>
      <trkpt lat="31.06263" lon="-7.93264">
        <ele>3425.42</ele>
        <time>2018-06-20T05:59:37Z</time>
      </trkpt>
      <trkpt lat="31.06251" lon="-7.93254">
        <ele>3430.83</ele>
        <time>2018-06-20T06:00:37Z</time>
      </trkpt>
      <trkpt lat="31.06241" lon="-7.93244">
        <ele>3436.4</ele>
        <time>2018-06-20T06:01:37Z</time>
      </trkpt>
      <trkpt lat="31.06227" lon="-7.93231">
        <ele>3442.55</ele>
        <time>2018-06-20T06:02:37Z</time>
      </trkpt>
      <trkpt lat="31.06207" lon="-7.93223">
        <ele>3447.92</ele>
        <time>2018-06-20T06:03:37Z</time>
      </trkpt>
      <trkpt lat="31.06188" lon="-7.93229">
        <ele>3453.89</ele>
        <time>2018-06-20T06:04:38Z</time>
      </trkpt>
      <trkpt lat="31.06171" lon="-7.93233">
        <ele>3458.04</ele>
        <time>2018-06-20T06:05:38Z</time>
      </trkpt>
      <trkpt lat="31.06159" lon="-7.9323">
        <ele>3462.52</ele>
        <time>2018-06-20T06:06:38Z</time>
      </trkpt>
      <trkpt lat="31.06155" lon="-7.93211">
        <ele>3468.96</ele>
        <time>2018-06-20T06:07:38Z</time>
      </trkpt>
      <trkpt lat="31.06167" lon="-7.93189">
        <ele>3474.59</ele>
        <time>2018-06-20T06:08:38Z</time>
      </trkpt>
      <trkpt lat="31.06169" lon="-7.93174">
        <ele>3480.04</ele>
        <time>2018-06-20T06:09:38Z</time>
      </trkpt>
      <trkpt lat="31.0617" lon="-7.93154">
        <ele>3487.29</ele>
        <time>2018-06-20T06:10:38Z</time>
      </trkpt>
      <trkpt lat="31.06165" lon="-7.93135">
        <ele>3493.27</ele>
        <time>2018-06-20T06:11:38Z</time>
      </trkpt>
      <trkpt lat="31.06167" lon="-7.93122">
        <ele>3498.37</ele>
        <time>2018-06-20T06:12:38Z</time>
      </trkpt>
      <trkpt lat="31.06168" lon="-7.93103">
        <ele>3504.71</ele>
        <time>2018-06-20T06:13:38Z</time>
      </trkpt>
      <trkpt lat="31.06167" lon="-7.93086">
        <ele>3510.22</ele>
        <time>2018-06-20T06:14:38Z</time>
      </trkpt>
      <trkpt lat="31.06155" lon="-7.93077">
        <ele>3514.95</ele>
        <time>2018-06-20T06:15:39Z</time>
      </trkpt>
      <trkpt lat="31.06154" lon="-7.93064">
        <ele>3519.42</ele>
        <time>2018-06-20T06:16:39Z</time>
      </trkpt>
      <trkpt lat="31.06146" lon="-7.9305">
        <ele>3525.39</ele>
        <time>2018-06-20T06:17:39Z</time>
      </trkpt>
      <trkpt lat="31.06142" lon="-7.93041">
        <ele>3530.67</ele>
        <time>2018-06-20T06:18:39Z</time>
      </trkpt>
      <trkpt lat="31.06137" lon="-7.9304">
        <ele>3536.07</ele>
        <time>2018-06-20T06:19:42Z</time>
      </trkpt>
      <trkpt lat="31.06127" lon="-7.93023">
        <ele>3541.82</ele>
        <time>2018-06-20T06:20:42Z</time>
      </trkpt>
      <trkpt lat="31.0612" lon="-7.93008">
        <ele>3547.73</ele>
        <time>2018-06-20T06:21:42Z</time>
      </trkpt>
      <trkpt lat="31.06112" lon="-7.93002">
        <ele>3552.5</ele>
        <time>2018-06-20T06:22:42Z</time>
      </trkpt>
      <trkpt lat="31.06106" lon="-7.9299">
        <ele>3558.62</ele>
        <time>2018-06-20T06:23:42Z</time>
      </trkpt>
      <trkpt lat="31.06095" lon="-7.92976">
        <ele>3564.12</ele>
        <time>2018-06-20T06:24:42Z</time>
      </trkpt>
      <trkpt lat="31.0609" lon="-7.92967">
        <ele>3569.96</ele>
        <time>2018-06-20T06:25:42Z</time>
      </trkpt>
      <trkpt lat="31.06093" lon="-7.92952">
        <ele>3576.19</ele>
        <time>2018-06-20T06:26:42Z</time>
      </trkpt>
      <trkpt lat="31.06092" lon="-7.92941">
        <ele>3580.96</ele>
        <time>2018-06-20T06:27:42Z</time>
      </trkpt>
      <trkpt lat="31.06083" lon="-7.92929">
        <ele>3586.29</ele>
        <time>2018-06-20T06:28:42Z</time>
      </trkpt>
      <trkpt lat="31.06087" lon="-7.92919">
        <ele>3590.71</ele>
        <time>2018-06-20T06:29:42Z</time>
      </trkpt>
      <trkpt lat="31.06078" lon="-7.92899">
        <ele>3597.28</ele>
        <time>2018-06-20T06:30:43Z</time>
      </trkpt>
      <trkpt lat="31.06069" lon="-7.92887">
        <ele>3602.6</ele>
        <time>2018-06-20T06:31:43Z</time>
      </trkpt>
      <trkpt lat="31.06064" lon="-7.92868">
        <ele>3606.87</ele>
        <time>2018-06-20T06:32:43Z</time>
      </trkpt>
      <trkpt lat="31.06057" lon="-7.92862">
        <ele>3612.78</ele>
        <time>2018-06-20T06:33:43Z</time>
      </trkpt>
      <trkpt lat="31.06058" lon="-7.92848">
        <ele>3617.68</ele>
        <time>2018-06-20T06:34:44Z</time>
      </trkpt>
      <trkpt lat="31.06058" lon="-7.92834">
        <ele>3621.27</ele>
        <time>2018-06-20T06:35:44Z</time>
      </trkpt>
      <trkpt lat="31.06065" lon="-7.92824">
        <ele>3624.31</ele>
        <time>2018-06-20T06:36:44Z</time>
      </trkpt>
      <trkpt lat="31.06066" lon="-7.92828">
        <ele>3624.69</ele>
        <time>2018-06-20T06:37:45Z</time>
      </trkpt>
      <trkpt lat="31.06059" lon="-7.92833">
        <ele>3623.52</ele>
        <time>2018-06-20T06:38:45Z</time>
      </trkpt>
      <trkpt lat="31.06057" lon="-7.92831">
        <ele>3622.75</ele>
        <time>2018-06-20T06:39:45Z</time>
      </trkpt>
      <trkpt lat="31.0606" lon="-7.92831">
        <ele>3622.52</ele>
        <time>2018-06-20T06:40:45Z</time>
      </trkpt>
      <trkpt lat="31.06062" lon="-7.92836">
        <ele>3622.44</ele>
        <time>2018-06-20T06:41:45Z</time>
      </trkpt>
      <trkpt lat="31.06038" lon="-7.92843">
        <ele>3622.64</ele>
        <time>2018-06-20T06:42:46Z</time>
      </trkpt>
      <trkpt lat="31.06058" lon="-7.92832">
        <ele>3622.62</ele>
        <time>2018-06-20T06:43:46Z</time>
      </trkpt>
      <trkpt lat="31.06058" lon="-7.92832">
        <ele>3622.64</ele>
        <time>2018-06-20T06:44:46Z</time>
      </trkpt>
      <trkpt lat="31.06059" lon="-7.92831">
        <ele>3622.65</ele>
        <time>2018-06-20T06:45:46Z</time>
      </trkpt>
      <trkpt lat="31.0606" lon="-7.92831">
        <ele>3622.42</ele>
        <time>2018-06-20T06:46:46Z</time>
      </trkpt>
      <trkpt lat="31.06057" lon="-7.92833">
        <ele>3622.61</ele>
        <time>2018-06-20T06:47:46Z</time>
      </trkpt>
      <trkpt lat="31.06058" lon="-7.9283">
        <ele>3622.61</ele>
        <time>2018-06-20T06:48:46Z</time>
      </trkpt>
      <trkpt lat="31.06057" lon="-7.92831">
        <ele>3622.72</ele>
        <time>2018-06-20T06:49:47Z</time>
      </trkpt>
      <trkpt lat="31.06059" lon="-7.92831">
        <ele>3622.6</ele>
        <time>2018-06-20T06:50:47Z</time>
      </trkpt>
      <trkpt lat="31.0606" lon="-7.92834">
        <ele>3622.36</ele>
        <time>2018-06-20T06:51:47Z</time>
      </trkpt>
      <trkpt lat="31.06053" lon="-7.92832">
        <ele>3623.25</ele>
        <time>2018-06-20T06:52:47Z</time>
      </trkpt>
      <trkpt lat="31.06057" lon="-7.92816">
        <ele>3627.94</ele>
        <time>2018-06-20T06:53:47Z</time>
      </trkpt>
      <trkpt lat="31.06048" lon="-7.92785">
        <ele>3633.81</ele>
        <time>2018-06-20T06:54:47Z</time>
      </trkpt>
      <trkpt lat="31.06049" lon="-7.9276">
        <ele>3639.15</ele>
        <time>2018-06-20T06:55:47Z</time>
      </trkpt>
      <trkpt lat="31.06046" lon="-7.92741">
        <ele>3644.47</ele>
        <time>2018-06-20T06:56:47Z</time>
      </trkpt>
      <trkpt lat="31.0605" lon="-7.92721">
        <ele>3650.3</ele>
        <time>2018-06-20T06:57:47Z</time>
      </trkpt>
      <trkpt lat="31.06042" lon="-7.927">
        <ele>3655.76</ele>
        <time>2018-06-20T06:58:47Z</time>
      </trkpt>
      <trkpt lat="31.06022" lon="-7.92685">
        <ele>3660.1</ele>
        <time>2018-06-20T06:59:47Z</time>
      </trkpt>
      <trkpt lat="31.06006" lon="-7.92667">
        <ele>3666.35</ele>
        <time>2018-06-20T07:00:47Z</time>
      </trkpt>
      <trkpt lat="31.06001" lon="-7.92648">
        <ele>3672.91</ele>
        <time>2018-06-20T07:01:47Z</time>
      </trkpt>
      <trkpt lat="31.06004" lon="-7.9263">
        <ele>3677.86</ele>
        <time>2018-06-20T07:02:47Z</time>
      </trkpt>
      <trkpt lat="31.06002" lon="-7.92611">
        <ele>3683.89</ele>
        <time>2018-06-20T07:03:47Z</time>
      </trkpt>
      <trkpt lat="31.05993" lon="-7.92595">
        <ele>3689.81</ele>
        <time>2018-06-20T07:04:47Z</time>
      </trkpt>
      <trkpt lat="31.05985" lon="-7.92601">
        <ele>3695.54</ele>
        <time>2018-06-20T07:05:47Z</time>
      </trkpt>
      <trkpt lat="31.0598" lon="-7.92565">
        <ele>3701.26</ele>
        <time>2018-06-20T07:06:47Z</time>
      </trkpt>
      <trkpt lat="31.0597" lon="-7.92562">
        <ele>3706.62</ele>
        <time>2018-06-20T07:07:47Z</time>
      </trkpt>
      <trkpt lat="31.05966" lon="-7.92539">
        <ele>3711.37</ele>
        <time>2018-06-20T07:08:47Z</time>
      </trkpt>
      <trkpt lat="31.05962" lon="-7.92522">
        <ele>3717.33</ele>
        <time>2018-06-20T07:09:47Z</time>
      </trkpt>
      <trkpt lat="31.05959" lon="-7.92504">
        <ele>3723.24</ele>
        <time>2018-06-20T07:10:47Z</time>
      </trkpt>
      <trkpt lat="31.05961" lon="-7.92495">
        <ele>3726.83</ele>
        <time>2018-06-20T07:11:47Z</time>
      </trkpt>
      <trkpt lat="31.05962" lon="-7.92492">
        <ele>3726.2</ele>
        <time>2018-06-20T07:12:47Z</time>
      </trkpt>
      <trkpt lat="31.05966" lon="-7.92492">
        <ele>3727.55</ele>
        <time>2018-06-20T07:13:47Z</time>
      </trkpt>
      <trkpt lat="31.05964" lon="-7.9249">
        <ele>3727.06</ele>
        <time>2018-06-20T07:14:47Z</time>
      </trkpt>
      <trkpt lat="31.05967" lon="-7.92493">
        <ele>3727.09</ele>
        <time>2018-06-20T07:15:47Z</time>
      </trkpt>
      <trkpt lat="31.05976" lon="-7.92487">
        <ele>3727.89</ele>
        <time>2018-06-20T07:16:48Z</time>
      </trkpt>
      <trkpt lat="31.05977" lon="-7.92474">
        <ele>3733.45</ele>
        <time>2018-06-20T07:17:48Z</time>
      </trkpt>
      <trkpt lat="31.05975" lon="-7.92462">
        <ele>3738.34</ele>
        <time>2018-06-20T07:18:49Z</time>
      </trkpt>
      <trkpt lat="31.05966" lon="-7.92449">
        <ele>3743.87</ele>
        <time>2018-06-20T07:19:49Z</time>
      </trkpt>
      <trkpt lat="31.05956" lon="-7.92435">
        <ele>3749.89</ele>
        <time>2018-06-20T07:20:49Z</time>
      </trkpt>
      <trkpt lat="31.0594" lon="-7.92426">
        <ele>3756.51</ele>
        <time>2018-06-20T07:21:49Z</time>
      </trkpt>
      <trkpt lat="31.05921" lon="-7.92413">
        <ele>3763.05</ele>
        <time>2018-06-20T07:22:49Z</time>
      </trkpt>
      <trkpt lat="31.05918" lon="-7.92394">
        <ele>3769.64</ele>
        <time>2018-06-20T07:23:49Z</time>
      </trkpt>
      <trkpt lat="31.05912" lon="-7.92373">
        <ele>3774.18</ele>
        <time>2018-06-20T07:24:49Z</time>
      </trkpt>
      <trkpt lat="31.05903" lon="-7.92355">
        <ele>3779.37</ele>
        <time>2018-06-20T07:25:49Z</time>
      </trkpt>
      <trkpt lat="31.05885" lon="-7.92345">
        <ele>3783.46</ele>
        <time>2018-06-20T07:26:49Z</time>
      </trkpt>
      <trkpt lat="31.05878" lon="-7.92323">
        <ele>3789.94</ele>
        <time>2018-06-20T07:27:49Z</time>
      </trkpt>
      <trkpt lat="31.05876" lon="-7.92304">
        <ele>3792.87</ele>
        <time>2018-06-20T07:28:49Z</time>
      </trkpt>
      <trkpt lat="31.05875" lon="-7.92309">
        <ele>3793.41</ele>
        <time>2018-06-20T07:29:49Z</time>
      </trkpt>
      <trkpt lat="31.05875" lon="-7.92314">
        <ele>3793.98</ele>
        <time>2018-06-20T07:30:49Z</time>
      </trkpt>
      <trkpt lat="31.05879" lon="-7.92299">
        <ele>3795.59</ele>
        <time>2018-06-20T07:31:49Z</time>
      </trkpt>
      <trkpt lat="31.05872" lon="-7.92285">
        <ele>3801.49</ele>
        <time>2018-06-20T07:32:49Z</time>
      </trkpt>
      <trkpt lat="31.05859" lon="-7.92278">
        <ele>3808.06</ele>
        <time>2018-06-20T07:33:49Z</time>
      </trkpt>
      <trkpt lat="31.05844" lon="-7.92273">
        <ele>3814.42</ele>
        <time>2018-06-20T07:34:50Z</time>
      </trkpt>
      <trkpt lat="31.05832" lon="-7.92267">
        <ele>3820.25</ele>
        <time>2018-06-20T07:35:50Z</time>
      </trkpt>
      <trkpt lat="31.05833" lon="-7.92257">
        <ele>3824.93</ele>
        <time>2018-06-20T07:36:50Z</time>
      </trkpt>
      <trkpt lat="31.05817" lon="-7.92239">
        <ele>3829.79</ele>
        <time>2018-06-20T07:37:50Z</time>
      </trkpt>
      <trkpt lat="31.05809" lon="-7.92214">
        <ele>3835.8</ele>
        <time>2018-06-20T07:38:50Z</time>
      </trkpt>
      <trkpt lat="31.05811" lon="-7.92199">
        <ele>3841.06</ele>
        <time>2018-06-20T07:39:50Z</time>
      </trkpt>
      <trkpt lat="31.058" lon="-7.92182">
        <ele>3846.85</ele>
        <time>2018-06-20T07:40:51Z</time>
      </trkpt>
      <trkpt lat="31.058" lon="-7.92166">
        <ele>3852.71</ele>
        <time>2018-06-20T07:41:52Z</time>
      </trkpt>
      <trkpt lat="31.05801" lon="-7.92153">
        <ele>3858.16</ele>
        <time>2018-06-20T07:42:52Z</time>
      </trkpt>
      <trkpt lat="31.05789" lon="-7.92148">
        <ele>3863.37</ele>
        <time>2018-06-20T07:43:52Z</time>
      </trkpt>
      <trkpt lat="31.05791" lon="-7.92137">
        <ele>3867.11</ele>
        <time>2018-06-20T07:44:52Z</time>
      </trkpt>
      <trkpt lat="31.05791" lon="-7.92137">
        <ele>3870.75</ele>
        <time>2018-06-20T07:45:52Z</time>
      </trkpt>
      <trkpt lat="31.05785" lon="-7.92139">
        <ele>3871.77</ele>
        <time>2018-06-20T07:46:53Z</time>
      </trkpt>
      <trkpt lat="31.05778" lon="-7.92138">
        <ele>3876.42</ele>
        <time>2018-06-20T07:47:53Z</time>
      </trkpt>
      <trkpt lat="31.05771" lon="-7.92128">
        <ele>3882.3</ele>
        <time>2018-06-20T07:48:53Z</time>
      </trkpt>
      <trkpt lat="31.05763" lon="-7.92121">
        <ele>3886.53</ele>
        <time>2018-06-20T07:49:53Z</time>
      </trkpt>
      <trkpt lat="31.05758" lon="-7.92113">
        <ele>3890.77</ele>
        <time>2018-06-20T07:50:53Z</time>
      </trkpt>
      <trkpt lat="31.05763" lon="-7.92113">
        <ele>3894.48</ele>
        <time>2018-06-20T07:51:53Z</time>
      </trkpt>
      <trkpt lat="31.05742" lon="-7.92098">
        <ele>3900.41</ele>
        <time>2018-06-20T07:52:53Z</time>
      </trkpt>
      <trkpt lat="31.05736" lon="-7.92083">
        <ele>3905.52</ele>
        <time>2018-06-20T07:53:53Z</time>
      </trkpt>
      <trkpt lat="31.05725" lon="-7.92064">
        <ele>3912.18</ele>
        <time>2018-06-20T07:54:54Z</time>
      </trkpt>
      <trkpt lat="31.05722" lon="-7.92059">
        <ele>3912.73</ele>
        <time>2018-06-20T07:55:54Z</time>
      </trkpt>
      <trkpt lat="31.05722" lon="-7.92061">
        <ele>3912.62</ele>
        <time>2018-06-20T07:56:54Z</time>
      </trkpt>
      <trkpt lat="31.05721" lon="-7.92061">
        <ele>3913.13</ele>
        <time>2018-06-20T07:57:54Z</time>
      </trkpt>
      <trkpt lat="31.05716" lon="-7.92064">
        <ele>3913.34</ele>
        <time>2018-06-20T07:58:54Z</time>
      </trkpt>
      <trkpt lat="31.05717" lon="-7.92065">
        <ele>3913.46</ele>
        <time>2018-06-20T07:59:54Z</time>
      </trkpt>
      <trkpt lat="31.05718" lon="-7.92064">
        <ele>3913.26</ele>
        <time>2018-06-20T08:00:54Z</time>
      </trkpt>
      <trkpt lat="31.05718" lon="-7.92062">
        <ele>3913.67</ele>
        <time>2018-06-20T08:01:54Z</time>
      </trkpt>
      <trkpt lat="31.05717" lon="-7.92065">
        <ele>3913.48</ele>
        <time>2018-06-20T08:02:54Z</time>
      </trkpt>
      <trkpt lat="31.05718" lon="-7.92061">
        <ele>3913.38</ele>
        <time>2018-06-20T08:03:54Z</time>
      </trkpt>
      <trkpt lat="31.05719" lon="-7.92064">
        <ele>3912.37</ele>
        <time>2018-06-20T08:04:54Z</time>
      </trkpt>
      <trkpt lat="31.05718" lon="-7.92064">
        <ele>3912.22</ele>
        <time>2018-06-20T08:05:54Z</time>
      </trkpt>
      <trkpt lat="31.05716" lon="-7.92065">
        <ele>3913.55</ele>
        <time>2018-06-20T08:06:54Z</time>
      </trkpt>
      <trkpt lat="31.05719" lon="-7.92063">
        <ele>3913.67</ele>
        <time>2018-06-20T08:07:54Z</time>
      </trkpt>
      <trkpt lat="31.05717" lon="-7.92065">
        <ele>3912.79</ele>
        <time>2018-06-20T08:08:54Z</time>
      </trkpt>
      <trkpt lat="31.05717" lon="-7.92067">
        <ele>3913.78</ele>
        <time>2018-06-20T08:09:54Z</time>
      </trkpt>
      <trkpt lat="31.05716" lon="-7.92068">
        <ele>3912.97</ele>
        <time>2018-06-20T08:10:54Z</time>
      </trkpt>
      <trkpt lat="31.05718" lon="-7.92066">
        <ele>3913.05</ele>
        <time>2018-06-20T08:11:54Z</time>
      </trkpt>
      <trkpt lat="31.05716" lon="-7.92065">
        <ele>3913.11</ele>
        <time>2018-06-20T08:12:54Z</time>
      </trkpt>
      <trkpt lat="31.05718" lon="-7.92067">
        <ele>3912.85</ele>
        <time>2018-06-20T08:13:54Z</time>
      </trkpt>
      <trkpt lat="31.05716" lon="-7.92073">
        <ele>3913.79</ele>
        <time>2018-06-20T08:14:55Z</time>
      </trkpt>
      <trkpt lat="31.05707" lon="-7.92061">
        <ele>3916.35</ele>
        <time>2018-06-20T08:15:55Z</time>
      </trkpt>
      <trkpt lat="31.05692" lon="-7.92052">
        <ele>3922.3</ele>
        <time>2018-06-20T08:16:55Z</time>
      </trkpt>
      <trkpt lat="31.05682" lon="-7.92041">
        <ele>3927.15</ele>
        <time>2018-06-20T08:17:55Z</time>
      </trkpt>
      <trkpt lat="31.05674" lon="-7.92026">
        <ele>3931.87</ele>
        <time>2018-06-20T08:18:55Z</time>
      </trkpt>
      <trkpt lat="31.05671" lon="-7.9201">
        <ele>3936.94</ele>
        <time>2018-06-20T08:19:55Z</time>
      </trkpt>
      <trkpt lat="31.05658" lon="-7.92">
        <ele>3942.23</ele>
        <time>2018-06-20T08:20:55Z</time>
      </trkpt>
      <trkpt lat="31.05647" lon="-7.91986">
        <ele>3947.65</ele>
        <time>2018-06-20T08:21:55Z</time>
      </trkpt>
      <trkpt lat="31.05642" lon="-7.91966">
        <ele>3953.78</ele>
        <time>2018-06-20T08:22:55Z</time>
      </trkpt>
      <trkpt lat="31.05631" lon="-7.9195">
        <ele>3960.01</ele>
        <time>2018-06-20T08:23:55Z</time>
      </trkpt>
      <trkpt lat="31.05618" lon="-7.91939">
        <ele>3965.42</ele>
        <time>2018-06-20T08:24:55Z</time>
      </trkpt>
      <trkpt lat="31.05621" lon="-7.91914">
        <ele>3971.53</ele>
        <time>2018-06-20T08:25:55Z</time>
      </trkpt>
      <trkpt lat="31.0561" lon="-7.91899">
        <ele>3978.22</ele>
        <time>2018-06-20T08:26:55Z</time>
      </trkpt>
      <trkpt lat="31.05606" lon="-7.91879">
        <ele>3984.68</ele>
        <time>2018-06-20T08:27:55Z</time>
      </trkpt>
      <trkpt lat="31.0561" lon="-7.91858">
        <ele>3990.88</ele>
        <time>2018-06-20T08:28:55Z</time>
      </trkpt>
      <trkpt lat="31.05611" lon="-7.91843">
        <ele>3993.71</ele>
        <time>2018-06-20T08:29:55Z</time>
      </trkpt>
      <trkpt lat="31.05616" lon="-7.91837">
        <ele>3995.96</ele>
        <time>2018-06-20T08:30:55Z</time>
      </trkpt>
      <trkpt lat="31.05616" lon="-7.91836">
        <ele>3996.64</ele>
        <time>2018-06-20T08:31:55Z</time>
      </trkpt>
      <trkpt lat="31.05615" lon="-7.91836">
        <ele>3996.73</ele>
        <time>2018-06-20T08:32:55Z</time>
      </trkpt>
      <trkpt lat="31.05615" lon="-7.91836">
        <ele>3996.88</ele>
        <time>2018-06-20T08:33:55Z</time>
      </trkpt>
      <trkpt lat="31.05627" lon="-7.91836">
        <ele>3999.37</ele>
        <time>2018-06-20T08:34:55Z</time>
      </trkpt>
      <trkpt lat="31.05633" lon="-7.91826">
        <ele>4004.64</ele>
        <time>2018-06-20T08:35:55Z</time>
      </trkpt>
      <trkpt lat="31.05646" lon="-7.91816">
        <ele>4010.71</ele>
        <time>2018-06-20T08:36:56Z</time>
      </trkpt>
      <trkpt lat="31.05642" lon="-7.918">
        <ele>4016.12</ele>
        <time>2018-06-20T08:37:56Z</time>
      </trkpt>
      <trkpt lat="31.0565" lon="-7.91788">
        <ele>4021.61</ele>
        <time>2018-06-20T08:38:56Z</time>
      </trkpt>
      <trkpt lat="31.05652" lon="-7.91775">
        <ele>4026.96</ele>
        <time>2018-06-20T08:39:56Z</time>
      </trkpt>
      <trkpt lat="31.05669" lon="-7.91769">
        <ele>4031.2</ele>
        <time>2018-06-20T08:40:56Z</time>
      </trkpt>
      <trkpt lat="31.05688" lon="-7.91765">
        <ele>4036.62</ele>
        <time>2018-06-20T08:41:56Z</time>
      </trkpt>
      <trkpt lat="31.05702" lon="-7.91754">
        <ele>4042.31</ele>
        <time>2018-06-20T08:42:56Z</time>
      </trkpt>
      <trkpt lat="31.05707" lon="-7.91745">
        <ele>4046.33</ele>
        <time>2018-06-20T08:43:56Z</time>
      </trkpt>
      <trkpt lat="31.0573" lon="-7.91742">
        <ele>4051.34</ele>
        <time>2018-06-20T08:44:56Z</time>
      </trkpt>
      <trkpt lat="31.05742" lon="-7.91737">
        <ele>4056.82</ele>
        <time>2018-06-20T08:45:56Z</time>
      </trkpt>
      <trkpt lat="31.05761" lon="-7.91734">
        <ele>4062.93</ele>
        <time>2018-06-20T08:46:56Z</time>
      </trkpt>
      <trkpt lat="31.05777" lon="-7.9173">
        <ele>4069.77</ele>
        <time>2018-06-20T08:47:56Z</time>
      </trkpt>
      <trkpt lat="31.05789" lon="-7.91726">
        <ele>4075.39</ele>
        <time>2018-06-20T08:48:56Z</time>
      </trkpt>
      <trkpt lat="31.05811" lon="-7.91722">
        <ele>4080.25</ele>
        <time>2018-06-20T08:49:56Z</time>
      </trkpt>
      <trkpt lat="31.05822" lon="-7.91715">
        <ele>4087.32</ele>
        <time>2018-06-20T08:50:56Z</time>
      </trkpt>
      <trkpt lat="31.05833" lon="-7.91714">
        <ele>4091.58</ele>
        <time>2018-06-20T08:51:56Z</time>
      </trkpt>
      <trkpt lat="31.05839" lon="-7.91712">
        <ele>4095.86</ele>
        <time>2018-06-20T08:52:56Z</time>
      </trkpt>
      <trkpt lat="31.05842" lon="-7.91707">
        <ele>4098.94</ele>
        <time>2018-06-20T08:53:57Z</time>
      </trkpt>
      <trkpt lat="31.05845" lon="-7.91707">
        <ele>4099.08</ele>
        <time>2018-06-20T08:54:57Z</time>
      </trkpt>
      <trkpt lat="31.05843" lon="-7.91709">
        <ele>4099.69</ele>
        <time>2018-06-20T08:55:57Z</time>
      </trkpt>
      <trkpt lat="31.05843" lon="-7.91708">
        <ele>4099.96</ele>
        <time>2018-06-20T08:56:58Z</time>
      </trkpt>
      <trkpt lat="31.05844" lon="-7.91708">
        <ele>4099.63</ele>
        <time>2018-06-20T08:57:58Z</time>
      </trkpt>
      <trkpt lat="31.05846" lon="-7.91708">
        <ele>4100</ele>
        <time>2018-06-20T08:58:58Z</time>
      </trkpt>
      <trkpt lat="31.05848" lon="-7.91706">
        <ele>4096.63</ele>
        <time>2018-06-20T08:59:59Z</time>
      </trkpt>
      <trkpt lat="31.05848" lon="-7.91708">
        <ele>4099.54</ele>
        <time>2018-06-20T09:00:59Z</time>
      </trkpt>
      <trkpt lat="31.05847" lon="-7.91708">
        <ele>4099.57</ele>
        <time>2018-06-20T09:01:59Z</time>
      </trkpt>
      <trkpt lat="31.05844" lon="-7.9171">
        <ele>4098.67</ele>
        <time>2018-06-20T09:02:59Z</time>
      </trkpt>
      <trkpt lat="31.05844" lon="-7.9171">
        <ele>4098.55</ele>
        <time>2018-06-20T09:03:59Z</time>
      </trkpt>
      <trkpt lat="31.05847" lon="-7.91708">
        <ele>4098.71</ele>
        <time>2018-06-20T09:04:59Z</time>
      </trkpt>
      <trkpt lat="31.05848" lon="-7.91708">
        <ele>4099.32</ele>
        <time>2018-06-20T09:05:59Z</time>
      </trkpt>
      <trkpt lat="31.05846" lon="-7.91709">
        <ele>4097.94</ele>
        <time>2018-06-20T09:06:59Z</time>
      </trkpt>
      <trkpt lat="31.05845" lon="-7.91708">
        <ele>4098.07</ele>
        <time>2018-06-20T09:07:59Z</time>
      </trkpt>
      <trkpt lat="31.0585" lon="-7.91708">
        <ele>4098.07</ele>
        <time>2018-06-20T09:08:59Z</time>
      </trkpt>
      <trkpt lat="31.05848" lon="-7.91709">
        <ele>4098.89</ele>
        <time>2018-06-20T09:09:59Z</time>
      </trkpt>
      <trkpt lat="31.05848" lon="-7.9171">
        <ele>4098.4</ele>
        <time>2018-06-20T09:10:59Z</time>
      </trkpt>
      <trkpt lat="31.05847" lon="-7.91709">
        <ele>4098.12</ele>
        <time>2018-06-20T09:12:00Z</time>
      </trkpt>
      <trkpt lat="31.05849" lon="-7.91708">
        <ele>4098.09</ele>
        <time>2018-06-20T09:13:00Z</time>
      </trkpt>
      <trkpt lat="31.05848" lon="-7.91708">
        <ele>4098.3</ele>
        <time>2018-06-20T09:14:00Z</time>
      </trkpt>
      <trkpt lat="31.05849" lon="-7.9171">
        <ele>4098</ele>
        <time>2018-06-20T09:15:00Z</time>
      </trkpt>
      <trkpt lat="31.05848" lon="-7.91708">
        <ele>4098.22</ele>
        <time>2018-06-20T09:16:01Z</time>
      </trkpt>
      <trkpt lat="31.05849" lon="-7.91709">
        <ele>4098.66</ele>
        <time>2018-06-20T09:17:01Z</time>
      </trkpt>
      <trkpt lat="31.05849" lon="-7.91707">
        <ele>4098.28</ele>
        <time>2018-06-20T09:18:01Z</time>
      </trkpt>
      <trkpt lat="31.05848" lon="-7.91708">
        <ele>4098.37</ele>
        <time>2018-06-20T09:19:01Z</time>
      </trkpt>
      <trkpt lat="31.05848" lon="-7.91708">
        <ele>4097.64</ele>
        <time>2018-06-20T09:20:01Z</time>
      </trkpt>
      <trkpt lat="31.05848" lon="-7.91706">
        <ele>4097.62</ele>
        <time>2018-06-20T09:21:01Z</time>
      </trkpt>
      <trkpt lat="31.05846" lon="-7.91708">
        <ele>4098.28</ele>
        <time>2018-06-20T09:22:01Z</time>
      </trkpt>
      <trkpt lat="31.05886" lon="-7.91699">
        <ele>4100.15</ele>
        <time>2018-06-20T09:23:02Z</time>
      </trkpt>
      <trkpt lat="31.059" lon="-7.91717">
        <ele>4101.03</ele>
        <time>2018-06-20T09:24:02Z</time>
      </trkpt>
      <trkpt lat="31.05931" lon="-7.91699">
        <ele>4102.6</ele>
        <time>2018-06-20T09:25:02Z</time>
      </trkpt>
      <trkpt lat="31.05949" lon="-7.91684">
        <ele>4107.31</ele>
        <time>2018-06-20T09:26:02Z</time>
      </trkpt>
      <trkpt lat="31.0597" lon="-7.91667">
        <ele>4112.79</ele>
        <time>2018-06-20T09:27:03Z</time>
      </trkpt>
      <trkpt lat="31.05987" lon="-7.91653">
        <ele>4119.35</ele>
        <time>2018-06-20T09:28:04Z</time>
      </trkpt>
      <trkpt lat="31.05994" lon="-7.9165">
        <ele>4122.27</ele>
        <time>2018-06-20T09:29:04Z</time>
      </trkpt>
      <trkpt lat="31.06013" lon="-7.91641">
        <ele>4130.02</ele>
        <time>2018-06-20T09:30:04Z</time>
      </trkpt>
      <trkpt lat="31.0601" lon="-7.91632">
        <ele>4136.02</ele>
        <time>2018-06-20T09:31:04Z</time>
      </trkpt>
      <trkpt lat="31.06023" lon="-7.91621">
        <ele>4142.4</ele>
        <time>2018-06-20T09:32:04Z</time>
      </trkpt>
      <trkpt lat="31.06039" lon="-7.91601">
        <ele>4148.13</ele>
        <time>2018-06-20T09:33:04Z</time>
      </trkpt>
      <trkpt lat="31.06037" lon="-7.91571">
        <ele>4155.23</ele>
        <time>2018-06-20T09:34:04Z</time>
      </trkpt>
      <trkpt lat="31.06025" lon="-7.91538">
        <ele>4162.33</ele>
        <time>2018-06-20T09:35:04Z</time>
      </trkpt>
      <trkpt lat="31.06005" lon="-7.9151">
        <ele>4167.76</ele>
        <time>2018-06-20T09:36:04Z</time>
      </trkpt>
      <trkpt lat="31.05988" lon="-7.91492">
        <ele>4171.86</ele>
        <time>2018-06-20T09:37:04Z</time>
      </trkpt>
      <trkpt lat="31.05986" lon="-7.91488">
        <ele>4172.36</ele>
        <time>2018-06-20T09:38:05Z</time>
      </trkpt>
      <trkpt lat="31.05982" lon="-7.91491">
        <ele>4171.81</ele>
        <time>2018-06-20T09:39:06Z</time>
      </trkpt>
      <trkpt lat="31.05982" lon="-7.91494">
        <ele>4171.28</ele>
        <time>2018-06-20T09:40:06Z</time>
      </trkpt>
      <trkpt lat="31.05995" lon="-7.9149">
        <ele>4170.89</ele>
        <time>2018-06-20T09:41:06Z</time>
      </trkpt>
      <trkpt lat="31.05989" lon="-7.91493">
        <ele>4171.59</ele>
        <time>2018-06-20T09:42:06Z</time>
      </trkpt>
      <trkpt lat="31.05985" lon="-7.91492">
        <ele>4171.28</ele>
        <time>2018-06-20T09:43:06Z</time>
      </trkpt>
      <trkpt lat="31.05988" lon="-7.91492">
        <ele>4171.58</ele>
        <time>2018-06-20T09:44:06Z</time>
      </trkpt>
      <trkpt lat="31.05985" lon="-7.91493">
        <ele>4172.28</ele>
        <time>2018-06-20T09:45:07Z</time>
      </trkpt>
      <trkpt lat="31.05981" lon="-7.91486">
        <ele>4171.54</ele>
        <time>2018-06-20T09:46:09Z</time>
      </trkpt>
      <trkpt lat="31.05983" lon="-7.91493">
        <ele>4170.73</ele>
        <time>2018-06-20T09:47:09Z</time>
      </trkpt>
      <trkpt lat="31.05984" lon="-7.91489">
        <ele>4172.18</ele>
        <time>2018-06-20T09:48:09Z</time>
      </trkpt>
      <trkpt lat="31.05984" lon="-7.91489">
        <ele>4172.26</ele>
        <time>2018-06-20T09:49:09Z</time>
      </trkpt>
      <trkpt lat="31.0598" lon="-7.91494">
        <ele>4170.84</ele>
        <time>2018-06-20T09:50:09Z</time>
      </trkpt>
      <trkpt lat="31.0598" lon="-7.91493">
        <ele>4172.41</ele>
        <time>2018-06-20T09:51:09Z</time>
      </trkpt>
      <trkpt lat="31.05985" lon="-7.91492">
        <ele>4170.59</ele>
        <time>2018-06-20T09:52:10Z</time>
      </trkpt>
      <trkpt lat="31.05983" lon="-7.91489">
        <ele>4172.89</ele>
        <time>2018-06-20T09:53:10Z</time>
      </trkpt>
      <trkpt lat="31.05986" lon="-7.9149">
        <ele>4172.88</ele>
        <time>2018-06-20T09:54:10Z</time>
      </trkpt>
      <trkpt lat="31.05983" lon="-7.91492">
        <ele>4172.42</ele>
        <time>2018-06-20T09:55:10Z</time>
      </trkpt>
      <trkpt lat="31.05985" lon="-7.91489">
        <ele>4172.8</ele>
        <time>2018-06-20T09:56:10Z</time>
      </trkpt>
      <trkpt lat="31.05979" lon="-7.91491">
        <ele>4171.02</ele>
        <time>2018-06-20T09:57:10Z</time>
      </trkpt>
      <trkpt lat="31.05978" lon="-7.91492">
        <ele>4171.08</ele>
        <time>2018-06-20T09:58:10Z</time>
      </trkpt>
      <trkpt lat="31.05978" lon="-7.91491">
        <ele>4171.79</ele>
        <time>2018-06-20T09:59:10Z</time>
      </trkpt>
      <trkpt lat="31.0598" lon="-7.91491">
        <ele>4171.1</ele>
        <time>2018-06-20T10:00:10Z</time>
      </trkpt>
      <trkpt lat="31.05978" lon="-7.91493">
        <ele>4171.12</ele>
        <time>2018-06-20T10:01:10Z</time>
      </trkpt>
      <trkpt lat="31.05978" lon="-7.91492">
        <ele>4170.79</ele>
        <time>2018-06-20T10:02:10Z</time>
      </trkpt>
      <trkpt lat="31.05985" lon="-7.91493">
        <ele>4171.25</ele>
        <time>2018-06-20T10:03:10Z</time>
      </trkpt>
      <trkpt lat="31.05984" lon="-7.91492">
        <ele>4171.23</ele>
        <time>2018-06-20T10:04:10Z</time>
      </trkpt>
      <trkpt lat="31.05985" lon="-7.91492">
        <ele>4171.39</ele>
        <time>2018-06-20T10:05:10Z</time>
      </trkpt>
      <trkpt lat="31.05985" lon="-7.91494">
        <ele>4171.35</ele>
        <time>2018-06-20T10:06:10Z</time>
      </trkpt>
      <trkpt lat="31.05984" lon="-7.91493">
        <ele>4171.02</ele>
        <time>2018-06-20T10:07:11Z</time>
      </trkpt>
      <trkpt lat="31.05984" lon="-7.91493">
        <ele>4170.7</ele>
        <time>2018-06-20T10:08:11Z</time>
      </trkpt>
      <trkpt lat="31.05976" lon="-7.9149">
        <ele>4171.09</ele>
        <time>2018-06-20T10:09:13Z</time>
      </trkpt>
      <trkpt lat="31.06001" lon="-7.91502">
        <ele>4167.53</ele>
        <time>2018-06-20T10:10:13Z</time>
      </trkpt>
      <trkpt lat="31.05985" lon="-7.91495">
        <ele>4170.31</ele>
        <time>2018-06-20T10:11:13Z</time>
      </trkpt>
      <trkpt lat="31.0598" lon="-7.91496">
        <ele>4170.16</ele>
        <time>2018-06-20T10:12:13Z</time>
      </trkpt>
      <trkpt lat="31.05986" lon="-7.91494">
        <ele>4170.34</ele>
        <time>2018-06-20T10:13:13Z</time>
      </trkpt>
      <trkpt lat="31.05986" lon="-7.91494">
        <ele>4170.13</ele>
        <time>2018-06-20T10:14:13Z</time>
      </trkpt>
      <trkpt lat="31.05985" lon="-7.91494">
        <ele>4169.59</ele>
        <time>2018-06-20T10:15:13Z</time>
      </trkpt>
      <trkpt lat="31.0599" lon="-7.91489">
        <ele>4170.09</ele>
        <time>2018-06-20T10:16:14Z</time>
      </trkpt>
      <trkpt lat="31.05984" lon="-7.91493">
        <ele>4169.35</ele>
        <time>2018-06-20T10:17:14Z</time>
      </trkpt>
      <trkpt lat="31.05985" lon="-7.91494">
        <ele>4169.48</ele>
        <time>2018-06-20T10:18:14Z</time>
      </trkpt>
      <trkpt lat="31.05984" lon="-7.91491">
        <ele>4169.24</ele>
        <time>2018-06-20T10:19:14Z</time>
      </trkpt>
      <trkpt lat="31.05987" lon="-7.91491">
        <ele>4169.31</ele>
        <time>2018-06-20T10:20:14Z</time>
      </trkpt>
      <trkpt lat="31.05996" lon="-7.91493">
        <ele>4168.06</ele>
        <time>2018-06-20T10:21:14Z</time>
      </trkpt>
      <trkpt lat="31.0599" lon="-7.91493">
        <ele>4169.64</ele>
        <time>2018-06-20T10:22:14Z</time>
      </trkpt>
      <trkpt lat="31.05986" lon="-7.91492">
        <ele>4169.75</ele>
        <time>2018-06-20T10:23:14Z</time>
      </trkpt>
      <trkpt lat="31.05985" lon="-7.91493">
        <ele>4169.09</ele>
        <time>2018-06-20T10:23:58Z</time>
      </trkpt>
    </trkseg>
  </trk>
  <trk>
    <name><![CDATA[2018-06-20 15:09:18]]></name>
    <trkseg>
      <trkpt lat="31.06046" lon="-7.91596">
        <ele>4165.64</ele>
        <time>2018-06-20T10:43:09Z</time>
      </trkpt>
      <trkpt lat="31.0604" lon="-7.91597">
        <ele>4166.21</ele>
        <time>2018-06-20T10:44:09Z</time>
      </trkpt>
      <trkpt lat="31.0604" lon="-7.91598">
        <ele>4165.67</ele>
        <time>2018-06-20T10:45:09Z</time>
      </trkpt>
      <trkpt lat="31.0604" lon="-7.91599">
        <ele>4165.42</ele>
        <time>2018-06-20T10:46:09Z</time>
      </trkpt>
      <trkpt lat="31.06038" lon="-7.91599">
        <ele>4165.17</ele>
        <time>2018-06-20T10:47:09Z</time>
      </trkpt>
      <trkpt lat="31.06025" lon="-7.91618">
        <ele>4159.7</ele>
        <time>2018-06-20T10:48:09Z</time>
      </trkpt>
      <trkpt lat="31.06008" lon="-7.91638">
        <ele>4150.91</ele>
        <time>2018-06-20T10:49:09Z</time>
      </trkpt>
      <trkpt lat="31.06009" lon="-7.91649">
        <ele>4144.73</ele>
        <time>2018-06-20T10:50:10Z</time>
      </trkpt>
      <trkpt lat="31.05999" lon="-7.91652">
        <ele>4141.16</ele>
        <time>2018-06-20T10:51:10Z</time>
      </trkpt>
      <trkpt lat="31.05988" lon="-7.91658">
        <ele>4134.99</ele>
        <time>2018-06-20T10:52:10Z</time>
      </trkpt>
      <trkpt lat="31.05952" lon="-7.91682">
        <ele>4124.6</ele>
        <time>2018-06-20T10:53:10Z</time>
      </trkpt>
      <trkpt lat="31.05921" lon="-7.91705">
        <ele>4117.54</ele>
        <time>2018-06-20T10:54:10Z</time>
      </trkpt>
      <trkpt lat="31.05887" lon="-7.91716">
        <ele>4116.74</ele>
        <time>2018-06-20T10:55:10Z</time>
      </trkpt>
      <trkpt lat="31.05853" lon="-7.91715">
        <ele>4111.71</ele>
        <time>2018-06-20T10:56:10Z</time>
      </trkpt>
      <trkpt lat="31.05852" lon="-7.91725">
        <ele>4106.84</ele>
        <time>2018-06-20T10:57:10Z</time>
      </trkpt>
      <trkpt lat="31.05837" lon="-7.91737">
        <ele>4098.85</ele>
        <time>2018-06-20T10:58:10Z</time>
      </trkpt>
      <trkpt lat="31.05817" lon="-7.91727">
        <ele>4096.81</ele>
        <time>2018-06-20T10:59:10Z</time>
      </trkpt>
      <trkpt lat="31.05786" lon="-7.91732">
        <ele>4090.01</ele>
        <time>2018-06-20T11:00:10Z</time>
      </trkpt>
      <trkpt lat="31.0576" lon="-7.91734">
        <ele>4080.29</ele>
        <time>2018-06-20T11:01:10Z</time>
      </trkpt>
      <trkpt lat="31.05743" lon="-7.91742">
        <ele>4072.07</ele>
        <time>2018-06-20T11:02:10Z</time>
      </trkpt>
      <trkpt lat="31.05723" lon="-7.91748">
        <ele>4064.76</ele>
        <time>2018-06-20T11:03:10Z</time>
      </trkpt>
      <trkpt lat="31.05702" lon="-7.91753">
        <ele>4058.8</ele>
        <time>2018-06-20T11:04:12Z</time>
      </trkpt>
      <trkpt lat="31.0569" lon="-7.91772">
        <ele>4051.04</ele>
        <time>2018-06-20T11:05:12Z</time>
      </trkpt>
      <trkpt lat="31.05659" lon="-7.9178">
        <ele>4043.1</ele>
        <time>2018-06-20T11:06:12Z</time>
      </trkpt>
      <trkpt lat="31.05642" lon="-7.91796">
        <ele>4035.6</ele>
        <time>2018-06-20T11:07:12Z</time>
      </trkpt>
      <trkpt lat="31.05642" lon="-7.91805">
        <ele>4030.4</ele>
        <time>2018-06-20T11:08:12Z</time>
      </trkpt>
      <trkpt lat="31.05639" lon="-7.91824">
        <ele>4024.02</ele>
        <time>2018-06-20T11:09:12Z</time>
      </trkpt>
      <trkpt lat="31.05627" lon="-7.91838">
        <ele>4015.06</ele>
        <time>2018-06-20T11:10:12Z</time>
      </trkpt>
      <trkpt lat="31.05604" lon="-7.91856">
        <ele>4006.37</ele>
        <time>2018-06-20T11:11:12Z</time>
      </trkpt>
      <trkpt lat="31.05602" lon="-7.91887">
        <ele>3997.76</ele>
        <time>2018-06-20T11:12:12Z</time>
      </trkpt>
      <trkpt lat="31.05618" lon="-7.91915">
        <ele>3987.78</ele>
        <time>2018-06-20T11:13:12Z</time>
      </trkpt>
      <trkpt lat="31.05617" lon="-7.9195">
        <ele>3977.65</ele>
        <time>2018-06-20T11:14:12Z</time>
      </trkpt>
      <trkpt lat="31.05637" lon="-7.91974">
        <ele>3967.76</ele>
        <time>2018-06-20T11:15:12Z</time>
      </trkpt>
      <trkpt lat="31.05651" lon="-7.92007">
        <ele>3956.42</ele>
        <time>2018-06-20T11:16:12Z</time>
      </trkpt>
      <trkpt lat="31.05674" lon="-7.92015">
        <ele>3947.85</ele>
        <time>2018-06-20T11:17:12Z</time>
      </trkpt>
      <trkpt lat="31.05688" lon="-7.92052">
        <ele>3937.35</ele>
        <time>2018-06-20T11:18:12Z</time>
      </trkpt>
      <trkpt lat="31.05716" lon="-7.92074">
        <ele>3926.25</ele>
        <time>2018-06-20T11:19:12Z</time>
      </trkpt>
      <trkpt lat="31.05734" lon="-7.92093">
        <ele>3916.4</ele>
        <time>2018-06-20T11:20:12Z</time>
      </trkpt>
      <trkpt lat="31.05746" lon="-7.92106">
        <ele>3911.33</ele>
        <time>2018-06-20T11:21:12Z</time>
      </trkpt>
      <trkpt lat="31.05753" lon="-7.9211">
        <ele>3907.26</ele>
        <time>2018-06-20T11:22:12Z</time>
      </trkpt>
      <trkpt lat="31.05753" lon="-7.9211">
        <ele>3906.17</ele>
        <time>2018-06-20T11:23:12Z</time>
      </trkpt>
      <trkpt lat="31.05753" lon="-7.92117">
        <ele>3904.7</ele>
        <time>2018-06-20T11:24:12Z</time>
      </trkpt>
      <trkpt lat="31.05755" lon="-7.92122">
        <ele>3901.39</ele>
        <time>2018-06-20T11:25:14Z</time>
      </trkpt>
      <trkpt lat="31.05758" lon="-7.92121">
        <ele>3900.62</ele>
        <time>2018-06-20T11:26:14Z</time>
      </trkpt>
      <trkpt lat="31.05761" lon="-7.92124">
        <ele>3898.33</ele>
        <time>2018-06-20T11:27:14Z</time>
      </trkpt>
      <trkpt lat="31.05762" lon="-7.92129">
        <ele>3896.83</ele>
        <time>2018-06-20T11:28:14Z</time>
      </trkpt>
      <trkpt lat="31.05765" lon="-7.92129">
        <ele>3895.92</ele>
        <time>2018-06-20T11:29:14Z</time>
      </trkpt>
      <trkpt lat="31.05769" lon="-7.92135">
        <ele>3893.2</ele>
        <time>2018-06-20T11:30:14Z</time>
      </trkpt>
      <trkpt lat="31.05769" lon="-7.92139">
        <ele>3890.39</ele>
        <time>2018-06-20T11:31:14Z</time>
      </trkpt>
      <trkpt lat="31.05773" lon="-7.92143">
        <ele>3887.56</ele>
        <time>2018-06-20T11:32:14Z</time>
      </trkpt>
      <trkpt lat="31.05779" lon="-7.9214">
        <ele>3883.47</ele>
        <time>2018-06-20T11:33:14Z</time>
      </trkpt>
      <trkpt lat="31.05778" lon="-7.92145">
        <ele>3879.67</ele>
        <time>2018-06-20T11:34:15Z</time>
      </trkpt>
      <trkpt lat="31.05787" lon="-7.92149">
        <ele>3873.47</ele>
        <time>2018-06-20T11:35:15Z</time>
      </trkpt>
      <trkpt lat="31.05793" lon="-7.92157">
        <ele>3868.08</ele>
        <time>2018-06-20T11:36:15Z</time>
      </trkpt>
      <trkpt lat="31.05797" lon="-7.92179">
        <ele>3861.48</ele>
        <time>2018-06-20T11:37:15Z</time>
      </trkpt>
      <trkpt lat="31.05795" lon="-7.92198">
        <ele>3854.38</ele>
        <time>2018-06-20T11:38:15Z</time>
      </trkpt>
      <trkpt lat="31.05788" lon="-7.92213">
        <ele>3849.49</ele>
        <time>2018-06-20T11:39:16Z</time>
      </trkpt>
      <trkpt lat="31.05798" lon="-7.92229">
        <ele>3845.31</ele>
        <time>2018-06-20T11:40:16Z</time>
      </trkpt>
      <trkpt lat="31.05822" lon="-7.92272">
        <ele>3833.61</ele>
        <time>2018-06-20T11:41:16Z</time>
      </trkpt>
      <trkpt lat="31.0584" lon="-7.92279">
        <ele>3828.21</ele>
        <time>2018-06-20T11:42:16Z</time>
      </trkpt>
      <trkpt lat="31.05843" lon="-7.9228">
        <ele>3825.35</ele>
        <time>2018-06-20T11:43:16Z</time>
      </trkpt>
      <trkpt lat="31.05838" lon="-7.92284">
        <ele>3823.93</ele>
        <time>2018-06-20T11:44:17Z</time>
      </trkpt>
      <trkpt lat="31.05842" lon="-7.92279">
        <ele>3823.67</ele>
        <time>2018-06-20T11:45:18Z</time>
      </trkpt>
      <trkpt lat="31.05842" lon="-7.92288">
        <ele>3821.4</ele>
        <time>2018-06-20T11:46:18Z</time>
      </trkpt>
      <trkpt lat="31.05847" lon="-7.92284">
        <ele>3821.75</ele>
        <time>2018-06-20T11:47:18Z</time>
      </trkpt>
      <trkpt lat="31.05844" lon="-7.92286">
        <ele>3821.58</ele>
        <time>2018-06-20T11:48:18Z</time>
      </trkpt>
      <trkpt lat="31.05844" lon="-7.92286">
        <ele>3822.07</ele>
        <time>2018-06-20T11:49:18Z</time>
      </trkpt>
      <trkpt lat="31.05841" lon="-7.92286">
        <ele>3822.39</ele>
        <time>2018-06-20T11:50:18Z</time>
      </trkpt>
      <trkpt lat="31.05849" lon="-7.92284">
        <ele>3822.64</ele>
        <time>2018-06-20T11:51:18Z</time>
      </trkpt>
      <trkpt lat="31.05846" lon="-7.92281">
        <ele>3823.12</ele>
        <time>2018-06-20T11:52:18Z</time>
      </trkpt>
      <trkpt lat="31.05848" lon="-7.92288">
        <ele>3821.8</ele>
        <time>2018-06-20T11:53:18Z</time>
      </trkpt>
      <trkpt lat="31.05868" lon="-7.92292">
        <ele>3814.29</ele>
        <time>2018-06-20T11:54:18Z</time>
      </trkpt>
      <trkpt lat="31.05878" lon="-7.92316">
        <ele>3806.74</ele>
        <time>2018-06-20T11:55:18Z</time>
      </trkpt>
      <trkpt lat="31.05879" lon="-7.92337">
        <ele>3800.6</ele>
        <time>2018-06-20T11:56:19Z</time>
      </trkpt>
      <trkpt lat="31.05884" lon="-7.92355">
        <ele>3795.65</ele>
        <time>2018-06-20T11:57:19Z</time>
      </trkpt>
      <trkpt lat="31.05886" lon="-7.92395">
        <ele>3787.27</ele>
        <time>2018-06-20T11:58:19Z</time>
      </trkpt>
      <trkpt lat="31.05894" lon="-7.92409">
        <ele>3782.05</ele>
        <time>2018-06-20T11:59:20Z</time>
      </trkpt>
      <trkpt lat="31.05904" lon="-7.92409">
        <ele>3775.22</ele>
        <time>2018-06-20T12:00:20Z</time>
      </trkpt>
      <trkpt lat="31.0591" lon="-7.92416">
        <ele>3774.02</ele>
        <time>2018-06-20T12:01:20Z</time>
      </trkpt>
      <trkpt lat="31.05911" lon="-7.92433">
        <ele>3769.24</ele>
        <time>2018-06-20T12:02:20Z</time>
      </trkpt>
      <trkpt lat="31.05945" lon="-7.92472">
        <ele>3755.02</ele>
        <time>2018-06-20T12:03:20Z</time>
      </trkpt>
      <trkpt lat="31.0595" lon="-7.92475">
        <ele>3748.05</ele>
        <time>2018-06-20T12:04:20Z</time>
      </trkpt>
      <trkpt lat="31.05951" lon="-7.9248">
        <ele>3748.29</ele>
        <time>2018-06-20T12:05:20Z</time>
      </trkpt>
      <trkpt lat="31.05944" lon="-7.92498">
        <ele>3747.19</ele>
        <time>2018-06-20T12:06:21Z</time>
      </trkpt>
      <trkpt lat="31.05947" lon="-7.92511">
        <ele>3744.25</ele>
        <time>2018-06-20T12:07:22Z</time>
      </trkpt>
      <trkpt lat="31.05946" lon="-7.92543">
        <ele>3734.07</ele>
        <time>2018-06-20T12:08:22Z</time>
      </trkpt>
      <trkpt lat="31.05967" lon="-7.92556">
        <ele>3724.83</ele>
        <time>2018-06-20T12:09:22Z</time>
      </trkpt>
      <trkpt lat="31.05967" lon="-7.92576">
        <ele>3718.36</ele>
        <time>2018-06-20T12:10:22Z</time>
      </trkpt>
      <trkpt lat="31.05969" lon="-7.92573">
        <ele>3717.88</ele>
        <time>2018-06-20T12:11:22Z</time>
      </trkpt>
      <trkpt lat="31.05968" lon="-7.92588">
        <ele>3716.55</ele>
        <time>2018-06-20T12:12:22Z</time>
      </trkpt>
      <trkpt lat="31.05984" lon="-7.92597">
        <ele>3707.9</ele>
        <time>2018-06-20T12:13:22Z</time>
      </trkpt>
      <trkpt lat="31.05993" lon="-7.92614">
        <ele>3699.78</ele>
        <time>2018-06-20T12:14:22Z</time>
      </trkpt>
      <trkpt lat="31.06003" lon="-7.92636">
        <ele>3691.93</ele>
        <time>2018-06-20T12:15:22Z</time>
      </trkpt>
      <trkpt lat="31.06003" lon="-7.92675">
        <ele>3682.77</ele>
        <time>2018-06-20T12:16:22Z</time>
      </trkpt>
      <trkpt lat="31.06016" lon="-7.92704">
        <ele>3673.29</ele>
        <time>2018-06-20T12:17:22Z</time>
      </trkpt>
      <trkpt lat="31.06043" lon="-7.92733">
        <ele>3665.08</ele>
        <time>2018-06-20T12:18:22Z</time>
      </trkpt>
      <trkpt lat="31.0605" lon="-7.92758">
        <ele>3656.94</ele>
        <time>2018-06-20T12:19:22Z</time>
      </trkpt>
      <trkpt lat="31.06053" lon="-7.9279">
        <ele>3649.01</ele>
        <time>2018-06-20T12:20:22Z</time>
      </trkpt>
      <trkpt lat="31.0605" lon="-7.92827">
        <ele>3640.3</ele>
        <time>2018-06-20T12:21:22Z</time>
      </trkpt>
      <trkpt lat="31.06048" lon="-7.92831">
        <ele>3639.73</ele>
        <time>2018-06-20T12:22:22Z</time>
      </trkpt>
      <trkpt lat="31.06052" lon="-7.9283">
        <ele>3639.21</ele>
        <time>2018-06-20T12:23:23Z</time>
      </trkpt>
      <trkpt lat="31.0605" lon="-7.92832">
        <ele>3640.09</ele>
        <time>2018-06-20T12:24:23Z</time>
      </trkpt>
      <trkpt lat="31.0605" lon="-7.92818">
        <ele>3639.28</ele>
        <time>2018-06-20T12:25:23Z</time>
      </trkpt>
      <trkpt lat="31.06052" lon="-7.92819">
        <ele>3639.51</ele>
        <time>2018-06-20T12:26:23Z</time>
      </trkpt>
      <trkpt lat="31.06051" lon="-7.92824">
        <ele>3639.29</ele>
        <time>2018-06-20T12:27:24Z</time>
      </trkpt>
      <trkpt lat="31.06047" lon="-7.92816">
        <ele>3639.89</ele>
        <time>2018-06-20T12:28:24Z</time>
      </trkpt>
      <trkpt lat="31.06047" lon="-7.92816">
        <ele>3639.73</ele>
        <time>2018-06-20T12:29:24Z</time>
      </trkpt>
      <trkpt lat="31.06061" lon="-7.92835">
        <ele>3639.73</ele>
        <time>2018-06-20T12:30:28Z</time>
      </trkpt>
      <trkpt lat="31.06048" lon="-7.92819">
        <ele>3639.62</ele>
        <time>2018-06-20T12:31:28Z</time>
      </trkpt>
      <trkpt lat="31.0605" lon="-7.92811">
        <ele>3640.23</ele>
        <time>2018-06-20T12:32:28Z</time>
      </trkpt>
      <trkpt lat="31.0605" lon="-7.92817">
        <ele>3639.37</ele>
        <time>2018-06-20T12:33:28Z</time>
      </trkpt>
      <trkpt lat="31.06055" lon="-7.92825">
        <ele>3639.97</ele>
        <time>2018-06-20T12:34:28Z</time>
      </trkpt>
      <trkpt lat="31.06047" lon="-7.92817">
        <ele>3639.71</ele>
        <time>2018-06-20T12:35:28Z</time>
      </trkpt>
      <trkpt lat="31.06047" lon="-7.92822">
        <ele>3639.02</ele>
        <time>2018-06-20T12:36:28Z</time>
      </trkpt>
      <trkpt lat="31.06057" lon="-7.92829">
        <ele>3635.95</ele>
        <time>2018-06-20T12:37:28Z</time>
      </trkpt>
      <trkpt lat="31.06057" lon="-7.92848">
        <ele>3631.58</ele>
        <time>2018-06-20T12:38:28Z</time>
      </trkpt>
      <trkpt lat="31.06064" lon="-7.92864">
        <ele>3626.07</ele>
        <time>2018-06-20T12:39:28Z</time>
      </trkpt>
      <trkpt lat="31.06062" lon="-7.92878">
        <ele>3621.33</ele>
        <time>2018-06-20T12:40:28Z</time>
      </trkpt>
      <trkpt lat="31.06069" lon="-7.92896">
        <ele>3614.65</ele>
        <time>2018-06-20T12:41:28Z</time>
      </trkpt>
      <trkpt lat="31.06082" lon="-7.92922">
        <ele>3606.33</ele>
        <time>2018-06-20T12:42:28Z</time>
      </trkpt>
      <trkpt lat="31.06085" lon="-7.92944">
        <ele>3600.46</ele>
        <time>2018-06-20T12:43:28Z</time>
      </trkpt>
      <trkpt lat="31.06088" lon="-7.92962">
        <ele>3594.61</ele>
        <time>2018-06-20T12:44:28Z</time>
      </trkpt>
      <trkpt lat="31.06099" lon="-7.92973">
        <ele>3589.27</ele>
        <time>2018-06-20T12:45:28Z</time>
      </trkpt>
      <trkpt lat="31.06093" lon="-7.92987">
        <ele>3584.31</ele>
        <time>2018-06-20T12:46:28Z</time>
      </trkpt>
      <trkpt lat="31.06095" lon="-7.92997">
        <ele>3579.85</ele>
        <time>2018-06-20T12:47:29Z</time>
      </trkpt>
      <trkpt lat="31.06105" lon="-7.93019">
        <ele>3569.84</ele>
        <time>2018-06-20T12:48:29Z</time>
      </trkpt>
      <trkpt lat="31.0611" lon="-7.93032">
        <ele>3563.28</ele>
        <time>2018-06-20T12:49:29Z</time>
      </trkpt>
      <trkpt lat="31.06121" lon="-7.93048">
        <ele>3555.51</ele>
        <time>2018-06-20T12:50:30Z</time>
      </trkpt>
      <trkpt lat="31.06128" lon="-7.93061">
        <ele>3548.43</ele>
        <time>2018-06-20T12:51:30Z</time>
      </trkpt>
      <trkpt lat="31.06137" lon="-7.93073">
        <ele>3542.12</ele>
        <time>2018-06-20T12:52:30Z</time>
      </trkpt>
      <trkpt lat="31.06147" lon="-7.9309">
        <ele>3533.51</ele>
        <time>2018-06-20T12:53:30Z</time>
      </trkpt>
      <trkpt lat="31.06154" lon="-7.93109">
        <ele>3526.54</ele>
        <time>2018-06-20T12:54:30Z</time>
      </trkpt>
      <trkpt lat="31.06162" lon="-7.93136">
        <ele>3518.33</ele>
        <time>2018-06-20T12:55:30Z</time>
      </trkpt>
      <trkpt lat="31.0616" lon="-7.93164">
        <ele>3510.43</ele>
        <time>2018-06-20T12:56:30Z</time>
      </trkpt>
      <trkpt lat="31.06156" lon="-7.93179">
        <ele>3505.15</ele>
        <time>2018-06-20T12:57:30Z</time>
      </trkpt>
      <trkpt lat="31.06164" lon="-7.93201">
        <ele>3497.54</ele>
        <time>2018-06-20T12:58:30Z</time>
      </trkpt>
      <trkpt lat="31.06159" lon="-7.93221">
        <ele>3490.32</ele>
        <time>2018-06-20T12:59:30Z</time>
      </trkpt>
      <trkpt lat="31.0615" lon="-7.93238">
        <ele>3482.56</ele>
        <time>2018-06-20T13:00:31Z</time>
      </trkpt>
      <trkpt lat="31.06148" lon="-7.93262">
        <ele>3475.13</ele>
        <time>2018-06-20T13:01:31Z</time>
      </trkpt>
      <trkpt lat="31.06162" lon="-7.93275">
        <ele>3466.43</ele>
        <time>2018-06-20T13:02:31Z</time>
      </trkpt>
      <trkpt lat="31.06192" lon="-7.93268">
        <ele>3460.55</ele>
        <time>2018-06-20T13:03:31Z</time>
      </trkpt>
      <trkpt lat="31.06224" lon="-7.93262">
        <ele>3451.25</ele>
        <time>2018-06-20T13:04:31Z</time>
      </trkpt>
      <trkpt lat="31.06237" lon="-7.93269">
        <ele>3445.75</ele>
        <time>2018-06-20T13:05:31Z</time>
      </trkpt>
      <trkpt lat="31.06249" lon="-7.9328">
        <ele>3439.66</ele>
        <time>2018-06-20T13:06:31Z</time>
      </trkpt>
      <trkpt lat="31.06265" lon="-7.93293">
        <ele>3432.79</ele>
        <time>2018-06-20T13:07:31Z</time>
      </trkpt>
      <trkpt lat="31.06257" lon="-7.93314">
        <ele>3423.77</ele>
        <time>2018-06-20T13:08:31Z</time>
      </trkpt>
      <trkpt lat="31.06251" lon="-7.93337">
        <ele>3417.25</ele>
        <time>2018-06-20T13:09:31Z</time>
      </trkpt>
      <trkpt lat="31.06235" lon="-7.93371">
        <ele>3410.9</ele>
        <time>2018-06-20T13:10:31Z</time>
      </trkpt>
      <trkpt lat="31.06221" lon="-7.93383">
        <ele>3403.64</ele>
        <time>2018-06-20T13:11:31Z</time>
      </trkpt>
      <trkpt lat="31.06223" lon="-7.93399">
        <ele>3400.03</ele>
        <time>2018-06-20T13:12:31Z</time>
      </trkpt>
      <trkpt lat="31.06224" lon="-7.93395">
        <ele>3399.9</ele>
        <time>2018-06-20T13:13:31Z</time>
      </trkpt>
      <trkpt lat="31.06225" lon="-7.93393">
        <ele>3400.47</ele>
        <time>2018-06-20T13:14:31Z</time>
      </trkpt>
      <trkpt lat="31.06226" lon="-7.93394">
        <ele>3400.24</ele>
        <time>2018-06-20T13:15:31Z</time>
      </trkpt>
      <trkpt lat="31.06228" lon="-7.93391">
        <ele>3399.63</ele>
        <time>2018-06-20T13:16:31Z</time>
      </trkpt>
      <trkpt lat="31.06229" lon="-7.93389">
        <ele>3399.81</ele>
        <time>2018-06-20T13:17:31Z</time>
      </trkpt>
      <trkpt lat="31.06227" lon="-7.93392">
        <ele>3397.23</ele>
        <time>2018-06-20T13:18:31Z</time>
      </trkpt>
      <trkpt lat="31.06226" lon="-7.93389">
        <ele>3399.19</ele>
        <time>2018-06-20T13:19:31Z</time>
      </trkpt>
      <trkpt lat="31.06227" lon="-7.93388">
        <ele>3398.65</ele>
        <time>2018-06-20T13:20:31Z</time>
      </trkpt>
      <trkpt lat="31.06226" lon="-7.9339">
        <ele>3398.8</ele>
        <time>2018-06-20T13:21:31Z</time>
      </trkpt>
      <trkpt lat="31.06227" lon="-7.93391">
        <ele>3398.84</ele>
        <time>2018-06-20T13:22:31Z</time>
      </trkpt>
      <trkpt lat="31.06227" lon="-7.9339">
        <ele>3399.08</ele>
        <time>2018-06-20T13:23:31Z</time>
      </trkpt>
      <trkpt lat="31.06227" lon="-7.93392">
        <ele>3399.15</ele>
        <time>2018-06-20T13:24:31Z</time>
      </trkpt>
      <trkpt lat="31.06229" lon="-7.93388">
        <ele>3400.08</ele>
        <time>2018-06-20T13:25:31Z</time>
      </trkpt>
      <trkpt lat="31.0623" lon="-7.93392">
        <ele>3399.79</ele>
        <time>2018-06-20T13:26:31Z</time>
      </trkpt>
      <trkpt lat="31.06232" lon="-7.9339">
        <ele>3400.21</ele>
        <time>2018-06-20T13:27:31Z</time>
      </trkpt>
      <trkpt lat="31.06229" lon="-7.93389">
        <ele>3399.1</ele>
        <time>2018-06-20T13:28:32Z</time>
      </trkpt>
      <trkpt lat="31.06227" lon="-7.9339">
        <ele>3398.69</ele>
        <time>2018-06-20T13:29:32Z</time>
      </trkpt>
      <trkpt lat="31.06228" lon="-7.9339">
        <ele>3399.42</ele>
        <time>2018-06-20T13:30:32Z</time>
      </trkpt>
      <trkpt lat="31.06223" lon="-7.93389">
        <ele>3396.24</ele>
        <time>2018-06-20T13:31:32Z</time>
      </trkpt>
      <trkpt lat="31.06216" lon="-7.93397">
        <ele>3390.21</ele>
        <time>2018-06-20T13:32:32Z</time>
      </trkpt>
      <trkpt lat="31.06205" lon="-7.93407">
        <ele>3384.35</ele>
        <time>2018-06-20T13:33:32Z</time>
      </trkpt>
      <trkpt lat="31.062" lon="-7.93416">
        <ele>3381.78</ele>
        <time>2018-06-20T13:34:32Z</time>
      </trkpt>
      <trkpt lat="31.06191" lon="-7.93437">
        <ele>3377.02</ele>
        <time>2018-06-20T13:35:32Z</time>
      </trkpt>
      <trkpt lat="31.06192" lon="-7.93452">
        <ele>3370.24</ele>
        <time>2018-06-20T13:36:32Z</time>
      </trkpt>
      <trkpt lat="31.06192" lon="-7.93469">
        <ele>3362.87</ele>
        <time>2018-06-20T13:37:32Z</time>
      </trkpt>
      <trkpt lat="31.06192" lon="-7.93471">
        <ele>3361.61</ele>
        <time>2018-06-20T13:38:32Z</time>
      </trkpt>
      <trkpt lat="31.06187" lon="-7.93486">
        <ele>3358.7</ele>
        <time>2018-06-20T13:39:32Z</time>
      </trkpt>
      <trkpt lat="31.06179" lon="-7.93491">
        <ele>3354.92</ele>
        <time>2018-06-20T13:40:32Z</time>
      </trkpt>
      <trkpt lat="31.06172" lon="-7.93503">
        <ele>3350.62</ele>
        <time>2018-06-20T13:41:32Z</time>
      </trkpt>
      <trkpt lat="31.0617" lon="-7.93515">
        <ele>3346.05</ele>
        <time>2018-06-20T13:42:32Z</time>
      </trkpt>
      <trkpt lat="31.0617" lon="-7.93525">
        <ele>3341.78</ele>
        <time>2018-06-20T13:43:32Z</time>
      </trkpt>
      <trkpt lat="31.06168" lon="-7.93536">
        <ele>3338.12</ele>
        <time>2018-06-20T13:44:32Z</time>
      </trkpt>
      <trkpt lat="31.06165" lon="-7.93546">
        <ele>3331.8</ele>
        <time>2018-06-20T13:45:32Z</time>
      </trkpt>
      <trkpt lat="31.06159" lon="-7.93558">
        <ele>3325.98</ele>
        <time>2018-06-20T13:46:32Z</time>
      </trkpt>
      <trkpt lat="31.06144" lon="-7.93588">
        <ele>3319.93</ele>
        <time>2018-06-20T13:47:32Z</time>
      </trkpt>
      <trkpt lat="31.06139" lon="-7.93609">
        <ele>3314.14</ele>
        <time>2018-06-20T13:48:32Z</time>
      </trkpt>
      <trkpt lat="31.06139" lon="-7.93638">
        <ele>3305.12</ele>
        <time>2018-06-20T13:49:32Z</time>
      </trkpt>
      <trkpt lat="31.06149" lon="-7.93673">
        <ele>3298.45</ele>
        <time>2018-06-20T13:50:32Z</time>
      </trkpt>
      <trkpt lat="31.06188" lon="-7.9368">
        <ele>3289.5</ele>
        <time>2018-06-20T13:51:32Z</time>
      </trkpt>
      <trkpt lat="31.06205" lon="-7.93688">
        <ele>3281.77</ele>
        <time>2018-06-20T13:52:32Z</time>
      </trkpt>
      <trkpt lat="31.06222" lon="-7.93705">
        <ele>3272.52</ele>
        <time>2018-06-20T13:53:32Z</time>
      </trkpt>
      <trkpt lat="31.06246" lon="-7.93726">
        <ele>3268.07</ele>
        <time>2018-06-20T13:54:32Z</time>
      </trkpt>
      <trkpt lat="31.06258" lon="-7.93746">
        <ele>3261</ele>
        <time>2018-06-20T13:55:32Z</time>
      </trkpt>
      <trkpt lat="31.06273" lon="-7.93757">
        <ele>3255.28</ele>
        <time>2018-06-20T13:56:32Z</time>
      </trkpt>
      <trkpt lat="31.06278" lon="-7.93763">
        <ele>3252.5</ele>
        <time>2018-06-20T13:57:32Z</time>
      </trkpt>
      <trkpt lat="31.0627" lon="-7.93772">
        <ele>3251.21</ele>
        <time>2018-06-20T13:58:32Z</time>
      </trkpt>
      <trkpt lat="31.06273" lon="-7.93773">
        <ele>3249.1</ele>
        <time>2018-06-20T13:59:32Z</time>
      </trkpt>
      <trkpt lat="31.06273" lon="-7.93772">
        <ele>3250.23</ele>
        <time>2018-06-20T14:00:33Z</time>
      </trkpt>
      <trkpt lat="31.06275" lon="-7.93778">
        <ele>3249.72</ele>
        <time>2018-06-20T14:01:33Z</time>
      </trkpt>
      <trkpt lat="31.06276" lon="-7.93778">
        <ele>3251.24</ele>
        <time>2018-06-20T14:02:33Z</time>
      </trkpt>
      <trkpt lat="31.06274" lon="-7.93772">
        <ele>3250.72</ele>
        <time>2018-06-20T14:03:33Z</time>
      </trkpt>
      <trkpt lat="31.06272" lon="-7.93774">
        <ele>3250.44</ele>
        <time>2018-06-20T14:04:33Z</time>
      </trkpt>
      <trkpt lat="31.06274" lon="-7.93772">
        <ele>3250.53</ele>
        <time>2018-06-20T14:05:33Z</time>
      </trkpt>
      <trkpt lat="31.06287" lon="-7.93777">
        <ele>3252.54</ele>
        <time>2018-06-20T14:06:33Z</time>
      </trkpt>
      <trkpt lat="31.06335" lon="-7.93779">
        <ele>3247.99</ele>
        <time>2018-06-20T14:07:33Z</time>
      </trkpt>
      <trkpt lat="31.0635" lon="-7.93759">
        <ele>3241</ele>
        <time>2018-06-20T14:08:33Z</time>
      </trkpt>
      <trkpt lat="31.06347" lon="-7.93752">
        <ele>3243.9</ele>
        <time>2018-06-20T14:09:18Z</time>
      </trkpt>
    </trkseg>
  </trk>
  <trk>
    <name><![CDATA[2018-06-21 14:25:48]]></name>
    <trkseg>
      <trkpt lat="31.06591" lon="-7.93752">
        <ele>2992.52</ele>
        <time>2018-06-21T07:35:25Z</time>
      </trkpt>
      <trkpt lat="31.06565" lon="-7.93694">
        <ele>2984.68</ele>
        <time>2018-06-21T07:36:25Z</time>
      </trkpt>
      <trkpt lat="31.06528" lon="-7.93699">
        <ele>2983.74</ele>
        <time>2018-06-21T07:37:25Z</time>
      </trkpt>
      <trkpt lat="31.06578" lon="-7.93679">
        <ele>2979.04</ele>
        <time>2018-06-21T07:38:25Z</time>
      </trkpt>
      <trkpt lat="31.06646" lon="-7.93652">
        <ele>2973.61</ele>
        <time>2018-06-21T07:39:25Z</time>
      </trkpt>
      <trkpt lat="31.0672" lon="-7.93629">
        <ele>2966.11</ele>
        <time>2018-06-21T07:40:25Z</time>
      </trkpt>
      <trkpt lat="31.06793" lon="-7.93601">
        <ele>2961.75</ele>
        <time>2018-06-21T07:41:25Z</time>
      </trkpt>
      <trkpt lat="31.06857" lon="-7.93606">
        <ele>2952.57</ele>
        <time>2018-06-21T07:42:25Z</time>
      </trkpt>
      <trkpt lat="31.06898" lon="-7.93596">
        <ele>2947.36</ele>
        <time>2018-06-21T07:43:25Z</time>
      </trkpt>
      <trkpt lat="31.06955" lon="-7.93562">
        <ele>2937.47</ele>
        <time>2018-06-21T07:44:25Z</time>
      </trkpt>
      <trkpt lat="31.07009" lon="-7.93521">
        <ele>2929.77</ele>
        <time>2018-06-21T07:45:25Z</time>
      </trkpt>
      <trkpt lat="31.07046" lon="-7.93521">
        <ele>2926.39</ele>
        <time>2018-06-21T07:46:25Z</time>
      </trkpt>
      <trkpt lat="31.07083" lon="-7.93516">
        <ele>2922.81</ele>
        <time>2018-06-21T07:47:25Z</time>
      </trkpt>
      <trkpt lat="31.07135" lon="-7.93504">
        <ele>2916.33</ele>
        <time>2018-06-21T07:48:25Z</time>
      </trkpt>
      <trkpt lat="31.07188" lon="-7.93482">
        <ele>2912.37</ele>
        <time>2018-06-21T07:49:25Z</time>
      </trkpt>
      <trkpt lat="31.07259" lon="-7.93446">
        <ele>2905.3</ele>
        <time>2018-06-21T07:50:25Z</time>
      </trkpt>
      <trkpt lat="31.0728" lon="-7.93428">
        <ele>2901.76</ele>
        <time>2018-06-21T07:51:25Z</time>
      </trkpt>
      <trkpt lat="31.07336" lon="-7.93354">
        <ele>2895.64</ele>
        <time>2018-06-21T07:52:25Z</time>
      </trkpt>
      <trkpt lat="31.07388" lon="-7.93315">
        <ele>2886.96</ele>
        <time>2018-06-21T07:53:25Z</time>
      </trkpt>
      <trkpt lat="31.07437" lon="-7.93287">
        <ele>2880.47</ele>
        <time>2018-06-21T07:54:25Z</time>
      </trkpt>
      <trkpt lat="31.07497" lon="-7.93259">
        <ele>2873.1</ele>
        <time>2018-06-21T07:55:26Z</time>
      </trkpt>
      <trkpt lat="31.07518" lon="-7.93222">
        <ele>2868.26</ele>
        <time>2018-06-21T07:56:26Z</time>
      </trkpt>
      <trkpt lat="31.07561" lon="-7.93185">
        <ele>2859.46</ele>
        <time>2018-06-21T07:57:26Z</time>
      </trkpt>
      <trkpt lat="31.07614" lon="-7.9315">
        <ele>2852.22</ele>
        <time>2018-06-21T07:58:26Z</time>
      </trkpt>
      <trkpt lat="31.07662" lon="-7.93121">
        <ele>2846.97</ele>
        <time>2018-06-21T07:59:26Z</time>
      </trkpt>
      <trkpt lat="31.07713" lon="-7.93093">
        <ele>2838.54</ele>
        <time>2018-06-21T08:00:26Z</time>
      </trkpt>
      <trkpt lat="31.07758" lon="-7.9307">
        <ele>2831.56</ele>
        <time>2018-06-21T08:01:26Z</time>
      </trkpt>
      <trkpt lat="31.07809" lon="-7.93046">
        <ele>2824.3</ele>
        <time>2018-06-21T08:02:26Z</time>
      </trkpt>
      <trkpt lat="31.07817" lon="-7.93038">
        <ele>2822.16</ele>
        <time>2018-06-21T08:03:26Z</time>
      </trkpt>
      <trkpt lat="31.07819" lon="-7.93035">
        <ele>2822.2</ele>
        <time>2018-06-21T08:04:26Z</time>
      </trkpt>
      <trkpt lat="31.07817" lon="-7.93039">
        <ele>2822.88</ele>
        <time>2018-06-21T08:05:26Z</time>
      </trkpt>
      <trkpt lat="31.07816" lon="-7.93039">
        <ele>2822.52</ele>
        <time>2018-06-21T08:06:27Z</time>
      </trkpt>
      <trkpt lat="31.0782" lon="-7.93035">
        <ele>2822.08</ele>
        <time>2018-06-21T08:07:27Z</time>
      </trkpt>
      <trkpt lat="31.07825" lon="-7.93035">
        <ele>2821.83</ele>
        <time>2018-06-21T08:08:28Z</time>
      </trkpt>
      <trkpt lat="31.07821" lon="-7.93031">
        <ele>2821.35</ele>
        <time>2018-06-21T08:09:28Z</time>
      </trkpt>
      <trkpt lat="31.0784" lon="-7.93018">
        <ele>2819.5</ele>
        <time>2018-06-21T08:10:28Z</time>
      </trkpt>
      <trkpt lat="31.07882" lon="-7.92993">
        <ele>2813.33</ele>
        <time>2018-06-21T08:11:28Z</time>
      </trkpt>
      <trkpt lat="31.07927" lon="-7.92962">
        <ele>2804.89</ele>
        <time>2018-06-21T08:12:28Z</time>
      </trkpt>
      <trkpt lat="31.07974" lon="-7.92983">
        <ele>2800.77</ele>
        <time>2018-06-21T08:13:28Z</time>
      </trkpt>
      <trkpt lat="31.08013" lon="-7.92964">
        <ele>2797.3</ele>
        <time>2018-06-21T08:14:28Z</time>
      </trkpt>
      <trkpt lat="31.08056" lon="-7.92939">
        <ele>2790.45</ele>
        <time>2018-06-21T08:15:28Z</time>
      </trkpt>
      <trkpt lat="31.08096" lon="-7.92901">
        <ele>2784.35</ele>
        <time>2018-06-21T08:16:28Z</time>
      </trkpt>
      <trkpt lat="31.08124" lon="-7.92859">
        <ele>2777.94</ele>
        <time>2018-06-21T08:17:28Z</time>
      </trkpt>
      <trkpt lat="31.0815" lon="-7.928">
        <ele>2769.63</ele>
        <time>2018-06-21T08:18:28Z</time>
      </trkpt>
      <trkpt lat="31.08146" lon="-7.92758">
        <ele>2759.47</ele>
        <time>2018-06-21T08:19:28Z</time>
      </trkpt>
      <trkpt lat="31.08183" lon="-7.92724">
        <ele>2749.54</ele>
        <time>2018-06-21T08:20:28Z</time>
      </trkpt>
      <trkpt lat="31.08223" lon="-7.92709">
        <ele>2740.84</ele>
        <time>2018-06-21T08:21:28Z</time>
      </trkpt>
      <trkpt lat="31.08264" lon="-7.92688">
        <ele>2732.59</ele>
        <time>2018-06-21T08:22:28Z</time>
      </trkpt>
      <trkpt lat="31.08307" lon="-7.92659">
        <ele>2723.08</ele>
        <time>2018-06-21T08:23:28Z</time>
      </trkpt>
      <trkpt lat="31.08346" lon="-7.92637">
        <ele>2715.46</ele>
        <time>2018-06-21T08:24:28Z</time>
      </trkpt>
      <trkpt lat="31.08387" lon="-7.92605">
        <ele>2705.74</ele>
        <time>2018-06-21T08:25:28Z</time>
      </trkpt>
      <trkpt lat="31.08434" lon="-7.92574">
        <ele>2698.52</ele>
        <time>2018-06-21T08:26:28Z</time>
      </trkpt>
      <trkpt lat="31.08454" lon="-7.92528">
        <ele>2692.18</ele>
        <time>2018-06-21T08:27:28Z</time>
      </trkpt>
      <trkpt lat="31.08453" lon="-7.92464">
        <ele>2681.99</ele>
        <time>2018-06-21T08:28:28Z</time>
      </trkpt>
      <trkpt lat="31.08455" lon="-7.92399">
        <ele>2672.52</ele>
        <time>2018-06-21T08:29:28Z</time>
      </trkpt>
      <trkpt lat="31.08489" lon="-7.92341">
        <ele>2663.65</ele>
        <time>2018-06-21T08:30:28Z</time>
      </trkpt>
      <trkpt lat="31.08508" lon="-7.92274">
        <ele>2654.16</ele>
        <time>2018-06-21T08:31:28Z</time>
      </trkpt>
      <trkpt lat="31.08502" lon="-7.92221">
        <ele>2643.88</ele>
        <time>2018-06-21T08:32:28Z</time>
      </trkpt>
      <trkpt lat="31.08505" lon="-7.92162">
        <ele>2632.9</ele>
        <time>2018-06-21T08:33:28Z</time>
      </trkpt>
      <trkpt lat="31.08499" lon="-7.92103">
        <ele>2623.03</ele>
        <time>2018-06-21T08:34:28Z</time>
      </trkpt>
      <trkpt lat="31.08492" lon="-7.92055">
        <ele>2613.69</ele>
        <time>2018-06-21T08:35:28Z</time>
      </trkpt>
      <trkpt lat="31.08513" lon="-7.91999">
        <ele>2603.38</ele>
        <time>2018-06-21T08:36:28Z</time>
      </trkpt>
      <trkpt lat="31.08532" lon="-7.91942">
        <ele>2591.44</ele>
        <time>2018-06-21T08:37:28Z</time>
      </trkpt>
      <trkpt lat="31.08553" lon="-7.91886">
        <ele>2580.06</ele>
        <time>2018-06-21T08:38:28Z</time>
      </trkpt>
      <trkpt lat="31.08585" lon="-7.91841">
        <ele>2570.02</ele>
        <time>2018-06-21T08:39:28Z</time>
      </trkpt>
      <trkpt lat="31.0862" lon="-7.91791">
        <ele>2560.92</ele>
        <time>2018-06-21T08:40:28Z</time>
      </trkpt>
      <trkpt lat="31.08654" lon="-7.91736">
        <ele>2556.55</ele>
        <time>2018-06-21T08:41:28Z</time>
      </trkpt>
      <trkpt lat="31.08688" lon="-7.91706">
        <ele>2551.89</ele>
        <time>2018-06-21T08:42:28Z</time>
      </trkpt>
      <trkpt lat="31.08724" lon="-7.91675">
        <ele>2543.98</ele>
        <time>2018-06-21T08:43:28Z</time>
      </trkpt>
      <trkpt lat="31.08765" lon="-7.91649">
        <ele>2534.17</ele>
        <time>2018-06-21T08:44:28Z</time>
      </trkpt>
      <trkpt lat="31.088" lon="-7.91615">
        <ele>2523.19</ele>
        <time>2018-06-21T08:45:28Z</time>
      </trkpt>
      <trkpt lat="31.08837" lon="-7.91577">
        <ele>2512.63</ele>
        <time>2018-06-21T08:46:28Z</time>
      </trkpt>
      <trkpt lat="31.08875" lon="-7.91542">
        <ele>2500.79</ele>
        <time>2018-06-21T08:47:28Z</time>
      </trkpt>
      <trkpt lat="31.08918" lon="-7.91509">
        <ele>2489.3</ele>
        <time>2018-06-21T08:48:28Z</time>
      </trkpt>
      <trkpt lat="31.08938" lon="-7.91496">
        <ele>2484.19</ele>
        <time>2018-06-21T08:49:28Z</time>
      </trkpt>
      <trkpt lat="31.08971" lon="-7.91479">
        <ele>2476.11</ele>
        <time>2018-06-21T08:50:28Z</time>
      </trkpt>
      <trkpt lat="31.09014" lon="-7.91474">
        <ele>2468.44</ele>
        <time>2018-06-21T08:51:28Z</time>
      </trkpt>
      <trkpt lat="31.0902" lon="-7.91474">
        <ele>2466.93</ele>
        <time>2018-06-21T08:52:28Z</time>
      </trkpt>
      <trkpt lat="31.09021" lon="-7.91474">
        <ele>2466.93</ele>
        <time>2018-06-21T08:53:28Z</time>
      </trkpt>
      <trkpt lat="31.09021" lon="-7.91471">
        <ele>2466.61</ele>
        <time>2018-06-21T08:54:28Z</time>
      </trkpt>
      <trkpt lat="31.09027" lon="-7.91475">
        <ele>2466.26</ele>
        <time>2018-06-21T08:55:28Z</time>
      </trkpt>
      <trkpt lat="31.09025" lon="-7.91473">
        <ele>2465.5</ele>
        <time>2018-06-21T08:56:28Z</time>
      </trkpt>
      <trkpt lat="31.09064" lon="-7.91485">
        <ele>2460.15</ele>
        <time>2018-06-21T08:57:28Z</time>
      </trkpt>
      <trkpt lat="31.0911" lon="-7.9149">
        <ele>2454</ele>
        <time>2018-06-21T08:58:28Z</time>
      </trkpt>
      <trkpt lat="31.09149" lon="-7.91501">
        <ele>2444.4</ele>
        <time>2018-06-21T08:59:28Z</time>
      </trkpt>
      <trkpt lat="31.09164" lon="-7.91492">
        <ele>2436.33</ele>
        <time>2018-06-21T09:00:28Z</time>
      </trkpt>
      <trkpt lat="31.09202" lon="-7.91524">
        <ele>2429.81</ele>
        <time>2018-06-21T09:01:28Z</time>
      </trkpt>
      <trkpt lat="31.09246" lon="-7.91545">
        <ele>2423.78</ele>
        <time>2018-06-21T09:02:28Z</time>
      </trkpt>
      <trkpt lat="31.0929" lon="-7.91551">
        <ele>2416.52</ele>
        <time>2018-06-21T09:03:28Z</time>
      </trkpt>
      <trkpt lat="31.0934" lon="-7.91559">
        <ele>2409.2</ele>
        <time>2018-06-21T09:04:29Z</time>
      </trkpt>
      <trkpt lat="31.09345" lon="-7.91535">
        <ele>2400.43</ele>
        <time>2018-06-21T09:05:29Z</time>
      </trkpt>
      <trkpt lat="31.09379" lon="-7.91522">
        <ele>2390.56</ele>
        <time>2018-06-21T09:06:29Z</time>
      </trkpt>
      <trkpt lat="31.09399" lon="-7.91507">
        <ele>2383.08</ele>
        <time>2018-06-21T09:07:29Z</time>
      </trkpt>
      <trkpt lat="31.09399" lon="-7.91508">
        <ele>2383.08</ele>
        <time>2018-06-21T09:08:29Z</time>
      </trkpt>
      <trkpt lat="31.09399" lon="-7.91508">
        <ele>2383.68</ele>
        <time>2018-06-21T09:09:29Z</time>
      </trkpt>
      <trkpt lat="31.094" lon="-7.91506">
        <ele>2383.27</ele>
        <time>2018-06-21T09:10:29Z</time>
      </trkpt>
      <trkpt lat="31.09399" lon="-7.91505">
        <ele>2383.3</ele>
        <time>2018-06-21T09:11:29Z</time>
      </trkpt>
      <trkpt lat="31.09398" lon="-7.91507">
        <ele>2383.1</ele>
        <time>2018-06-21T09:12:29Z</time>
      </trkpt>
      <trkpt lat="31.09396" lon="-7.91507">
        <ele>2383.14</ele>
        <time>2018-06-21T09:13:29Z</time>
      </trkpt>
      <trkpt lat="31.09402" lon="-7.91505">
        <ele>2382.21</ele>
        <time>2018-06-21T09:14:29Z</time>
      </trkpt>
      <trkpt lat="31.09399" lon="-7.91502">
        <ele>2381.48</ele>
        <time>2018-06-21T09:15:29Z</time>
      </trkpt>
      <trkpt lat="31.09402" lon="-7.91506">
        <ele>2381.24</ele>
        <time>2018-06-21T09:16:29Z</time>
      </trkpt>
      <trkpt lat="31.09402" lon="-7.91505">
        <ele>2381.65</ele>
        <time>2018-06-21T09:17:29Z</time>
      </trkpt>
      <trkpt lat="31.09402" lon="-7.91504">
        <ele>2381.53</ele>
        <time>2018-06-21T09:18:29Z</time>
      </trkpt>
      <trkpt lat="31.09411" lon="-7.91494">
        <ele>2377.84</ele>
        <time>2018-06-21T09:19:29Z</time>
      </trkpt>
      <trkpt lat="31.09421" lon="-7.91484">
        <ele>2374.47</ele>
        <time>2018-06-21T09:20:29Z</time>
      </trkpt>
      <trkpt lat="31.09391" lon="-7.91461">
        <ele>2365.49</ele>
        <time>2018-06-21T09:21:29Z</time>
      </trkpt>
      <trkpt lat="31.09378" lon="-7.91432">
        <ele>2358.14</ele>
        <time>2018-06-21T09:22:29Z</time>
      </trkpt>
      <trkpt lat="31.09376" lon="-7.91431">
        <ele>2357.46</ele>
        <time>2018-06-21T09:23:29Z</time>
      </trkpt>
      <trkpt lat="31.09401" lon="-7.91411">
        <ele>2348.71</ele>
        <time>2018-06-21T09:24:29Z</time>
      </trkpt>
      <trkpt lat="31.09433" lon="-7.91413">
        <ele>2340.17</ele>
        <time>2018-06-21T09:25:29Z</time>
      </trkpt>
      <trkpt lat="31.09467" lon="-7.91415">
        <ele>2331.13</ele>
        <time>2018-06-21T09:26:29Z</time>
      </trkpt>
      <trkpt lat="31.09507" lon="-7.91399">
        <ele>2321.99</ele>
        <time>2018-06-21T09:27:34Z</time>
      </trkpt>
      <trkpt lat="31.09553" lon="-7.91394">
        <ele>2314.09</ele>
        <time>2018-06-21T09:28:34Z</time>
      </trkpt>
      <trkpt lat="31.09569" lon="-7.91383">
        <ele>2310.92</ele>
        <time>2018-06-21T09:29:34Z</time>
      </trkpt>
      <trkpt lat="31.09606" lon="-7.91361">
        <ele>2304.36</ele>
        <time>2018-06-21T09:30:34Z</time>
      </trkpt>
      <trkpt lat="31.09658" lon="-7.91345">
        <ele>2297.46</ele>
        <time>2018-06-21T09:31:34Z</time>
      </trkpt>
      <trkpt lat="31.09679" lon="-7.91334">
        <ele>2289.34</ele>
        <time>2018-06-21T09:32:34Z</time>
      </trkpt>
      <trkpt lat="31.09696" lon="-7.91321">
        <ele>2280.68</ele>
        <time>2018-06-21T09:33:34Z</time>
      </trkpt>
      <trkpt lat="31.09708" lon="-7.91339">
        <ele>2278.4</ele>
        <time>2018-06-21T09:34:35Z</time>
      </trkpt>
      <trkpt lat="31.0971" lon="-7.91331">
        <ele>2276.05</ele>
        <time>2018-06-21T09:35:35Z</time>
      </trkpt>
      <trkpt lat="31.09725" lon="-7.91333">
        <ele>2268.77</ele>
        <time>2018-06-21T09:36:35Z</time>
      </trkpt>
      <trkpt lat="31.09738" lon="-7.9133">
        <ele>2261.48</ele>
        <time>2018-06-21T09:37:35Z</time>
      </trkpt>
      <trkpt lat="31.09762" lon="-7.91373">
        <ele>2256.14</ele>
        <time>2018-06-21T09:38:35Z</time>
      </trkpt>
      <trkpt lat="31.09763" lon="-7.91373">
        <ele>2256.11</ele>
        <time>2018-06-21T09:39:35Z</time>
      </trkpt>
      <trkpt lat="31.0977" lon="-7.91362">
        <ele>2249.32</ele>
        <time>2018-06-21T09:40:35Z</time>
      </trkpt>
      <trkpt lat="31.09776" lon="-7.91348">
        <ele>2241.55</ele>
        <time>2018-06-21T09:41:35Z</time>
      </trkpt>
      <trkpt lat="31.09779" lon="-7.91333">
        <ele>2236.26</ele>
        <time>2018-06-21T09:42:35Z</time>
      </trkpt>
      <trkpt lat="31.09782" lon="-7.91335">
        <ele>2234.64</ele>
        <time>2018-06-21T09:43:36Z</time>
      </trkpt>
      <trkpt lat="31.09777" lon="-7.91321">
        <ele>2235.27</ele>
        <time>2018-06-21T09:44:36Z</time>
      </trkpt>
      <trkpt lat="31.09779" lon="-7.91321">
        <ele>2235.27</ele>
        <time>2018-06-21T09:45:36Z</time>
      </trkpt>
      <trkpt lat="31.09783" lon="-7.91326">
        <ele>2234.94</ele>
        <time>2018-06-21T09:46:36Z</time>
      </trkpt>
      <trkpt lat="31.09778" lon="-7.9132">
        <ele>2235.12</ele>
        <time>2018-06-21T09:47:36Z</time>
      </trkpt>
      <trkpt lat="31.09776" lon="-7.91325">
        <ele>2235.01</ele>
        <time>2018-06-21T09:48:36Z</time>
      </trkpt>
      <trkpt lat="31.0978" lon="-7.91321">
        <ele>2235.47</ele>
        <time>2018-06-21T09:49:36Z</time>
      </trkpt>
      <trkpt lat="31.09792" lon="-7.91327">
        <ele>2235.04</ele>
        <time>2018-06-21T09:50:37Z</time>
      </trkpt>
      <trkpt lat="31.09775" lon="-7.91312">
        <ele>2234.2</ele>
        <time>2018-06-21T09:51:37Z</time>
      </trkpt>
      <trkpt lat="31.09778" lon="-7.91328">
        <ele>2233.98</ele>
        <time>2018-06-21T09:52:37Z</time>
      </trkpt>
      <trkpt lat="31.09775" lon="-7.9132">
        <ele>2233.81</ele>
        <time>2018-06-21T09:53:37Z</time>
      </trkpt>
      <trkpt lat="31.09776" lon="-7.91317">
        <ele>2233.6</ele>
        <time>2018-06-21T09:54:37Z</time>
      </trkpt>
      <trkpt lat="31.09773" lon="-7.91318">
        <ele>2233.59</ele>
        <time>2018-06-21T09:55:37Z</time>
      </trkpt>
      <trkpt lat="31.09774" lon="-7.91314">
        <ele>2233.47</ele>
        <time>2018-06-21T09:56:37Z</time>
      </trkpt>
      <trkpt lat="31.09774" lon="-7.9132">
        <ele>2233.45</ele>
        <time>2018-06-21T09:57:37Z</time>
      </trkpt>
      <trkpt lat="31.09769" lon="-7.91309">
        <ele>2233.25</ele>
        <time>2018-06-21T09:58:37Z</time>
      </trkpt>
      <trkpt lat="31.09771" lon="-7.91308">
        <ele>2233.18</ele>
        <time>2018-06-21T09:59:37Z</time>
      </trkpt>
      <trkpt lat="31.0977" lon="-7.9131">
        <ele>2233.14</ele>
        <time>2018-06-21T10:00:38Z</time>
      </trkpt>
      <trkpt lat="31.09769" lon="-7.91304">
        <ele>2233.02</ele>
        <time>2018-06-21T10:01:39Z</time>
      </trkpt>
      <trkpt lat="31.09768" lon="-7.91301">
        <ele>2232.99</ele>
        <time>2018-06-21T10:02:39Z</time>
      </trkpt>
      <trkpt lat="31.09768" lon="-7.91299">
        <ele>2232.77</ele>
        <time>2018-06-21T10:03:39Z</time>
      </trkpt>
      <trkpt lat="31.0977" lon="-7.91299">
        <ele>2232.78</ele>
        <time>2018-06-21T10:04:39Z</time>
      </trkpt>
      <trkpt lat="31.09769" lon="-7.91299">
        <ele>2232.63</ele>
        <time>2018-06-21T10:05:39Z</time>
      </trkpt>
      <trkpt lat="31.09768" lon="-7.91299">
        <ele>2232.77</ele>
        <time>2018-06-21T10:06:39Z</time>
      </trkpt>
      <trkpt lat="31.09769" lon="-7.913">
        <ele>2232.97</ele>
        <time>2018-06-21T10:07:39Z</time>
      </trkpt>
      <trkpt lat="31.09768" lon="-7.91301">
        <ele>2232.92</ele>
        <time>2018-06-21T10:08:40Z</time>
      </trkpt>
      <trkpt lat="31.09768" lon="-7.91299">
        <ele>2232.9</ele>
        <time>2018-06-21T10:09:40Z</time>
      </trkpt>
      <trkpt lat="31.09768" lon="-7.91303">
        <ele>2232.96</ele>
        <time>2018-06-21T10:10:40Z</time>
      </trkpt>
      <trkpt lat="31.09768" lon="-7.91301">
        <ele>2232.94</ele>
        <time>2018-06-21T10:11:41Z</time>
      </trkpt>
      <trkpt lat="31.09768" lon="-7.91303">
        <ele>2232.91</ele>
        <time>2018-06-21T10:12:41Z</time>
      </trkpt>
      <trkpt lat="31.09768" lon="-7.91305">
        <ele>2232.84</ele>
        <time>2018-06-21T10:13:44Z</time>
      </trkpt>
      <trkpt lat="31.09765" lon="-7.91296">
        <ele>2232.51</ele>
        <time>2018-06-21T10:14:44Z</time>
      </trkpt>
      <trkpt lat="31.09769" lon="-7.91302">
        <ele>2232.7</ele>
        <time>2018-06-21T10:15:44Z</time>
      </trkpt>
      <trkpt lat="31.09769" lon="-7.91299">
        <ele>2232.54</ele>
        <time>2018-06-21T10:16:44Z</time>
      </trkpt>
      <trkpt lat="31.09768" lon="-7.91298">
        <ele>2232.51</ele>
        <time>2018-06-21T10:17:44Z</time>
      </trkpt>
      <trkpt lat="31.09764" lon="-7.91297">
        <ele>2232.79</ele>
        <time>2018-06-21T10:18:44Z</time>
      </trkpt>
      <trkpt lat="31.09763" lon="-7.91305">
        <ele>2233.85</ele>
        <time>2018-06-21T10:19:44Z</time>
      </trkpt>
      <trkpt lat="31.09764" lon="-7.9131">
        <ele>2233.39</ele>
        <time>2018-06-21T10:20:44Z</time>
      </trkpt>
      <trkpt lat="31.09772" lon="-7.91302">
        <ele>2230.07</ele>
        <time>2018-06-21T10:21:44Z</time>
      </trkpt>
      <trkpt lat="31.09782" lon="-7.9131">
        <ele>2227.04</ele>
        <time>2018-06-21T10:22:44Z</time>
      </trkpt>
      <trkpt lat="31.09797" lon="-7.91299">
        <ele>2216.91</ele>
        <time>2018-06-21T10:23:44Z</time>
      </trkpt>
      <trkpt lat="31.098" lon="-7.91271">
        <ele>2211.09</ele>
        <time>2018-06-21T10:24:44Z</time>
      </trkpt>
      <trkpt lat="31.0981" lon="-7.91271">
        <ele>2203.99</ele>
        <time>2018-06-21T10:25:44Z</time>
      </trkpt>
      <trkpt lat="31.09836" lon="-7.91305">
        <ele>2194.95</ele>
        <time>2018-06-21T10:26:44Z</time>
      </trkpt>
      <trkpt lat="31.09865" lon="-7.91286">
        <ele>2188.85</ele>
        <time>2018-06-21T10:27:44Z</time>
      </trkpt>
      <trkpt lat="31.09905" lon="-7.91331">
        <ele>2185.88</ele>
        <time>2018-06-21T10:28:44Z</time>
      </trkpt>
      <trkpt lat="31.09948" lon="-7.91397">
        <ele>2188.94</ele>
        <time>2018-06-21T10:29:44Z</time>
      </trkpt>
      <trkpt lat="31.10001" lon="-7.91448">
        <ele>2187.42</ele>
        <time>2018-06-21T10:30:44Z</time>
      </trkpt>
      <trkpt lat="31.10053" lon="-7.91463">
        <ele>2181.16</ele>
        <time>2018-06-21T10:31:44Z</time>
      </trkpt>
      <trkpt lat="31.10085" lon="-7.91444">
        <ele>2178.53</ele>
        <time>2018-06-21T10:32:45Z</time>
      </trkpt>
      <trkpt lat="31.10087" lon="-7.91443">
        <ele>2177.9</ele>
        <time>2018-06-21T10:33:46Z</time>
      </trkpt>
      <trkpt lat="31.10087" lon="-7.91445">
        <ele>2177.93</ele>
        <time>2018-06-21T10:34:46Z</time>
      </trkpt>
      <trkpt lat="31.10103" lon="-7.91464">
        <ele>2174.3</ele>
        <time>2018-06-21T10:35:46Z</time>
      </trkpt>
      <trkpt lat="31.10124" lon="-7.91523">
        <ele>2168.83</ele>
        <time>2018-06-21T10:36:46Z</time>
      </trkpt>
      <trkpt lat="31.10161" lon="-7.91572">
        <ele>2161.51</ele>
        <time>2018-06-21T10:37:46Z</time>
      </trkpt>
      <trkpt lat="31.10194" lon="-7.91621">
        <ele>2157.81</ele>
        <time>2018-06-21T10:38:46Z</time>
      </trkpt>
      <trkpt lat="31.10226" lon="-7.91652">
        <ele>2148.49</ele>
        <time>2018-06-21T10:39:46Z</time>
      </trkpt>
      <trkpt lat="31.10273" lon="-7.91666">
        <ele>2140.25</ele>
        <time>2018-06-21T10:40:46Z</time>
      </trkpt>
      <trkpt lat="31.10324" lon="-7.91682">
        <ele>2130.85</ele>
        <time>2018-06-21T10:41:46Z</time>
      </trkpt>
      <trkpt lat="31.10381" lon="-7.91687">
        <ele>2123.08</ele>
        <time>2018-06-21T10:42:46Z</time>
      </trkpt>
      <trkpt lat="31.10434" lon="-7.91694">
        <ele>2114.8</ele>
        <time>2018-06-21T10:43:46Z</time>
      </trkpt>
      <trkpt lat="31.10476" lon="-7.91719">
        <ele>2107.88</ele>
        <time>2018-06-21T10:44:46Z</time>
      </trkpt>
      <trkpt lat="31.10531" lon="-7.91753">
        <ele>2100.32</ele>
        <time>2018-06-21T10:45:46Z</time>
      </trkpt>
      <trkpt lat="31.10562" lon="-7.91797">
        <ele>2092.13</ele>
        <time>2018-06-21T10:46:46Z</time>
      </trkpt>
      <trkpt lat="31.10614" lon="-7.9181">
        <ele>2085.72</ele>
        <time>2018-06-21T10:47:46Z</time>
      </trkpt>
      <trkpt lat="31.10641" lon="-7.91828">
        <ele>2076.93</ele>
        <time>2018-06-21T10:48:46Z</time>
      </trkpt>
      <trkpt lat="31.10661" lon="-7.91871">
        <ele>2069.33</ele>
        <time>2018-06-21T10:49:46Z</time>
      </trkpt>
      <trkpt lat="31.10663" lon="-7.91894">
        <ele>2059.5</ele>
        <time>2018-06-21T10:50:46Z</time>
      </trkpt>
      <trkpt lat="31.10716" lon="-7.91902">
        <ele>2049.77</ele>
        <time>2018-06-21T10:51:46Z</time>
      </trkpt>
      <trkpt lat="31.10732" lon="-7.91917">
        <ele>2044.71</ele>
        <time>2018-06-21T10:52:46Z</time>
      </trkpt>
      <trkpt lat="31.10738" lon="-7.91928">
        <ele>2040.03</ele>
        <time>2018-06-21T10:53:46Z</time>
      </trkpt>
      <trkpt lat="31.10745" lon="-7.91938">
        <ele>2034.59</ele>
        <time>2018-06-21T10:54:46Z</time>
      </trkpt>
      <trkpt lat="31.10761" lon="-7.91948">
        <ele>2030.24</ele>
        <time>2018-06-21T10:55:46Z</time>
      </trkpt>
      <trkpt lat="31.10805" lon="-7.91959">
        <ele>2020.3</ele>
        <time>2018-06-21T10:56:46Z</time>
      </trkpt>
      <trkpt lat="31.10851" lon="-7.91959">
        <ele>2010.37</ele>
        <time>2018-06-21T10:57:46Z</time>
      </trkpt>
      <trkpt lat="31.10901" lon="-7.91969">
        <ele>2000.85</ele>
        <time>2018-06-21T10:58:46Z</time>
      </trkpt>
      <trkpt lat="31.10953" lon="-7.91964">
        <ele>1993.02</ele>
        <time>2018-06-21T10:59:46Z</time>
      </trkpt>
      <trkpt lat="31.10998" lon="-7.91967">
        <ele>1983.94</ele>
        <time>2018-06-21T11:00:47Z</time>
      </trkpt>
      <trkpt lat="31.11014" lon="-7.91981">
        <ele>1974.11</ele>
        <time>2018-06-21T11:01:47Z</time>
      </trkpt>
      <trkpt lat="31.11065" lon="-7.91985">
        <ele>1965.98</ele>
        <time>2018-06-21T11:02:47Z</time>
      </trkpt>
      <trkpt lat="31.1112" lon="-7.91993">
        <ele>1958.05</ele>
        <time>2018-06-21T11:03:47Z</time>
      </trkpt>
      <trkpt lat="31.1117" lon="-7.91988">
        <ele>1949.8</ele>
        <time>2018-06-21T11:04:47Z</time>
      </trkpt>
      <trkpt lat="31.11192" lon="-7.91997">
        <ele>1944.62</ele>
        <time>2018-06-21T11:05:47Z</time>
      </trkpt>
      <trkpt lat="31.11199" lon="-7.92011">
        <ele>1940.53</ele>
        <time>2018-06-21T11:06:47Z</time>
      </trkpt>
      <trkpt lat="31.11234" lon="-7.92013">
        <ele>1932.58</ele>
        <time>2018-06-21T11:07:47Z</time>
      </trkpt>
      <trkpt lat="31.11279" lon="-7.92006">
        <ele>1924.46</ele>
        <time>2018-06-21T11:08:47Z</time>
      </trkpt>
      <trkpt lat="31.11313" lon="-7.91968">
        <ele>1917.66</ele>
        <time>2018-06-21T11:09:47Z</time>
      </trkpt>
      <trkpt lat="31.11309" lon="-7.91996">
        <ele>1911.8</ele>
        <time>2018-06-21T11:10:48Z</time>
      </trkpt>
      <trkpt lat="31.11334" lon="-7.91983">
        <ele>1908.07</ele>
        <time>2018-06-21T11:11:48Z</time>
      </trkpt>
      <trkpt lat="31.11342" lon="-7.92011">
        <ele>1895.76</ele>
        <time>2018-06-21T11:12:48Z</time>
      </trkpt>
      <trkpt lat="31.11378" lon="-7.92009">
        <ele>1886.77</ele>
        <time>2018-06-21T11:13:48Z</time>
      </trkpt>
      <trkpt lat="31.11404" lon="-7.91991">
        <ele>1880.91</ele>
        <time>2018-06-21T11:14:49Z</time>
      </trkpt>
      <trkpt lat="31.11425" lon="-7.91988">
        <ele>1874.86</ele>
        <time>2018-06-21T11:15:50Z</time>
      </trkpt>
      <trkpt lat="31.11441" lon="-7.9198">
        <ele>1870.93</ele>
        <time>2018-06-21T11:16:50Z</time>
      </trkpt>
      <trkpt lat="31.11458" lon="-7.91981">
        <ele>1867.05</ele>
        <time>2018-06-21T11:17:50Z</time>
      </trkpt>
      <trkpt lat="31.11468" lon="-7.9198">
        <ele>1865.14</ele>
        <time>2018-06-21T11:18:50Z</time>
      </trkpt>
      <trkpt lat="31.11479" lon="-7.91983">
        <ele>1862.54</ele>
        <time>2018-06-21T11:19:50Z</time>
      </trkpt>
      <trkpt lat="31.1152" lon="-7.92005">
        <ele>1855.73</ele>
        <time>2018-06-21T11:20:50Z</time>
      </trkpt>
      <trkpt lat="31.1159" lon="-7.92036">
        <ele>1849.49</ele>
        <time>2018-06-21T11:21:50Z</time>
      </trkpt>
      <trkpt lat="31.11655" lon="-7.92062">
        <ele>1846.95</ele>
        <time>2018-06-21T11:22:50Z</time>
      </trkpt>
      <trkpt lat="31.11734" lon="-7.92098">
        <ele>1843.01</ele>
        <time>2018-06-21T11:23:52Z</time>
      </trkpt>
      <trkpt lat="31.11778" lon="-7.92101">
        <ele>1841.37</ele>
        <time>2018-06-21T11:24:52Z</time>
      </trkpt>
      <trkpt lat="31.11844" lon="-7.92139">
        <ele>1838.11</ele>
        <time>2018-06-21T11:25:52Z</time>
      </trkpt>
      <trkpt lat="31.119" lon="-7.92104">
        <ele>1835.56</ele>
        <time>2018-06-21T11:26:52Z</time>
      </trkpt>
      <trkpt lat="31.11943" lon="-7.92091">
        <ele>1833.56</ele>
        <time>2018-06-21T11:27:52Z</time>
      </trkpt>
      <trkpt lat="31.11974" lon="-7.92137">
        <ele>1832.98</ele>
        <time>2018-06-21T11:28:52Z</time>
      </trkpt>
      <trkpt lat="31.11975" lon="-7.92138">
        <ele>1833.1</ele>
        <time>2018-06-21T11:28:53Z</time>
      </trkpt>
      <trkpt lat="31.12053" lon="-7.92171">
        <ele>1829.7</ele>
        <time>2018-06-21T11:29:53Z</time>
      </trkpt>
      <trkpt lat="31.12114" lon="-7.92161">
        <ele>1828.32</ele>
        <time>2018-06-21T11:30:53Z</time>
      </trkpt>
      <trkpt lat="31.12179" lon="-7.92124">
        <ele>1827.2</ele>
        <time>2018-06-21T11:31:54Z</time>
      </trkpt>
      <trkpt lat="31.12249" lon="-7.92114">
        <ele>1823.28</ele>
        <time>2018-06-21T11:32:54Z</time>
      </trkpt>
      <trkpt lat="31.12302" lon="-7.92104">
        <ele>1820.43</ele>
        <time>2018-06-21T11:33:54Z</time>
      </trkpt>
      <trkpt lat="31.12305" lon="-7.92108">
        <ele>1820.57</ele>
        <time>2018-06-21T11:34:54Z</time>
      </trkpt>
      <trkpt lat="31.12308" lon="-7.92111">
        <ele>1820.69</ele>
        <time>2018-06-21T11:35:55Z</time>
      </trkpt>
      <trkpt lat="31.12265" lon="-7.921">
        <ele>1821.27</ele>
        <time>2018-06-21T11:36:55Z</time>
      </trkpt>
      <trkpt lat="31.12258" lon="-7.92093">
        <ele>1821.05</ele>
        <time>2018-06-21T11:37:55Z</time>
      </trkpt>
      <trkpt lat="31.12302" lon="-7.92109">
        <ele>1820.15</ele>
        <time>2018-06-21T11:38:56Z</time>
      </trkpt>
      <trkpt lat="31.12306" lon="-7.92109">
        <ele>1819.76</ele>
        <time>2018-06-21T11:39:57Z</time>
      </trkpt>
      <trkpt lat="31.12306" lon="-7.92113">
        <ele>1820.44</ele>
        <time>2018-06-21T11:40:57Z</time>
      </trkpt>
      <trkpt lat="31.12307" lon="-7.92113">
        <ele>1819.47</ele>
        <time>2018-06-21T11:41:57Z</time>
      </trkpt>
      <trkpt lat="31.12306" lon="-7.92114">
        <ele>1818.81</ele>
        <time>2018-06-21T11:42:57Z</time>
      </trkpt>
      <trkpt lat="31.1231" lon="-7.92108">
        <ele>1818.71</ele>
        <time>2018-06-21T11:43:57Z</time>
      </trkpt>
      <trkpt lat="31.1231" lon="-7.92111">
        <ele>1818.88</ele>
        <time>2018-06-21T11:44:57Z</time>
      </trkpt>
      <trkpt lat="31.1231" lon="-7.92112">
        <ele>1818.79</ele>
        <time>2018-06-21T11:45:57Z</time>
      </trkpt>
      <trkpt lat="31.12305" lon="-7.92133">
        <ele>1818.83</ele>
        <time>2018-06-21T11:46:58Z</time>
      </trkpt>
      <trkpt lat="31.12305" lon="-7.92114">
        <ele>1819.03</ele>
        <time>2018-06-21T11:47:58Z</time>
      </trkpt>
      <trkpt lat="31.12308" lon="-7.92109">
        <ele>1818.43</ele>
        <time>2018-06-21T11:48:59Z</time>
      </trkpt>
      <trkpt lat="31.12299" lon="-7.9212">
        <ele>1818.97</ele>
        <time>2018-06-21T11:50:00Z</time>
      </trkpt>
      <trkpt lat="31.12306" lon="-7.92112">
        <ele>1819.18</ele>
        <time>2018-06-21T11:51:00Z</time>
      </trkpt>
      <trkpt lat="31.12306" lon="-7.92116">
        <ele>1819.13</ele>
        <time>2018-06-21T11:52:00Z</time>
      </trkpt>
      <trkpt lat="31.12309" lon="-7.92109">
        <ele>1819.05</ele>
        <time>2018-06-21T11:53:00Z</time>
      </trkpt>
      <trkpt lat="31.12305" lon="-7.92104">
        <ele>1819.61</ele>
        <time>2018-06-21T11:54:00Z</time>
      </trkpt>
      <trkpt lat="31.12304" lon="-7.92127">
        <ele>1819.68</ele>
        <time>2018-06-21T11:55:00Z</time>
      </trkpt>
      <trkpt lat="31.12305" lon="-7.92106">
        <ele>1819.71</ele>
        <time>2018-06-21T11:56:00Z</time>
      </trkpt>
      <trkpt lat="31.12302" lon="-7.92119">
        <ele>1819.99</ele>
        <time>2018-06-21T11:57:00Z</time>
      </trkpt>
      <trkpt lat="31.1231" lon="-7.92109">
        <ele>1819.88</ele>
        <time>2018-06-21T11:58:00Z</time>
      </trkpt>
      <trkpt lat="31.12307" lon="-7.92109">
        <ele>1819.8</ele>
        <time>2018-06-21T11:59:00Z</time>
      </trkpt>
      <trkpt lat="31.12307" lon="-7.92109">
        <ele>1820.17</ele>
        <time>2018-06-21T12:00:01Z</time>
      </trkpt>
      <trkpt lat="31.1231" lon="-7.92108">
        <ele>1820.1</ele>
        <time>2018-06-21T12:01:01Z</time>
      </trkpt>
      <trkpt lat="31.12312" lon="-7.92104">
        <ele>1819.61</ele>
        <time>2018-06-21T12:02:01Z</time>
      </trkpt>
      <trkpt lat="31.12305" lon="-7.92109">
        <ele>1820.05</ele>
        <time>2018-06-21T12:03:01Z</time>
      </trkpt>
      <trkpt lat="31.12304" lon="-7.92109">
        <ele>1820.06</ele>
        <time>2018-06-21T12:04:02Z</time>
      </trkpt>
      <trkpt lat="31.12308" lon="-7.92113">
        <ele>1820.06</ele>
        <time>2018-06-21T12:05:02Z</time>
      </trkpt>
      <trkpt lat="31.12308" lon="-7.92112">
        <ele>1820.07</ele>
        <time>2018-06-21T12:06:03Z</time>
      </trkpt>
      <trkpt lat="31.12306" lon="-7.92103">
        <ele>1820.13</ele>
        <time>2018-06-21T12:07:03Z</time>
      </trkpt>
      <trkpt lat="31.12307" lon="-7.9211">
        <ele>1820.83</ele>
        <time>2018-06-21T12:08:04Z</time>
      </trkpt>
      <trkpt lat="31.12307" lon="-7.92109">
        <ele>1820.79</ele>
        <time>2018-06-21T12:09:05Z</time>
      </trkpt>
      <trkpt lat="31.12324" lon="-7.92091">
        <ele>1820.85</ele>
        <time>2018-06-21T12:10:07Z</time>
      </trkpt>
      <trkpt lat="31.12304" lon="-7.92106">
        <ele>1820.83</ele>
        <time>2018-06-21T12:11:07Z</time>
      </trkpt>
      <trkpt lat="31.12304" lon="-7.92104">
        <ele>1822.03</ele>
        <time>2018-06-21T12:12:08Z</time>
      </trkpt>
      <trkpt lat="31.12308" lon="-7.92114">
        <ele>1821.23</ele>
        <time>2018-06-21T12:13:08Z</time>
      </trkpt>
      <trkpt lat="31.12307" lon="-7.92107">
        <ele>1820.4</ele>
        <time>2018-06-21T12:14:08Z</time>
      </trkpt>
      <trkpt lat="31.12309" lon="-7.92105">
        <ele>1820.89</ele>
        <time>2018-06-21T12:14:47Z</time>
      </trkpt>
    </trkseg>
  </trk>
  <trk>
    <name><![CDATA[2018-06-21 15:13:16]]></name>
    <trkseg>
      <trkpt lat="31.12593" lon="-7.91976">
        <ele>1913.23</ele>
        <time>2018-06-21T13:26:06Z</time>
      </trkpt>
      <trkpt lat="31.12599" lon="-7.91975">
        <ele>1913.27</ele>
        <time>2018-06-21T13:26:09Z</time>
      </trkpt>
      <trkpt lat="31.12669" lon="-7.91988">
        <ele>1915.12</ele>
        <time>2018-06-21T13:27:09Z</time>
      </trkpt>
      <trkpt lat="31.12724" lon="-7.91969">
        <ele>1919.19</ele>
        <time>2018-06-21T13:28:09Z</time>
      </trkpt>
      <trkpt lat="31.12739" lon="-7.91988">
        <ele>1919.03</ele>
        <time>2018-06-21T13:29:09Z</time>
      </trkpt>
      <trkpt lat="31.12715" lon="-7.91963">
        <ele>1920.23</ele>
        <time>2018-06-21T13:30:09Z</time>
      </trkpt>
      <trkpt lat="31.12717" lon="-7.91964">
        <ele>1919.6</ele>
        <time>2018-06-21T13:31:09Z</time>
      </trkpt>
      <trkpt lat="31.12724" lon="-7.91975">
        <ele>1919.68</ele>
        <time>2018-06-21T13:32:09Z</time>
      </trkpt>
      <trkpt lat="31.12724" lon="-7.91975">
        <ele>1919.72</ele>
        <time>2018-06-21T13:33:09Z</time>
      </trkpt>
      <trkpt lat="31.12712" lon="-7.91967">
        <ele>1919.67</ele>
        <time>2018-06-21T13:34:09Z</time>
      </trkpt>
      <trkpt lat="31.12713" lon="-7.91965">
        <ele>1919.93</ele>
        <time>2018-06-21T13:35:09Z</time>
      </trkpt>
      <trkpt lat="31.12725" lon="-7.91975">
        <ele>1919.36</ele>
        <time>2018-06-21T13:36:09Z</time>
      </trkpt>
      <trkpt lat="31.12712" lon="-7.91974">
        <ele>1919.36</ele>
        <time>2018-06-21T13:37:09Z</time>
      </trkpt>
      <trkpt lat="31.12721" lon="-7.9197">
        <ele>1919.84</ele>
        <time>2018-06-21T13:38:09Z</time>
      </trkpt>
      <trkpt lat="31.12722" lon="-7.91977">
        <ele>1920.12</ele>
        <time>2018-06-21T13:39:10Z</time>
      </trkpt>
      <trkpt lat="31.12727" lon="-7.91979">
        <ele>1919.65</ele>
        <time>2018-06-21T13:40:10Z</time>
      </trkpt>
      <trkpt lat="31.1272" lon="-7.91982">
        <ele>1919.83</ele>
        <time>2018-06-21T13:41:10Z</time>
      </trkpt>
      <trkpt lat="31.12718" lon="-7.91974">
        <ele>1920.36</ele>
        <time>2018-06-21T13:42:10Z</time>
      </trkpt>
      <trkpt lat="31.12728" lon="-7.91972">
        <ele>1919.96</ele>
        <time>2018-06-21T13:43:10Z</time>
      </trkpt>
      <trkpt lat="31.12715" lon="-7.91982">
        <ele>1920.57</ele>
        <time>2018-06-21T13:44:11Z</time>
      </trkpt>
      <trkpt lat="31.12724" lon="-7.91979">
        <ele>1920.39</ele>
        <time>2018-06-21T13:45:11Z</time>
      </trkpt>
      <trkpt lat="31.12716" lon="-7.91983">
        <ele>1920.08</ele>
        <time>2018-06-21T13:46:12Z</time>
      </trkpt>
      <trkpt lat="31.12754" lon="-7.91972">
        <ele>1919.4</ele>
        <time>2018-06-21T13:47:12Z</time>
      </trkpt>
      <trkpt lat="31.12728" lon="-7.91987">
        <ele>1919.86</ele>
        <time>2018-06-21T13:48:12Z</time>
      </trkpt>
      <trkpt lat="31.12773" lon="-7.92022">
        <ele>1917.28</ele>
        <time>2018-06-21T13:49:12Z</time>
      </trkpt>
      <trkpt lat="31.12866" lon="-7.92056">
        <ele>1913.01</ele>
        <time>2018-06-21T13:50:14Z</time>
      </trkpt>
      <trkpt lat="31.12916" lon="-7.92088">
        <ele>1914.77</ele>
        <time>2018-06-21T13:51:14Z</time>
      </trkpt>
      <trkpt lat="31.12982" lon="-7.9213">
        <ele>1920.06</ele>
        <time>2018-06-21T13:52:14Z</time>
      </trkpt>
      <trkpt lat="31.13057" lon="-7.92135">
        <ele>1925.59</ele>
        <time>2018-06-21T13:53:14Z</time>
      </trkpt>
      <trkpt lat="31.13123" lon="-7.92189">
        <ele>1925.85</ele>
        <time>2018-06-21T13:54:14Z</time>
      </trkpt>
      <trkpt lat="31.1321" lon="-7.92216">
        <ele>1928.32</ele>
        <time>2018-06-21T13:55:14Z</time>
      </trkpt>
      <trkpt lat="31.13275" lon="-7.92218">
        <ele>1931.68</ele>
        <time>2018-06-21T13:56:14Z</time>
      </trkpt>
      <trkpt lat="31.13263" lon="-7.9231">
        <ele>1924.19</ele>
        <time>2018-06-21T13:57:14Z</time>
      </trkpt>
      <trkpt lat="31.13234" lon="-7.92391">
        <ele>1914.33</ele>
        <time>2018-06-21T13:58:14Z</time>
      </trkpt>
      <trkpt lat="31.13251" lon="-7.92398">
        <ele>1903.98</ele>
        <time>2018-06-21T13:59:14Z</time>
      </trkpt>
      <trkpt lat="31.13299" lon="-7.92341">
        <ele>1894.14</ele>
        <time>2018-06-21T14:00:14Z</time>
      </trkpt>
      <trkpt lat="31.13342" lon="-7.92279">
        <ele>1884.38</ele>
        <time>2018-06-21T14:01:14Z</time>
      </trkpt>
      <trkpt lat="31.13365" lon="-7.92209">
        <ele>1875.95</ele>
        <time>2018-06-21T14:02:14Z</time>
      </trkpt>
      <trkpt lat="31.13376" lon="-7.92287">
        <ele>1865.21</ele>
        <time>2018-06-21T14:03:14Z</time>
      </trkpt>
      <trkpt lat="31.13356" lon="-7.92367">
        <ele>1854.6</ele>
        <time>2018-06-21T14:04:14Z</time>
      </trkpt>
      <trkpt lat="31.13329" lon="-7.92446">
        <ele>1846.43</ele>
        <time>2018-06-21T14:05:14Z</time>
      </trkpt>
      <trkpt lat="31.13326" lon="-7.92519">
        <ele>1840.94</ele>
        <time>2018-06-21T14:06:14Z</time>
      </trkpt>
      <trkpt lat="31.13331" lon="-7.92602">
        <ele>1836.23</ele>
        <time>2018-06-21T14:07:14Z</time>
      </trkpt>
      <trkpt lat="31.13341" lon="-7.9268">
        <ele>1827.99</ele>
        <time>2018-06-21T14:08:14Z</time>
      </trkpt>
      <trkpt lat="31.13366" lon="-7.9276">
        <ele>1823.63</ele>
        <time>2018-06-21T14:09:14Z</time>
      </trkpt>
      <trkpt lat="31.13416" lon="-7.92822">
        <ele>1819.08</ele>
        <time>2018-06-21T14:10:14Z</time>
      </trkpt>
      <trkpt lat="31.13419" lon="-7.92801">
        <ele>1812.1</ele>
        <time>2018-06-21T14:11:14Z</time>
      </trkpt>
      <trkpt lat="31.13417" lon="-7.92724">
        <ele>1803.64</ele>
        <time>2018-06-21T14:12:14Z</time>
      </trkpt>
      <trkpt lat="31.13449" lon="-7.9281">
        <ele>1803.28</ele>
        <time>2018-06-21T14:13:16Z</time>
      </trkpt>
    </trkseg>
  </trk>
  <trk>
    <name><![CDATA[2018-06-22 11:19:49]]></name>
    <trkseg>
      <trkpt lat="31.13497" lon="-7.92844">
        <ele>1809.47</ele>
        <time>2018-06-22T07:12:59Z</time>
      </trkpt>
      <trkpt lat="31.13347" lon="-7.92425">
        <ele>1854.53</ele>
        <time>2018-06-22T07:47:11Z</time>
      </trkpt>
      <trkpt lat="31.13372" lon="-7.92365">
        <ele>1858.36</ele>
        <time>2018-06-22T07:48:11Z</time>
      </trkpt>
      <trkpt lat="31.13392" lon="-7.92308">
        <ele>1854.83</ele>
        <time>2018-06-22T07:49:11Z</time>
      </trkpt>
      <trkpt lat="31.13416" lon="-7.92221">
        <ele>1851.24</ele>
        <time>2018-06-22T07:50:11Z</time>
      </trkpt>
      <trkpt lat="31.13426" lon="-7.9214">
        <ele>1850.57</ele>
        <time>2018-06-22T07:51:11Z</time>
      </trkpt>
      <trkpt lat="31.13384" lon="-7.92075">
        <ele>1856.76</ele>
        <time>2018-06-22T07:52:11Z</time>
      </trkpt>
      <trkpt lat="31.1332" lon="-7.92062">
        <ele>1857.71</ele>
        <time>2018-06-22T07:53:11Z</time>
      </trkpt>
      <trkpt lat="31.13278" lon="-7.92048">
        <ele>1850.38</ele>
        <time>2018-06-22T07:54:11Z</time>
      </trkpt>
      <trkpt lat="31.13303" lon="-7.92038">
        <ele>1839.45</ele>
        <time>2018-06-22T07:55:11Z</time>
      </trkpt>
      <trkpt lat="31.13293" lon="-7.92032">
        <ele>1834.89</ele>
        <time>2018-06-22T07:56:11Z</time>
      </trkpt>
      <trkpt lat="31.13262" lon="-7.9202">
        <ele>1829.47</ele>
        <time>2018-06-22T07:57:11Z</time>
      </trkpt>
      <trkpt lat="31.13258" lon="-7.9202">
        <ele>1829.49</ele>
        <time>2018-06-22T07:58:11Z</time>
      </trkpt>
      <trkpt lat="31.13261" lon="-7.92019">
        <ele>1829.67</ele>
        <time>2018-06-22T07:59:12Z</time>
      </trkpt>
      <trkpt lat="31.13257" lon="-7.92019">
        <ele>1829.66</ele>
        <time>2018-06-22T08:00:12Z</time>
      </trkpt>
      <trkpt lat="31.13241" lon="-7.92018">
        <ele>1828.26</ele>
        <time>2018-06-22T08:01:12Z</time>
      </trkpt>
      <trkpt lat="31.13184" lon="-7.91993">
        <ele>1826.52</ele>
        <time>2018-06-22T08:02:12Z</time>
      </trkpt>
      <trkpt lat="31.13126" lon="-7.91973">
        <ele>1825.71</ele>
        <time>2018-06-22T08:03:12Z</time>
      </trkpt>
      <trkpt lat="31.13071" lon="-7.91963">
        <ele>1828.1</ele>
        <time>2018-06-22T08:04:12Z</time>
      </trkpt>
      <trkpt lat="31.13015" lon="-7.91943">
        <ele>1828.38</ele>
        <time>2018-06-22T08:05:12Z</time>
      </trkpt>
      <trkpt lat="31.1296" lon="-7.91936">
        <ele>1828.38</ele>
        <time>2018-06-22T08:06:12Z</time>
      </trkpt>
      <trkpt lat="31.12913" lon="-7.91945">
        <ele>1827.99</ele>
        <time>2018-06-22T08:07:12Z</time>
      </trkpt>
      <trkpt lat="31.12905" lon="-7.91926">
        <ele>1833.33</ele>
        <time>2018-06-22T08:08:12Z</time>
      </trkpt>
      <trkpt lat="31.12884" lon="-7.91927">
        <ele>1842.75</ele>
        <time>2018-06-22T08:09:12Z</time>
      </trkpt>
      <trkpt lat="31.12862" lon="-7.91966">
        <ele>1846.68</ele>
        <time>2018-06-22T08:10:15Z</time>
      </trkpt>
      <trkpt lat="31.1288" lon="-7.91949">
        <ele>1845</ele>
        <time>2018-06-22T08:11:15Z</time>
      </trkpt>
      <trkpt lat="31.12884" lon="-7.91948">
        <ele>1842.26</ele>
        <time>2018-06-22T08:12:15Z</time>
      </trkpt>
      <trkpt lat="31.12881" lon="-7.91944">
        <ele>1843.8</ele>
        <time>2018-06-22T08:13:15Z</time>
      </trkpt>
      <trkpt lat="31.12873" lon="-7.91941">
        <ele>1846.65</ele>
        <time>2018-06-22T08:14:15Z</time>
      </trkpt>
      <trkpt lat="31.12871" lon="-7.91947">
        <ele>1846.63</ele>
        <time>2018-06-22T08:15:15Z</time>
      </trkpt>
      <trkpt lat="31.12871" lon="-7.91949">
        <ele>1846.64</ele>
        <time>2018-06-22T08:16:15Z</time>
      </trkpt>
      <trkpt lat="31.12869" lon="-7.91934">
        <ele>1847.41</ele>
        <time>2018-06-22T08:17:16Z</time>
      </trkpt>
      <trkpt lat="31.12863" lon="-7.91915">
        <ele>1855.68</ele>
        <time>2018-06-22T08:18:16Z</time>
      </trkpt>
      <trkpt lat="31.12856" lon="-7.91899">
        <ele>1864.66</ele>
        <time>2018-06-22T08:19:16Z</time>
      </trkpt>
      <trkpt lat="31.1284" lon="-7.91892">
        <ele>1872.52</ele>
        <time>2018-06-22T08:20:16Z</time>
      </trkpt>
      <trkpt lat="31.12812" lon="-7.91882">
        <ele>1880.12</ele>
        <time>2018-06-22T08:21:16Z</time>
      </trkpt>
      <trkpt lat="31.12787" lon="-7.91879">
        <ele>1887.39</ele>
        <time>2018-06-22T08:22:16Z</time>
      </trkpt>
      <trkpt lat="31.12781" lon="-7.91873">
        <ele>1895.57</ele>
        <time>2018-06-22T08:23:16Z</time>
      </trkpt>
      <trkpt lat="31.12774" lon="-7.91855">
        <ele>1903.58</ele>
        <time>2018-06-22T08:24:16Z</time>
      </trkpt>
      <trkpt lat="31.12751" lon="-7.91851">
        <ele>1911.4</ele>
        <time>2018-06-22T08:25:16Z</time>
      </trkpt>
      <trkpt lat="31.12721" lon="-7.91829">
        <ele>1923.04</ele>
        <time>2018-06-22T08:26:16Z</time>
      </trkpt>
      <trkpt lat="31.12708" lon="-7.91819">
        <ele>1924.44</ele>
        <time>2018-06-22T08:27:16Z</time>
      </trkpt>
      <trkpt lat="31.12703" lon="-7.91817">
        <ele>1925.19</ele>
        <time>2018-06-22T08:28:16Z</time>
      </trkpt>
      <trkpt lat="31.12717" lon="-7.91822">
        <ele>1925.08</ele>
        <time>2018-06-22T08:29:16Z</time>
      </trkpt>
      <trkpt lat="31.12714" lon="-7.91825">
        <ele>1924.35</ele>
        <time>2018-06-22T08:30:17Z</time>
      </trkpt>
      <trkpt lat="31.12714" lon="-7.91823">
        <ele>1924.5</ele>
        <time>2018-06-22T08:31:17Z</time>
      </trkpt>
      <trkpt lat="31.12726" lon="-7.9182">
        <ele>1925.13</ele>
        <time>2018-06-22T08:32:17Z</time>
      </trkpt>
      <trkpt lat="31.12706" lon="-7.91802">
        <ele>1925.46</ele>
        <time>2018-06-22T08:33:19Z</time>
      </trkpt>
      <trkpt lat="31.12724" lon="-7.91823">
        <ele>1925.52</ele>
        <time>2018-06-22T08:34:20Z</time>
      </trkpt>
      <trkpt lat="31.12712" lon="-7.91827">
        <ele>1924.73</ele>
        <time>2018-06-22T08:35:20Z</time>
      </trkpt>
      <trkpt lat="31.12713" lon="-7.91837">
        <ele>1924.3</ele>
        <time>2018-06-22T08:36:20Z</time>
      </trkpt>
      <trkpt lat="31.12712" lon="-7.91839">
        <ele>1924.57</ele>
        <time>2018-06-22T08:37:20Z</time>
      </trkpt>
      <trkpt lat="31.12713" lon="-7.91836">
        <ele>1924.47</ele>
        <time>2018-06-22T08:38:20Z</time>
      </trkpt>
      <trkpt lat="31.12712" lon="-7.91829">
        <ele>1924.81</ele>
        <time>2018-06-22T08:39:20Z</time>
      </trkpt>
      <trkpt lat="31.12677" lon="-7.91859">
        <ele>1923.72</ele>
        <time>2018-06-22T08:40:20Z</time>
      </trkpt>
      <trkpt lat="31.12686" lon="-7.91847">
        <ele>1923.47</ele>
        <time>2018-06-22T08:41:20Z</time>
      </trkpt>
      <trkpt lat="31.12698" lon="-7.91835">
        <ele>1923.85</ele>
        <time>2018-06-22T08:42:20Z</time>
      </trkpt>
      <trkpt lat="31.12705" lon="-7.91832">
        <ele>1924.63</ele>
        <time>2018-06-22T08:43:20Z</time>
      </trkpt>
      <trkpt lat="31.12705" lon="-7.91833">
        <ele>1924.73</ele>
        <time>2018-06-22T08:44:20Z</time>
      </trkpt>
      <trkpt lat="31.12706" lon="-7.91834">
        <ele>1924.41</ele>
        <time>2018-06-22T08:45:20Z</time>
      </trkpt>
      <trkpt lat="31.12704" lon="-7.91832">
        <ele>1924.81</ele>
        <time>2018-06-22T08:46:20Z</time>
      </trkpt>
      <trkpt lat="31.12702" lon="-7.9183">
        <ele>1924.79</ele>
        <time>2018-06-22T08:47:21Z</time>
      </trkpt>
      <trkpt lat="31.12711" lon="-7.91828">
        <ele>1924.6</ele>
        <time>2018-06-22T08:48:23Z</time>
      </trkpt>
      <trkpt lat="31.12704" lon="-7.91827">
        <ele>1925.85</ele>
        <time>2018-06-22T08:49:23Z</time>
      </trkpt>
      <trkpt lat="31.12713" lon="-7.91825">
        <ele>1924.52</ele>
        <time>2018-06-22T08:50:23Z</time>
      </trkpt>
      <trkpt lat="31.12732" lon="-7.91796">
        <ele>1928.73</ele>
        <time>2018-06-22T08:51:23Z</time>
      </trkpt>
      <trkpt lat="31.12756" lon="-7.91756">
        <ele>1932.15</ele>
        <time>2018-06-22T08:52:23Z</time>
      </trkpt>
      <trkpt lat="31.12761" lon="-7.9172">
        <ele>1935.96</ele>
        <time>2018-06-22T08:53:23Z</time>
      </trkpt>
      <trkpt lat="31.12774" lon="-7.9166">
        <ele>1929.29</ele>
        <time>2018-06-22T08:54:23Z</time>
      </trkpt>
      <trkpt lat="31.1278" lon="-7.91607">
        <ele>1925.22</ele>
        <time>2018-06-22T08:55:23Z</time>
      </trkpt>
      <trkpt lat="31.1282" lon="-7.91569">
        <ele>1916.94</ele>
        <time>2018-06-22T08:56:23Z</time>
      </trkpt>
      <trkpt lat="31.12862" lon="-7.91586">
        <ele>1910.25</ele>
        <time>2018-06-22T08:57:23Z</time>
      </trkpt>
      <trkpt lat="31.12903" lon="-7.91504">
        <ele>1897.64</ele>
        <time>2018-06-22T08:58:23Z</time>
      </trkpt>
      <trkpt lat="31.12933" lon="-7.91427">
        <ele>1888.94</ele>
        <time>2018-06-22T08:59:23Z</time>
      </trkpt>
      <trkpt lat="31.12979" lon="-7.9144">
        <ele>1888.04</ele>
        <time>2018-06-22T09:00:23Z</time>
      </trkpt>
      <trkpt lat="31.12982" lon="-7.9147">
        <ele>1889.61</ele>
        <time>2018-06-22T09:01:23Z</time>
      </trkpt>
      <trkpt lat="31.12984" lon="-7.91479">
        <ele>1889.33</ele>
        <time>2018-06-22T09:02:24Z</time>
      </trkpt>
      <trkpt lat="31.13041" lon="-7.91468">
        <ele>1887.67</ele>
        <time>2018-06-22T09:03:24Z</time>
      </trkpt>
      <trkpt lat="31.131" lon="-7.91458">
        <ele>1884.82</ele>
        <time>2018-06-22T09:04:24Z</time>
      </trkpt>
      <trkpt lat="31.13155" lon="-7.91424">
        <ele>1883.92</ele>
        <time>2018-06-22T09:05:24Z</time>
      </trkpt>
      <trkpt lat="31.13204" lon="-7.91371">
        <ele>1881.45</ele>
        <time>2018-06-22T09:06:24Z</time>
      </trkpt>
      <trkpt lat="31.13248" lon="-7.9138">
        <ele>1877.48</ele>
        <time>2018-06-22T09:07:24Z</time>
      </trkpt>
      <trkpt lat="31.13275" lon="-7.91445">
        <ele>1880.45</ele>
        <time>2018-06-22T09:08:24Z</time>
      </trkpt>
      <trkpt lat="31.13317" lon="-7.91496">
        <ele>1879.77</ele>
        <time>2018-06-22T09:09:24Z</time>
      </trkpt>
      <trkpt lat="31.13336" lon="-7.91486">
        <ele>1876.52</ele>
        <time>2018-06-22T09:10:25Z</time>
      </trkpt>
      <trkpt lat="31.13335" lon="-7.91487">
        <ele>1876.46</ele>
        <time>2018-06-22T09:11:26Z</time>
      </trkpt>
      <trkpt lat="31.13383" lon="-7.91455">
        <ele>1876.56</ele>
        <time>2018-06-22T09:12:26Z</time>
      </trkpt>
      <trkpt lat="31.1345" lon="-7.91423">
        <ele>1875.55</ele>
        <time>2018-06-22T09:13:26Z</time>
      </trkpt>
      <trkpt lat="31.1347" lon="-7.91369">
        <ele>1869.99</ele>
        <time>2018-06-22T09:14:26Z</time>
      </trkpt>
      <trkpt lat="31.13501" lon="-7.9132">
        <ele>1864.23</ele>
        <time>2018-06-22T09:15:26Z</time>
      </trkpt>
      <trkpt lat="31.13546" lon="-7.91274">
        <ele>1860.76</ele>
        <time>2018-06-22T09:16:26Z</time>
      </trkpt>
      <trkpt lat="31.1361" lon="-7.91217">
        <ele>1855.51</ele>
        <time>2018-06-22T09:17:26Z</time>
      </trkpt>
      <trkpt lat="31.13625" lon="-7.91137">
        <ele>1852.24</ele>
        <time>2018-06-22T09:18:26Z</time>
      </trkpt>
      <trkpt lat="31.13683" lon="-7.91096">
        <ele>1852.6</ele>
        <time>2018-06-22T09:19:26Z</time>
      </trkpt>
      <trkpt lat="31.13701" lon="-7.91019">
        <ele>1852.24</ele>
        <time>2018-06-22T09:20:26Z</time>
      </trkpt>
      <trkpt lat="31.13746" lon="-7.9095">
        <ele>1845.95</ele>
        <time>2018-06-22T09:21:26Z</time>
      </trkpt>
      <trkpt lat="31.13787" lon="-7.90883">
        <ele>1841.24</ele>
        <time>2018-06-22T09:22:26Z</time>
      </trkpt>
      <trkpt lat="31.1386" lon="-7.90863">
        <ele>1834.52</ele>
        <time>2018-06-22T09:23:26Z</time>
      </trkpt>
      <trkpt lat="31.13887" lon="-7.90859">
        <ele>1829.65</ele>
        <time>2018-06-22T09:24:26Z</time>
      </trkpt>
      <trkpt lat="31.13886" lon="-7.90854">
        <ele>1829.6</ele>
        <time>2018-06-22T09:25:26Z</time>
      </trkpt>
      <trkpt lat="31.13888" lon="-7.90852">
        <ele>1829.58</ele>
        <time>2018-06-22T09:26:26Z</time>
      </trkpt>
      <trkpt lat="31.13883" lon="-7.90853">
        <ele>1829.61</ele>
        <time>2018-06-22T09:27:26Z</time>
      </trkpt>
      <trkpt lat="31.13901" lon="-7.90839">
        <ele>1831.89</ele>
        <time>2018-06-22T09:28:26Z</time>
      </trkpt>
      <trkpt lat="31.13873" lon="-7.9089">
        <ele>1826.03</ele>
        <time>2018-06-22T09:29:26Z</time>
      </trkpt>
      <trkpt lat="31.13849" lon="-7.90917">
        <ele>1821.57</ele>
        <time>2018-06-22T09:30:26Z</time>
      </trkpt>
      <trkpt lat="31.13819" lon="-7.90983">
        <ele>1814.46</ele>
        <time>2018-06-22T09:31:26Z</time>
      </trkpt>
      <trkpt lat="31.13797" lon="-7.91018">
        <ele>1810.1</ele>
        <time>2018-06-22T09:32:26Z</time>
      </trkpt>
      <trkpt lat="31.13788" lon="-7.91058">
        <ele>1807.01</ele>
        <time>2018-06-22T09:33:26Z</time>
      </trkpt>
      <trkpt lat="31.13767" lon="-7.91119">
        <ele>1800.46</ele>
        <time>2018-06-22T09:34:26Z</time>
      </trkpt>
      <trkpt lat="31.13749" lon="-7.91188">
        <ele>1794.39</ele>
        <time>2018-06-22T09:35:26Z</time>
      </trkpt>
      <trkpt lat="31.13722" lon="-7.91266">
        <ele>1788.77</ele>
        <time>2018-06-22T09:36:26Z</time>
      </trkpt>
      <trkpt lat="31.13678" lon="-7.91321">
        <ele>1782.04</ele>
        <time>2018-06-22T09:37:26Z</time>
      </trkpt>
      <trkpt lat="31.13667" lon="-7.914">
        <ele>1775.71</ele>
        <time>2018-06-22T09:38:26Z</time>
      </trkpt>
      <trkpt lat="31.13633" lon="-7.91456">
        <ele>1772.78</ele>
        <time>2018-06-22T09:39:26Z</time>
      </trkpt>
      <trkpt lat="31.13598" lon="-7.9152">
        <ele>1767.7</ele>
        <time>2018-06-22T09:40:26Z</time>
      </trkpt>
      <trkpt lat="31.13579" lon="-7.91581">
        <ele>1763.69</ele>
        <time>2018-06-22T09:41:26Z</time>
      </trkpt>
      <trkpt lat="31.13587" lon="-7.91653">
        <ele>1758.21</ele>
        <time>2018-06-22T09:42:26Z</time>
      </trkpt>
      <trkpt lat="31.13637" lon="-7.91702">
        <ele>1752.13</ele>
        <time>2018-06-22T09:43:26Z</time>
      </trkpt>
      <trkpt lat="31.13663" lon="-7.91723">
        <ele>1749.5</ele>
        <time>2018-06-22T09:44:26Z</time>
      </trkpt>
      <trkpt lat="31.1367" lon="-7.91725">
        <ele>1749.08</ele>
        <time>2018-06-22T09:45:27Z</time>
      </trkpt>
      <trkpt lat="31.13666" lon="-7.91765">
        <ele>1747.82</ele>
        <time>2018-06-22T09:46:27Z</time>
      </trkpt>
      <trkpt lat="31.13632" lon="-7.91804">
        <ele>1745.14</ele>
        <time>2018-06-22T09:47:27Z</time>
      </trkpt>
      <trkpt lat="31.13602" lon="-7.91838">
        <ele>1740.97</ele>
        <time>2018-06-22T09:48:27Z</time>
      </trkpt>
      <trkpt lat="31.136" lon="-7.91846">
        <ele>1740.72</ele>
        <time>2018-06-22T09:49:27Z</time>
      </trkpt>
      <trkpt lat="31.13644" lon="-7.91897">
        <ele>1735.69</ele>
        <time>2018-06-22T09:50:27Z</time>
      </trkpt>
      <trkpt lat="31.13616" lon="-7.91907">
        <ele>1734.7</ele>
        <time>2018-06-22T09:51:27Z</time>
      </trkpt>
      <trkpt lat="31.13584" lon="-7.91924">
        <ele>1734.61</ele>
        <time>2018-06-22T09:52:27Z</time>
      </trkpt>
      <trkpt lat="31.13566" lon="-7.91961">
        <ele>1735.82</ele>
        <time>2018-06-22T09:53:27Z</time>
      </trkpt>
      <trkpt lat="31.13541" lon="-7.9199">
        <ele>1739.68</ele>
        <time>2018-06-22T09:54:27Z</time>
      </trkpt>
      <trkpt lat="31.13515" lon="-7.92012">
        <ele>1744.35</ele>
        <time>2018-06-22T09:55:27Z</time>
      </trkpt>
      <trkpt lat="31.13511" lon="-7.92032">
        <ele>1750.97</ele>
        <time>2018-06-22T09:56:27Z</time>
      </trkpt>
      <trkpt lat="31.13528" lon="-7.92102">
        <ele>1756.21</ele>
        <time>2018-06-22T09:57:27Z</time>
      </trkpt>
      <trkpt lat="31.13535" lon="-7.92165">
        <ele>1761.41</ele>
        <time>2018-06-22T09:58:27Z</time>
      </trkpt>
      <trkpt lat="31.13544" lon="-7.92233">
        <ele>1769.89</ele>
        <time>2018-06-22T09:59:27Z</time>
      </trkpt>
      <trkpt lat="31.13521" lon="-7.92307">
        <ele>1777.34</ele>
        <time>2018-06-22T10:00:27Z</time>
      </trkpt>
      <trkpt lat="31.13504" lon="-7.92384">
        <ele>1782.82</ele>
        <time>2018-06-22T10:01:27Z</time>
      </trkpt>
      <trkpt lat="31.13486" lon="-7.92459">
        <ele>1789.37</ele>
        <time>2018-06-22T10:02:27Z</time>
      </trkpt>
      <trkpt lat="31.13467" lon="-7.92528">
        <ele>1796.36</ele>
        <time>2018-06-22T10:03:27Z</time>
      </trkpt>
      <trkpt lat="31.1344" lon="-7.92609">
        <ele>1802.55</ele>
        <time>2018-06-22T10:04:27Z</time>
      </trkpt>
      <trkpt lat="31.13423" lon="-7.92691">
        <ele>1807.03</ele>
        <time>2018-06-22T10:05:27Z</time>
      </trkpt>
      <trkpt lat="31.13441" lon="-7.92766">
        <ele>1807.67</ele>
        <time>2018-06-22T10:06:27Z</time>
      </trkpt>
      <trkpt lat="31.13463" lon="-7.92809">
        <ele>1808.21</ele>
        <time>2018-06-22T10:07:27Z</time>
      </trkpt>
      <trkpt lat="31.13461" lon="-7.92809">
        <ele>1809.85</ele>
        <time>2018-06-22T10:08:27Z</time>
      </trkpt>
      <trkpt lat="31.13462" lon="-7.92817">
        <ele>1810.11</ele>
        <time>2018-06-22T10:09:27Z</time>
      </trkpt>
      <trkpt lat="31.13476" lon="-7.92809">
        <ele>1810.28</ele>
        <time>2018-06-22T10:10:27Z</time>
      </trkpt>
      <trkpt lat="31.13405" lon="-7.92822">
        <ele>1810.16</ele>
        <time>2018-06-22T10:11:27Z</time>
      </trkpt>
      <trkpt lat="31.13462" lon="-7.92827">
        <ele>1807.39</ele>
        <time>2018-06-22T10:12:27Z</time>
      </trkpt>
      <trkpt lat="31.13453" lon="-7.92822">
        <ele>1807.62</ele>
        <time>2018-06-22T10:13:27Z</time>
      </trkpt>
      <trkpt lat="31.13476" lon="-7.92815">
        <ele>1810.49</ele>
        <time>2018-06-22T10:14:27Z</time>
      </trkpt>
      <trkpt lat="31.13478" lon="-7.92811">
        <ele>1807.47</ele>
        <time>2018-06-22T10:15:27Z</time>
      </trkpt>
      <trkpt lat="31.1348" lon="-7.92836">
        <ele>1807.46</ele>
        <time>2018-06-22T10:16:27Z</time>
      </trkpt>
      <trkpt lat="31.1345" lon="-7.92843">
        <ele>1807.14</ele>
        <time>2018-06-22T10:17:27Z</time>
      </trkpt>
      <trkpt lat="31.13453" lon="-7.92836">
        <ele>1807.07</ele>
        <time>2018-06-22T10:19:49Z</time>
      </trkpt>
    </trkseg>
  </trk>
</gpx>